     2              OBSERVATION DATA    GPS                 RINEX VERSION / TYPE
teqc 2000Jul20 Karen Wendt 20030408 21:39:54UTC             PGM / RUN BY / DATE
                                                            COMMENT
L2: 1 -> 1; 150 -> 5; 250 -> 9                              COMMENT
L2: 1 -> 1; 150 -> 5; 250 -> 9                              COMMENT
L2: 1 -> 1; 150 -> 5; 250 -> 9                              COMMENT
L2: 1 -> 1; 150 -> 5; 250 -> 9                              COMMENT
L2: 1 -> 1; 150 -> 5; 250 -> 9                              COMMENT
L2: 1 -> 1; 150 -> 5; 250 -> 9                              COMMENT
L2: 1 -> 1; 150 -> 5; 250 -> 9                              COMMENT
L2: 1 -> 1; 150 -> 5; 250 -> 9                              COMMENT
L2: 1 -> 1; 150 -> 5; 250 -> 9                              COMMENT
L2: 1 -> 1; 150 -> 5; 250 -> 9                              COMMENT
L2: 1 -> 1; 150 -> 5; 250 -> 9                              COMMENT
L2: 1 -> 1; 150 -> 5; 250 -> 9                              COMMENT
L2: 1 -> 1; 150 -> 5; 250 -> 9                              COMMENT
L2: 1 -> 1; 150 -> 5; 250 -> 9                              COMMENT
Original Marker Name: mnmt Mine_Mt_1962_DWR                 COMMENT
Campaign Name: USGS 2003                                    COMMENT
4-Character Station Name: MNMT                              COMMENT
6-Character Antenna Code: DMRCHT                            COMMENT
Vertical Measurement Point: BCR                             COMMENT
Vertical Offset to Rinex Ref. Point: 0.0348                 COMMENT
Radial Measurement Point: ECF                               COMMENT
Radial Offset to Rinex Ref. Point: 0.1897                   COMMENT
Antenna Height from Field Measurement: 1.2830 m             COMMENT
Additional Antenna Identification Info.:                    COMMENT
Turborogue and Ashtech Choke Ring                           COMMENT
Original XYZ: -2618321.3620 -4456649.9719 3726084.8359      COMMENT
New XYZ position is based on association with SCEC monument COMMENT
E1F1N4M3+0011. Position of that monument is believed to be  COMMENT
valid to within 1 m horizontally; vertical accuracy         COMMENT
should be no worse than 3-times this value.                 COMMENT
                                                            COMMENT
Revised Rinex header created by UCSD GPS archive for        COMMENT
GSAC on 11-Jul-2003 (2003:192) 16:32:27 GMT                 COMMENT
For assistance contact dagnew@ucsd.edu                      COMMENT
or anderson@python.ucsd.edu                                 COMMENT
                                                            COMMENT
MINE MT 1962                                                MARKER NAME
CHS US GEOLOGICAL SURVEY                                    OBSERVER / AGENCY
LP03360 ASHTECH Z-XII3 CC00                                 REC # / TYPE / VERS
CR620022602 DORNE-MARGOL. TYPE T                            ANT # / TYPE
 -2618331.9026 -4456618.8137  3726072.0447                  APPROX POSITION XYZ
        1.2341        0.0000        0.0000                  ANTENNA: DELTA H/E/N
     1     1     0                                          WAVELENGTH FACT L1/2
     5    C1    L1    L2    P1    P2                        # / TYPES OF OBSERV
    30                                                      INTERVAL
  2003     4     2     0     1    0.000000                  TIME OF FIRST OBS
  2003     4     2    23    59   30.000000                  TIME OF LAST OBS
                                                            END OF HEADER
 03  4  2  0  1  0.0000000  0  9G14G17G31G 9G 3G26G15G23G18
  22502051.869    -9628230.15649  -6850341.00846  22502051.375    22502061.809
  21410994.942   -22924442.79348 -17835113.37744  21410994.227    21411003.655
  23975880.585    -4868049.59949  -3763767.46345  23975879.754    23975891.910
  24174733.904    -4810697.93649  -3729331.47844  24174732.678    24174747.612
  22064546.057   -18657871.98449 -14217293.81746  22064545.563    22064553.944
  12119306.39848   2578930.52043
  20249929.637   -26202676.10449 -19857109.58048  20249928.726    20249936.403
  21223446.284   -17630462.71749 -13076338.99247  21223445.694    21223453.469
  20570788.353   -22583915.64949 -17576708.97247  20570787.780    20570794.350
 03  4  2  0  1 30.0000000  0  9G14G17G31G 9G 3G26G15G23G18
  22482948.865    -9728617.14349  -6928564.35646  22482948.189    22482958.369
  21419236.208   -22881136.97949 -17801368.56244  21419235.580    21419244.818
  23959203.963    -4955685.70349  -3832055.17845  23959203.049    23959214.910
  24163750.118    -4868418.35949  -3774308.07844  24163749.036    24163763.666
  22055487.290   -18705476.09249 -14254387.86446  22055486.744    22055494.851
  12227174.38149   2662954.66043
  20248535.376   -26210003.13249 -19862818.92447  20248534.412    20248542.083
  21231198.637   -17589724.65849 -13044595.02447  21231197.968    21231205.650
  20575861.738   -22557255.23849 -17555934.61147  20575861.088    20575867.615
 03  4  2  0  2  0.0000000  0  9G14G17G31G 9G 3G26G15G23G18
  22463896.756    -9828736.08649  -7006578.86846  22463896.118    22463905.977
  21427534.773   -22837531.10249 -17767389.98644  21427534.087    21427542.772
  23942589.804    -5042990.67249  -3900084.81345  23942588.962    23942600.891
  24152828.410    -4925808.49549  -3819027.47444  24152827.576    24152842.338
  22046524.472   -18752575.64949 -14291088.77846  22046523.939    22046531.947
  12335268.108 9    644383.758 1
  20247202.943   -26217004.71749 -19868274.69447  20247201.994    20247209.695
  21238984.845   -17548807.90949 -13012711.82547  21238984.187    21238991.856
  20580988.454   -22530314.54949 -17534941.85547  20580987.809    20580994.184
 03  4  2  0  2 30.0000000  0  9G14G17G31G 9G 3G26G15G23G18
  22444895.974    -9928585.21149  -7084383.12846  22444895.353    22444905.063
  21435889.350   -22793625.78449 -17733178.08245  21435888.604    21435897.455
  23926038.818    -5129962.57549  -3967854.96745  23926038.289    23926050.190
  24141969.910    -4982865.74849  -3863487.45344  24141969.811    24141983.468
  22037657.854   -18799169.73449 -14327395.78746  22037657.288    22037665.405
  12443583.78349   2616389.53443
  20245932.563   -26223680.54149 -19873476.59947  20245931.623    20245939.334
  21246804.716   -17507714.41349 -12980690.92246  21246804.024    21246811.761
  20586168.038   -22503095.48949 -17513732.17847  20586167.333    20586173.691
 03  4  2  0  3  0.0000000  0  9G14G17G31G 9G 3G26G15G23G18
  22425947.379   -10028160.08349  -7161973.67746  22425946.740    22425956.457
  21444301.673   -22749419.02549 -17698731.29745  21444300.899    21444309.854
  23909552.704    -5216597.23249  -4035362.36245  23909552.002    23909563.603
  24131176.779    -5039585.70849  -3907684.60744  24131176.733    24131189.401
  22028887.828   -18845254.91749 -14363306.26346  22028887.389    22028895.609
  12552120.19649   2700924.09643
  20244724.691   -26230027.85849 -19878422.53047  20244723.769    20244731.476
  21254658.186   -17466444.06949 -12948532.18846  21254657.497    21254665.275
  20591400.502   -22475597.84549 -17492305.42847  20591399.861    20591406.281
 03  4  2  0  3 30.0000000  0  9G14G17G31G 9G 3G26G15G23G18
  22407050.845   -10127461.13449  -7239350.92646  22407050.362    22407059.887
  21452770.760   -22704914.05449 -17664052.12745  21452769.857    21452779.048
  23893130.577    -5302895.36349  -4102607.47645  23893129.901    23893140.994
  24120447.472    -5095968.62249  -3951619.01544  24120447.310    24120459.850
  22020214.395   -18890833.06649 -14398821.61646  22020213.884    22020222.249
  12660870.90549   2785625.64543
  20243578.952   -26236048.68649 -19883114.04847  20243578.033    20243585.814
  21262544.294   -17425001.47549 -12916239.28646  21262543.637    21262551.576
  20596685.122   -22447826.19649 -17470665.18047  20596684.542    20596691.045
 03  4  2  0  4  0.0000000  0  8G14G17G31G 9G 3G15G23G18
  22388207.277   -10226483.90449  -7316511.31046  22388206.887    22388216.259
  21461297.046   -22660107.36949 -17629137.84245  21461296.253    21461305.483
  23876773.603    -5388852.04249  -4169586.53645  23876772.844    23876783.384
  24109783.477    -5152009.12849  -3995286.66944  24109783.424    24109795.684
  22011638.185   -18935900.51249 -14433939.07946  22011637.741    22011646.150
  20242495.975   -26241739.58249 -19887548.49247  20242495.102    20242502.882
  21270463.473   -17383386.11749 -12883811.71146  21270462.805    21270470.674
  20602022.164   -22419779.56749 -17448810.64547  20602021.627    20602028.211
 03  4  2  0  4 30.0000000  0  8G14G17G31G 9G 3G15G23G18
  22369417.069   -10325227.38149  -7393454.08446  22369416.545    22369425.756
  21469880.702   -22615000.99449 -17593990.03445  21469879.782    21469889.052
  23860481.676    -5474466.60949  -4236299.04545  23860480.912    23860491.051
  24099184.715    -5207706.08449  -4038686.63645  24099184.652    24099197.213
  22003159.257   -18980457.33649 -14468658.63246  22003158.750    22003167.149
  20241475.628   -26247101.66649 -19891726.69647  20241474.749    20241482.460
  21278414.908   -17341600.88249 -12851251.79446  21278414.231    21278422.131
  20607411.010   -22391461.14449 -17426744.34747  20607410.447    20607417.124
 03  4  2  0  5  0.0000000  0  8G14G17G31G 9G 3G15G23G18
  22350680.785   -10423687.01349  -7470175.67146  22350680.127    22350689.314
  21478521.729   -22569592.24349 -17558606.63345  21478520.799    21478529.998
  23844255.806    -5559734.29249  -4302741.28645  23844255.155    23844264.826
  24088652.604    -5263054.05449  -4081814.69545  24088652.324    24088664.952
  21994778.199   -19024499.99249 -14502977.53846  21994777.712    21994786.058
  20240518.467   -26252131.55749 -19895646.07047  20240517.532    20240525.277
  21286398.571   -17299645.17549 -12818559.00946  21286397.944    21286405.999
  20612851.772   -22362869.99949 -17404465.49448  20612851.220    20612857.908
 03  4  2  0  5 30.0000000  0  8G14G17G31G 9G 3G15G23G18
  22331998.738   -10521860.79649  -7546674.54446  22331998.120    22332007.354
  21487220.157   -22523881.45749 -17522987.87445  21487219.278    21487228.244
  23828096.081    -5644653.37349  -4368911.91845  23828095.523    23828104.634
  24078186.458    -5318051.06948  -4124669.29244  24078186.199    24078198.966
  21986495.106   -19068027.74549 -14536895.22347  21986494.637    21986503.070
  20239624.470   -26256829.00649 -19899306.41047  20239623.560    20239631.355
  21294414.585   -17257521.01449 -12785735.00446  21294413.865    21294421.931
  20618344.059   -22334008.18349 -17381975.74947  20618343.458    20618350.092
 03  4  2  0  6  0.0000000  0  8G14G17G31G 9G 3G15G23G18
  22313372.022   -10619744.28049  -7622947.23246  22313371.375    22313380.568
  21495976.366   -22477866.26649 -17487131.92845  21495975.595    21495984.337
  23812003.487    -5729219.45149  -4434807.42745  23812003.083    23812012.600
  24067788.177    -5372692.33048  -4167246.65944  24067787.780    24067800.604
  21978310.564   -19111037.24749 -14570409.04847  21978310.103    21978318.685
  20238794.379   -26261191.08349 -19902705.41947  20238793.495    20238801.246
  21302462.548   -17215227.96949 -12752779.39946  21302461.883    21302469.947
  20623887.874   -22304875.22249 -17359274.74047  20623887.270    20623893.813
 03  4  2  0  6 30.0000000  0  8G14G17G31G 9G 3G15G23G18
  22294800.266   -10717339.06949  -7698994.96046  22294799.522    22294808.882
  21504789.908   -22431551.07249 -17451042.17845  21504789.244    21504797.824
  23795977.703    -5813434.25249  -4500429.21445  23795977.228    23795987.313
  24057457.992    -5426979.11949  -4209547.81544  24057457.388    24057470.074
  21970224.309   -19153531.13649 -14603521.13247  21970223.880    21970232.322
  20238027.579   -26265220.77549 -19905845.41147  20238026.666    20238034.414
  21310541.648   -17172771.68049 -12719696.56446  21310541.030    21310549.009
  20629482.239   -22275476.73249 -17336366.78047  20629481.607    20629488.122
 03  4  2  0  7  0.0000000  0  8G14G17G31G 9G 3G15G23G18
  22276284.186   -10814640.54449  -7774814.09346  22276283.530    22276293.013
  21513661.144   -22384933.15849 -17414716.54545  21513660.373    21513668.965
  23780019.829    -5897292.95749  -4565773.51645  23780019.435    23780029.852
  24047196.031    -5480906.38849  -4251568.91944  24047195.771    24047207.649
  21962236.773   -19195505.94249 -14636228.68847  21962236.370    21962244.677
  20237324.624   -26268914.77949 -19908723.82147  20237323.702    20237331.440
  21318652.135   -17130151.36049 -12686485.91446  21318651.484    21318659.267
  20635127.166   -22245811.85149 -17313251.32847  20635126.539    20635133.175
 03  4  2  0  7 30.0000000  0  8G14G17G31G 9G 3G15G23G18
  22257824.731   -10911644.32849  -7850401.30046  22257824.149    22257833.696
  21522590.232   -22338009.98249 -17378153.05545  21522589.451    21522598.250
  23764130.678    -5980791.35849  -4630837.01245  23764130.006    23764140.580
  24037002.618    -5534469.28448  -4293306.00344  24037002.921    24037014.716
  21954348.830   -19236958.33849 -14668529.22147  21954348.361    21954356.520
  20236685.910   -26272270.55849 -19911338.69147  20236685.025    20236692.844
  21326793.829   -17087366.71849 -12653147.23446  21326793.218    21326800.901
  20640822.875   -22215880.23749 -17289927.97247  20640822.346    20640828.968
 03  4  2  0  8  0.0000000  0  8G14G17G31G 9G 3G15G23G18
  22239422.169   -11008349.78649  -7925756.00546  22239421.639    22239431.092
  21531577.111   -22290783.64749 -17341353.35545  21531576.301    21531585.234
  23748310.090    -6063928.78949  -4695619.27745  23748309.418    23748320.454
  24026879.048    -5587666.92048  -4334758.50744  24026879.457    24026891.258
  21946559.862   -19277888.75749 -14700423.01447  21946559.424    21946567.658
  20236111.397   -26275288.88349 -19913690.60847  20236110.543    20236118.452
  21334966.351   -17044420.71249 -12619682.81346  21334965.690    21334973.334
  20646568.989   -22185684.86049 -17266399.10647  20646568.388    20646574.886
 03  4  2  0  8 30.0000000  0  8G14G17G31G 9G 3G15G23G18
  22221077.066   -11104754.16849  -8000876.09546  22221076.459    22221085.703
  21540621.765   -22243253.47149 -17304316.83145  21540620.999    21540629.863
  23732558.589    -6146702.55349  -4760118.13945  23732557.953    23732569.020
  24016826.547    -5640495.93848  -4375923.70344  24016826.729
  21938870.492   -19318295.90049 -14731909.05047  21938870.037    21938878.322
  20235601.406   -26277968.28749 -19915778.43247  20235600.585    20235608.522
  21343169.322   -17001314.65049 -12586093.68146  21343168.562    21343176.211
  20652364.884   -22155227.11349 -17242665.80247  20652364.336    20652370.687
 03  4  2  0  9  0.0000000  0  8G14G17G31G 9G 3G15G23G18
  22202789.442   -11200855.82949  -8075760.34446  22202788.780    22202797.916
  21549724.221   -22195419.92349 -17267043.97445  21549723.447    21549732.113
  23716876.168    -6229111.11449  -4824332.41045  23716875.639    23716886.980
                  -5692954.77248  -4416800.50144
  21931280.920   -19358179.19549 -14762986.90347  21931280.520    21931288.775
  20235156.126   -26280308.83549 -19917602.21347  20235155.243    20235163.084
  21351402.100   -16958050.61049 -12552381.45946  21351401.423    21351409.040
  20658210.340   -22124509.07649 -17218729.63647  20658209.759    20658216.051
 03  4  2  0  9 30.0000000  0  8G14G17G31G 9G 3G15G23G18
  22184559.964   -11296649.46549  -8150404.52246  22184559.360    22184568.809
  21558884.559   -22147279.91549 -17229532.25945  21558883.886    21558892.738
  23701264.796    -6311149.01449  -4888257.91845  23701264.485    23701275.501
                  -5745037.20748  -4457384.16344
  21923791.771   -19397534.36349 -14793653.19347  21923791.345    21923799.769
  20234775.959   -26282306.55449 -19919158.83047  20234775.117    20234782.852
  21359665.232   -16914627.34949 -12518545.10546  21359664.582    21359672.204
  20664105.575   -22093529.07049 -17194589.39647  20664105.048    20664111.387
 03  4  2  0 10  0.0000000  0  8G14G17G31G 9G 3G15G23G18
  22166388.980   -11392135.22349  -8224808.88346  22166388.569    22166398.277
  21568103.135   -22098836.02949 -17191783.80445  21568102.443    21568111.501
  23685724.253    -6392816.77449  -4951894.98245  23685723.764    23685734.355
                  -5796743.46848    266863.26243
  21916402.979   -19436363.07249 -14823909.28147  21916402.530    21916410.849
  20234460.626   -26283963.50749 -19920449.93547  20234459.795    20234467.569
  21367957.966   -16871049.05349 -12484588.00046  21367957.291    21367964.893
  20670049.967   -22062291.30349 -17170248.24147  20670049.452    20670055.813
 03  4  2  0 10 30.0000000  0  8G14G17G31G 9G 3G15G23G18
  22148277.950   -11487307.81449  -8298969.15846  22148277.597    22148287.374
  21577380.271   -22050084.57049 -17153795.68545  21577379.551    21577388.705
  23670255.132    -6474108.85649  -5015239.31245  23670254.463    23670264.401
                  -5848067.63448    226854.50843
  21909115.167   -19474660.81849 -14853751.64347  21909114.646    21909122.981
  20234211.116   -26285275.73449 -19921472.46147  20234210.248    20234217.823
  21376280.563   -16827314.01349 -12450508.76046  21376279.849    21376287.441
  20676043.665   -22030794.23649 -17145705.07547  20676043.153    20676049.555
 03  4  2  0 11  0.0000000  0  8G14G17G31G 9G 3G15G23G18
  22130226.644   -11582169.66649  -8372887.37046  22130225.963    22130235.556
  21586715.268   -22001030.21649 -17115571.53145  21586714.319    21586723.271
  23654856.663    -6555027.66249  -5078292.78245  23654856.014    23654865.930
                  -5899011.85848    187138.85943
  21901927.613   -19512431.42949 -14883183.23547  21901927.151    21901935.493
  20234026.344   -26286246.92749 -19922229.20047  20234025.456    20234032.963
  21384631.730   -16783428.66149 -12416312.39446  21384631.017    21384638.526
  20682085.606   -21999043.93249 -17120964.55247  20682085.061    20682091.513
 03  4  2  0 11 30.0000000  0  7G14G17G31G 3G15G23G18
  22112235.491   -11676714.66249  -8446558.62346  22112234.799    22112244.043
  21596108.286   -21951670.20649 -17077109.19945  21596107.316    21596116.109
  23639530.256    -6635567.37049  -5141050.88645  23639529.725    23639539.671
  21894841.410   -19549670.04449 -14912200.29647  21894840.927    21894849.222
  20233907.231   -26286872.63049 -19922716.74746  20233906.279    20233913.884
  21393011.869   -16739390.72749 -12381997.12546  21393011.157    21393018.631
  20688176.048   -21967038.47149 -17096025.24047  20688175.484    20688181.894
 03  4  2  0 12  0.0000000  0  7G14G17G31G 3G15G23G18
  22094304.578   -11770941.66049  -8519982.06746  22094304.011    22094313.038
  21605559.390   -21902004.73649 -17038408.82445  21605558.473    21605567.323
  23624276.274    -6715726.72049  -5203512.58145  23624275.795    23624285.765
  21887856.286   -19586376.73349 -14940802.86247  21887855.823    21887864.246
  20233853.736   -26287153.05849 -19922935.22746  20233852.805    20233860.580
  21401420.460   -16695202.90449 -12347565.04846  21401419.785    21401427.274
  20694314.559   -21934780.39649 -17070889.08447  20694313.985    20694320.353
 03  4  2  0 12 30.0000000  0  7G14G17G31G 3G15G23G18
  22076435.151   -11864846.15249  -8593154.28646  22076434.423    22076443.386
  21615069.108   -21852031.26349 -16999468.48345  21615068.080    21615076.938
  23609095.531    -6795501.44049  -5265674.57845  23609094.854    23609104.981
  21880972.966   -19622548.45449 -14968988.57247  21880972.478    21880981.040
  20233866.704   -26287085.34349 -19922882.47446  20233865.716    20233873.440
  21409857.724   -16650864.33349 -12313015.54446  21409857.065    21409864.621
  20700501.225   -21902268.99749 -17045555.48547  20700500.692    20700507.115
 03  4  2  0 13  0.0000000  0  7G14G17G31G 3G15G23G18
  22058627.036   -11958426.55649  -8666073.95946  22058626.491    22058635.419
  21624637.133   -21801750.71649 -16960288.86945  21624636.196    21624645.150
  23593988.176    -6874889.76149  -5327535.46545  23593987.612    23593997.755
  21874191.514   -19658184.96349 -14996757.25247  21874191.023    21874199.677
  20233945.720   -26286669.42849 -19922558.37146  20233944.742    20233952.525
  21418323.339   -16606377.08149 -12278350.14846  21418322.674    21418330.294
  20706735.816   -21869506.45049 -17020026.24447  20706735.226    20706741.677
 03  4  2  0 13 30.0000000  0  7G14G17G31G 3G15G23G18
  22040881.155   -12051681.70249  -8738740.14046  22040880.556    22040889.356
  21634263.521   -21751164.62249 -16920871.14145  21634262.582    21634271.683
  23578954.906    -6953890.52749  -5389094.36645  23578954.160    23578964.348
  21867511.878   -19693285.97249 -15024108.64347  21867511.377    21867520.144
  20234091.067   -26285905.42749 -19921963.02846  20234090.091    20234097.886
  21426816.721   -16561743.72949 -12243570.90747  21426816.024    21426823.803
  20713017.601   -21836495.17849 -16994303.16647  20713017.047    20713023.543
 03  4  2  0 14  0.0000000  0  7G14G17G31G 3G15G23G18
  22023197.846   -12144608.27249  -8811150.30946  22023197.168    22023205.925
  21643948.182   -21700271.14649 -16881213.87245  21643947.366    21643956.565
  23563995.894    -7032500.38549  -5450348.67845  23563995.166    23564005.368
  21860934.574   -19727849.43449 -15051041.18347  21860934.160    21860942.898
  20234303.083   -26284791.53149 -19921095.04746  20234302.154    20234309.821
  21435337.892   -16516964.91449 -12208678.33047  21435337.145    21435345.148
  20719346.696   -21803235.70949 -16968386.70947  20719346.135    20719352.621
 03  4  2  0 14 30.0000000  0  7G14G17G31G 3G15G23G18
  22005577.536   -12237203.07549  -8883301.97746  22005576.896    22005585.475
  21653691.735   -21649069.51549 -16841316.58045  21653690.832    21653699.958
  23549111.913    -7110716.48149  -5511296.14445  23549111.110    23549121.299
  21854460.173   -19761873.43049 -15077553.31347  21854459.732    21854468.303
  20234581.853   -26283325.85049 -19919952.96046  20234581.021    20234588.636
  21443886.591   -16472041.22049 -12173672.87547  21443885.797    21443894.044
  20725723.018   -21769728.62749 -16942277.29347  20725722.411    20725728.848
 03  4  2  0 15  0.0000000  0  7G14G17G31G 3G15G23G18
  21988020.818   -12329463.74149  -8955193.25446  21988020.260    21988028.638
  21663493.474   -21597560.11049 -16801179.38445  21663492.647    21663501.753
  23534303.046    -7188536.28349  -5571934.85845  23534302.272    23534312.494
  21848088.543   -19795357.12749 -15103644.48047  21848088.103    21848096.473
  20234927.813   -26281507.58549 -19918536.11346  20234927.021    20234934.644
  21452462.433   -16426974.06049 -12138555.60447  21452461.680    21452470.085
  20732145.952   -21735975.42249 -16915976.10647  20732145.334    20732151.775
 03  4  2  0 15 30.0000000  0  7G14G17G31G 3G15G23G18
  21970528.648   -12421386.26149  -9026821.03546  21970528.000    21970536.122
  21673354.062   -21545740.54149 -16760800.52145  21673353.289    21673362.704
  23519570.277    -7265955.75649  -5632261.56945  23519569.561    23519579.992
  21841820.109   -19828297.86549 -15129312.54347  21841819.633    21841827.962
  20235341.480   -26279334.27449 -19916842.61746  20235340.645    20235348.227
  21461065.712   -16381762.92949 -12103326.16547  21461064.994    21461073.414
  20738615.812   -21701975.38049 -16889482.53847  20738615.276    20738621.626
 03  4  2  0 16  0.0000000  0  7G14G17G31G 3G15G23G18
  21953103.104   -12512958.14249  -9098175.62946  21953102.294    21953110.357
  21683275.825   -21493600.34049 -16720171.82645  21683275.201    21683284.613
  23504915.858    -7342962.61649  -5692266.71045  23504915.386    23504925.993
  21835657.102   -19860684.54049 -15154548.85047  21835656.629    21835665.002
  20235824.581   -26276794.90149 -19914863.84146  20235823.692    20235831.492
  21469698.143   -16336399.21949 -12067977.80647  21469697.447    21469705.642
  20745134.352   -21667720.30149 -16862790.26547  20745133.833    20745140.109
 03  4  2  0 16 30.0000000  0  7G14G17G31G 3G15G23G18
  21935741.113   -12604195.07649  -9169269.18946  21935740.334    21935748.292
  21693255.675   -21441158.28849 -16679307.84845  21693254.682    21693263.919
  23490337.615    -7419572.59749  -5751962.66545  23490336.760    23490347.470
  21829596.132   -19892534.15449 -15179366.72347  21829595.716    21829604.209
  20236374.014   -26273906.46549 -19912613.10046  20236373.220    20236381.167
  21478356.047   -16290902.29549 -12032525.64647  21478355.294    21478363.367
  20751697.837   -21633229.36349 -16835914.17447  20751697.289    20751703.480
 03  4  2  0 17  0.0000000  0  6G14G31G 3G15G23G18
  21918442.778   -12695098.27349  -9240102.74346  21918441.989    21918449.870
  23475834.373    -7495786.57049  -5811350.06545  23475833.669    23475844.135
  21823636.956   -19923849.15449 -15203767.93647  21823636.531    21823645.123
  20236989.581   -26270671.33349 -19910092.20546  20236988.814    20236996.788
  21487038.295   -16245276.80249 -11996973.31047  21487037.563    21487045.605
  20758305.138   -21598507.00149 -16808857.80247  20758304.585    20758310.879
 03  4  2  0 17 30.0000000  0  7G14G17G31G 3G15G23G18
  21901206.787   -12785673.51449  -9310680.67146  21901206.071    21901213.872
                   -883115.57849   -693897.32443
  23461405.490    -7571610.67749  -5870433.67045  23461404.838    23461415.098
  21817778.095   -19954636.81949 -15227758.27447  21817777.757    21817786.323
  20237669.723   -26267097.41549 -19907307.32846  20237669.053    20237676.755
  21495743.210   -16199532.25649 -11961328.21247  21495742.497    21495750.535
  20764954.608   -21563563.27849 -16781628.90147  20764954.122    20764960.457
 03  4  2  0 18  0.0000000  0  7G14G17G31G 3G15G23G18
  21884039.001   -12875890.45449  -9380979.41847  21884038.276    21884046.028
                   -829764.23649   -652313.23543
  23447056.557    -7647014.51149  -5929189.80345  23447056.041    23447066.074
  21812025.422   -19984868.10249 -15251315.08947  21812024.989    21812033.487
  20238420.207   -26263155.51849 -19904235.71446  20238419.264    20238426.646
  21504475.961   -16153641.68849 -11925569.31747  21504475.241    21504483.246
  20771651.476   -21528371.16349 -16754206.46147  20771650.995    20771657.401
 03  4  2  0 18 30.0000000  0  7G14G17G31G 3G15G23G18
  21866938.749   -12965751.71149  -9451001.03347  21866938.074    21866945.979
                   -776098.81149   -610486.23143
  23432787.075    -7722000.85149  -5987620.56045  23432786.460    23432796.556
  21806377.819   -20014547.17849 -15274441.59847  21806377.259    21806385.771
  20239239.548   -26258849.67949 -19900880.46546  20239238.636    20239245.855
  21513235.305   -16107611.61049 -11889701.71647  21513234.518    21513242.450
  20778394.392   -21492937.26749 -16726595.60647  20778393.897    20778400.193
 03  4  2  0 19  0.0000000  0  7G14G17G31G 3G15G23G18
  21849907.028   -13055252.32249  -9520741.62347  21849906.385    21849914.532
                   -722116.29449   -653517.37243
  23418597.625    -7796564.84249  -6045722.21045  23418597.084    23418607.423
  21800835.765   -20043670.53449 -15297135.08947  21800835.276    21800843.813
  20240129.086   -26254176.40049 -19897238.95446  20240128.031    20240135.108
  21522021.107   -16061440.78849 -11853724.45147  21522020.415    21522028.424
  20785183.596   -21457259.94049 -16698795.07747  20785183.087    20785189.345
 03  4  2  0 19 30.0000000  0  7G14G17G31G 3G15G23G18
  21832944.804   -13144388.48749  -9590198.23047  21832944.168    21832952.321
                   -667814.86249   -611204.19543
  23404489.359    -7870702.40349  -6103491.59945  23404488.790    23404499.400
  21795399.979   -20072235.83749 -15319393.70647  21795399.509    21795407.854
  20241088.716   -26249133.03849 -19893309.00646  20241087.667    20241094.854
  21530833.916   -16015128.86649 -11817637.20747  21530833.224    21530841.357
  20792019.038   -21421339.22649 -16670804.86847  20792018.515    20792024.864
 03  4  2  0 20  0.0000000  0  7G14G17G31G 3G15G23G18
  21816050.653   -13233166.88549  -9659376.08847  21816050.033    21816058.249
  21764746.476     -613203.48949   -568649.95945  21764745.410    21764753.584
  23390461.090    -7944420.40349  -6160934.12645  23390460.552    23390471.169
  21790068.927   -20100251.05449 -15341223.70347  21790068.409    21790076.676
  20242116.965   -26243727.70349 -19889097.07445  20242116.015    20242123.505
  21539671.754   -15968685.93649 -11781447.90747  21539671.046    21539679.217
  20798898.869   -21385185.14549 -16642632.87447  20798898.352    20798904.815
 03  4  2  0 20 30.0000000  0  7G14G17G31G 3G15G23G18
  21799224.516   -13321588.17249  -9728275.66047  21799223.872    21799232.137
  21775197.253     -558285.67049   -525856.88645  21775196.955    21775204.412
  23376512.560    -8017719.63049  -6218050.28945  23376511.997    23376522.708
  21784841.953   -20127718.43149 -15362626.82847  21784841.428    21784849.851
  20243213.622   -26237962.80149 -19884604.89445  20243212.876    20243220.498
  21548533.652   -15922116.30449 -11745159.88546  21548532.941    21548541.112
  20805822.396   -21348802.42049 -16614282.66247  20805821.849    20805828.253
 03  4  2  0 21  0.0000000  0  7G14G17G31G 3G15G23G18
  21782466.418   -13409651.46349  -9796896.28347  21782465.783    21782474.126
  21785706.069     -503061.96149   -482825.47046  21785705.220    21785713.534
  23362643.962    -8090599.05949  -6274839.34445  23362643.468    23362654.187
  21779719.165   -20154638.19449 -15383603.21647  21779718.685    21779727.263
  20244378.958   -26231838.53249 -19879832.74745  20244378.278    20244385.774
  21557419.179   -15875422.40149 -11708775.05246  21557418.460    21557426.664
  20812788.983   -21312193.32749 -16585756.08447  20812788.416    20812794.704
 03  4  2  0 21 30.0000000  0  7G14G17G31G 3G15G23G18
  21765777.418   -13497351.64849  -9865233.97947  21765776.896    21765785.091
  21796273.143     -447530.18849   -439554.01046  21796272.364    21796281.127
  23348856.291    -8163053.83549  -6331297.47245  23348855.773    23348866.276
  21774701.169   -20181007.24249 -15404150.49447  21774700.768    21774709.348
  20245613.518   -26225351.45549 -19874777.82945  20245612.724    20245620.041
  21566328.483   -15828603.06449 -11672292.44946  21566327.812    21566336.062
  20819798.828   -21275356.42249 -16557052.00247  20819798.224    20819804.481
 03  4  2  0 22  0.0000000  0  7G14G17G31G 3G15G23G18
  21749158.509   -13584684.77449  -9933285.61147  21749157.881    21749165.974
  21806899.669     -391688.17149   -396040.79546  21806898.838    21806907.606
  23335150.267    -8235079.79849  -6387421.49845  23335149.642    23335159.946
  21769788.571   -20206822.80749 -15424266.49747  21769788.139    21769796.726
  20246917.590   -26218498.73949 -19869438.08945  20246916.691    20246924.116
  21575261.768   -15781657.73049 -11635711.68246  21575261.158    21575269.425
  20826851.952   -21238291.42349 -16528170.17147  20826851.321    20826857.665
 03  4  2  0 22 30.0000000  0  7G14G17G31G 3G15G23G18
  21732609.547   -13671649.78049 -10001050.42547  21732608.948    21732617.042
  21817584.715     -335536.98949   -352286.64346  21817583.971    21817592.976
  23321525.837    -8306676.21949  -6443210.78545  23321525.264    23321535.428
  21764981.255   -20232085.18149 -15443951.41347  21764980.847    21764989.461
  20248290.969   -26211281.09649 -19863813.94145  20248290.001    20248297.631
  21584218.552   -15734589.00549 -11599034.77446  21584217.977    21584226.263
  20833947.899   -21201000.62649 -16499112.43247  20833947.368    20833953.818
 03  4  2  0 23  0.0000000  0  7G14G17G31G 3G15G23G18
  21716131.288   -13758243.35449 -10068525.79747  21716130.646    21716138.807
  21828328.926     -279075.51649   -308290.73346  21828328.232    21828337.303
  23307983.965    -8377839.60049  -6498662.69646  23307983.339    23307993.313
  21760279.649   -20256792.59149 -15463203.92147  21760279.202    21760287.743
  20249734.260   -26203696.41749 -19857903.81245  20249733.361    20249740.822
  21593199.080   -15687396.81249 -11562261.68646  21593198.390    21593206.638
  20841087.032   -21163484.63949 -16469879.19047  20841086.466    20841092.852
 03  4  2  0 23 30.0000000  0  7G14G17G31G 3G15G23G18
  21699723.947   -13844463.64549 -10135710.32247  21699723.364    21699731.575
  21839132.118     -222304.30349   -264053.45146  21839131.444    21839140.651
  23294524.674    -8448568.11149  -6553775.73246  23294524.166    23294534.007
  21755683.647   -20280944.75149 -15482023.77847  21755683.124    21755691.516
  20251247.683   -26195744.05349 -19851707.13645  20251246.693    20251254.046
  21602202.589   -15640082.70449 -11525393.53046  21602201.977    21602210.248
  20848268.651   -21125744.93649 -16440471.65347  20848268.075    20848274.494
 03  4  2  0 24  0.0000000  0  7G14G17G31G 3G15G23G18
  21683388.556   -13930307.15449 -10202601.24047  21683387.933    21683396.058
  21849994.537     -165221.95649   -219573.74746  21849993.774    21850003.071
  23281148.958    -8518858.31749  -6608547.21946  23281148.396    23281158.362
  21751193.525   -20304539.63749 -15500409.36247  21751193.023    21751201.468
  20252831.469   -26187421.84049 -19845222.27945  20252830.517    20252837.837
  21611229.471   -15592646.36049 -11488430.16546  21611228.887    21611237.081
  20855492.803   -21087781.18849 -16410889.52147  20855492.263    20855498.763
 03  4  2  0 24 30.0000000  0  7G14G17G31G 3G15G23G18
  21667125.272   -14015771.69849 -10269196.87747  21667124.562    21667132.630
  21860916.051     -107828.16649   -174851.29946  21860915.274    21860924.652
  23267857.115    -8588708.05049  -6662975.50846  23267856.528    23267866.571
  21746809.608   -20327576.47649 -15518360.13547  21746809.117    21746817.809
  20254485.893   -26178728.82349 -19838448.49145  20254484.842    20254492.168
  21620279.530   -15545088.95749 -11451372.47447  21620278.832    21620286.923
  20862759.376   -21049594.78049 -16381133.88847  20862758.852    20862765.407
 03  4  2  0 25  0.0000000  0  7G14G17G31G 3G15G23G18
  21650934.305   -14100855.14149 -10335495.53947  21650933.621    21650941.716
  21871896.714      -50123.42349   -129886.66446  21871896.081    21871905.424
  23254649.466    -8658115.39049  -6717059.04746  23254648.921    23254658.795
  21742532.017   -20350055.15649 -15535875.94347  21742531.578    21742540.219
  20256210.616   -26169664.79949 -19831385.60146  20256209.648    20256217.188
  21629352.067   -15497412.16849 -11414221.73946  21629351.372    21629359.460
  20870068.007   -21011187.27249 -16351205.97847  20870067.463    20870074.141
 03  4  2  0 25 30.0000000  0  7G14G17G31G 3G15G23G18
  21634816.009   -14185556.50449 -10401496.46747  21634815.449    21634823.376
  21882936.657        7891.36749    -84680.36846  21882935.968    21882945.348
  23241526.249    -8727079.11249  -6770796.91046  23241525.637    23241535.488
  21738360.684   -20371975.88249 -15552956.99947  21738360.186    21738368.858
  20258006.150   -26160229.78349 -19824033.62846  20258005.275    20258012.535
  21638446.853   -15449618.27249 -11376979.71247  21638446.245    21638454.312
  20877418.231   -20972561.00849 -16321107.61647  20877417.824    20877424.451
 03  4  2  0 26  0.0000000  0  7G14G17G31G 3G15G23G18
  21618771.387   -14269871.85349 -10467196.62947  21618770.737    21618778.497
  21894036.047       66218.32249    -39230.79946  21894035.275    21894044.681
  23228487.939    -8795595.28749  -6824186.04046  23228487.303    23228497.194
  21734295.834   -20393336.11249 -15569601.31147  21734295.341    21734304.073
  20259872.754   -26150421.39349 -19816390.73745  20259871.802    20259878.793
  21647564.326   -15401706.45849 -11339645.85747  21647563.654    21647571.616
  20884810.579   -20933715.15149 -16290838.14347  20884810.077    20884816.538
 03  4  2  0 26 30.0000000  0  7G14G17G31G 3G15G23G18
  21602799.890   -14353801.78949 -10532596.42447  21602799.204    21602806.968
  21905194.345      124854.30249      6459.55846  21905193.430    21905202.717
  23215534.478    -8863664.95349  -6877227.26746  23215533.762    23215543.814
  21730337.162   -20414138.69849 -15585811.13847  21730336.761    21730345.282
  20261809.693   -26140241.44549 -19808458.29845  20261808.753    20261815.880
  21656703.430   -15353680.90249 -11302223.35247  21656702.707    21656710.590
  20892243.711   -20894654.20949 -16260401.04147  20892243.141    20892249.504
 03  4  2  0 27  0.0000000  0  7G14G17G31G 3G15G23G18
  21586902.705   -14437340.18849 -10597691.14247  21586902.070    21586909.953
  21916411.771      183803.45949     52393.91746  21916411.054    21916420.436
  23202667.307    -8931281.69049  -6929915.53146  23202666.668    23202676.690
  21726485.762   -20434378.79749 -15601582.60247  21726485.297    21726493.614
  20263817.951   -26129685.14549 -19800232.63545  20263817.251    20263824.607
  21665864.557   -15305538.64549 -11264709.91747  21665863.845    21665871.728
  20899718.130   -20855375.30349 -16229794.08647  20899717.667    20899724.117
 03  4  2  0 27 30.0000000  0  7G14G17G31G 3G15G23G18
  21571079.695   -14520488.90249 -10662482.23847  21571079.083    21571087.150
  21927688.359      243061.47249     98568.97846  21927687.578    21927696.857
  23189886.045    -8998447.44449  -6982252.39646  23189885.367    23189895.237
  21722740.540   -20454059.86049 -15616918.46747  21722740.060    21722748.437
  20265897.716   -26118755.81849 -19791716.24845  20265897.051    20265904.243
  21675046.865   -15257284.89849 -11227109.59447  21675046.178    21675054.114
  20907233.233   -20815883.77549 -16199021.48847  20907232.734    20907239.207
 03  4  2  0 28  0.0000000  0  7G14G17G31G 3G15G23G18
  21555331.930   -14603242.69049 -10726965.57447  21555331.345    21555339.490
  21939024.189      302631.11349    144986.86046  21939023.360    21939032.634
  23177191.571    -9065157.17749  -7034233.94146  23177190.835    23177200.566
  21719102.400   -20473178.15149 -15631815.86547  21719101.938    21719110.351
  20268049.355   -26107449.60449 -19782906.21545  20268048.591    20268055.907
  21684250.809   -15208917.66949 -11189420.87047  21684250.146    21684258.046
  20914789.095   -20776177.55449 -16168081.54947  20914788.633    20914795.163
 03  4  2  0 28 30.0000000  0  7G14G17G31G 3G15G23G18
  21539659.768   -14685599.61649 -10791139.68547  21539659.244    21539667.370
  21950419.324      362512.50049    191647.61346  21950418.571    21950427.898
  23164584.154    -9131408.97549  -7085858.65146  23164583.473    23164593.281
  21715571.367   -20491733.38749 -15646274.44247  21715570.943    21715579.480
  20270272.617   -26095765.94149 -19773802.03145  20270271.933    20270279.281
  21693476.034   -15160438.37849 -11151644.78247  21693475.419    21693483.386
  20922385.517   -20736258.38549 -16136975.73747  20922385.014    20922391.522
 03  4  2  0 29  0.0000000  0  7G14G17G31G 3G15G23G18
  21524063.403   -14767558.67549 -10855003.77647  21524062.941    21524070.954
  21961873.851      422704.83749    238550.68546  21961872.971    21961882.241
  23152064.086    -9197201.59549  -7137125.53345  23152063.330    23152073.215
  21712147.566   -20509725.86649 -15660294.55047  21712147.113    21712155.597
  20272567.941   -26083704.81549 -19764403.73145  20272567.094    20272574.540
  21702722.335   -15111848.84449 -11113782.82547  21702721.708    21702729.718
  20930022.086   -20696128.19849 -16105705.45547  20930021.508    20930028.039
 03  4  2  0 29 30.0000000  0  7G14G17G31G 3G15G23G18
  21508543.580   -14849115.61449 -10918554.53747  21508543.106    21508551.093
  21973387.542      483209.54749    285697.17246  21973386.721    21973396.019
  23139632.197    -9262531.05149  -7188031.52945  23139631.557    23139641.206
  21708831.116   -20527153.69049 -15673874.63147  21708830.700    21708839.053
  20274935.708   -26071263.54149 -19754709.21445  20274934.805    20274942.181
  21711989.893   -15063148.41749 -11075834.43647  21711989.203    21711997.143
  20937698.871   -20655786.54049 -16074270.38347  20937698.303    20937704.837
 03  4  2  0 30  0.0000000  0  7G14G17G31G 3G15G23G18
  21493100.551   -14930269.30149 -10981791.06147  21493100.046    21493107.983
  21984960.359      544025.64449    333086.30746  21984959.550    21984969.080
  23127288.580    -9327396.36249  -7238575.81645  23127287.892    23127297.591
  21705622.078   -20544017.26349 -15687015.06847  21705621.591    21705629.885
  20277375.247   -26058442.15849 -19744718.53845  20277374.347    20277381.955
  21721278.072   -15014338.79249 -11037800.97147  21721277.363    21721285.337
  20945415.561   -20615235.21949 -16042671.95747  20945415.031    20945421.568
 03  4  2  0 30 30.0000000  0  7G14G17G31G 3G15G23G18
  21477734.271   -15011019.20449 -11044712.95347  21477733.714    21477741.573
  21996592.155      605152.16449    380717.34646  21996591.516    21996601.149
  23115033.233    -9391796.92949  -7288757.99845  23115032.527    23115042.593
  21702520.168   -20560317.41449 -15699716.46347  21702519.738    21702528.000
  20279887.006   -26045241.38249 -19734432.24445  20279886.287    20279893.868
  21730586.393   -14965422.85449 -10999684.64147  21730585.739    21730593.781
  20953171.644   -20574477.06249 -16010912.34547  20953171.072    20953177.557
 03  4  2  0 31  0.0000000  0  7G14G17G31G 3G15G23G18
  21462445.608   -15091361.57749 -11107317.31847  21462445.019    21462452.773
  22008283.762      666590.41849    428591.21546  22008282.982    22008292.398
  23102867.242    -9455729.12349  -7338575.23146  23102866.618    23102876.596
  21699525.802   -20576052.41649 -15711977.45647  21699525.372    21699533.722
  20282471.582   -26031659.29649 -19723848.74745  20282470.728    20282478.537
  21739915.231   -14916400.11649 -10961485.11747  21739914.560    21739922.557
  20960967.097   -20533511.55149 -15978991.16047  20960966.495    20960972.954
 03  4  2  0 31 30.0000000  0  7G14G17G31G 3G15G23G18
  21447234.616   -15171296.24949 -11169603.92647  21447233.999    21447241.488
  22020034.169      728338.36049    476706.49646  22020033.348    22020042.632
  23090790.551    -9519192.68949  -7388027.28446  23090789.949    23090799.870
  21696638.838   -20591223.39049 -15723799.00547  21696638.410    21696646.741
  20285128.857   -26017696.75049 -19712968.85445  20285127.928    20285135.713
  21749263.820   -14867273.44349 -10923204.58447  21749263.089    21749271.075
  20968801.443   -20492341.79149 -15946910.83247  20968800.801    20968807.223
 03  4  2  0 32  0.0000000  0  7G14G17G31G 3G15G23G18
  21432101.980   -15250819.14449 -11231569.70247  21432101.355    21432108.607
  22031843.885      790398.11449    525064.69446  22031842.973    22031852.275
  23078803.810    -9582183.65949  -7437111.11246  23078803.257    23078813.088
  21693859.580   -20605828.19549 -15735179.34347  21693859.194    21693867.597
  20287859.091   -26003350.94149 -19701790.30445  20287858.008    20287865.849
  21758632.168   -14818041.77849 -10884842.25347  21758631.473    21758639.530
  20976674.722   -20450967.10449 -15914670.80447  20976674.091    20976680.598
 03  4  2  0 32 30.0000000  0  7G14G17G31G 3G15G23G18
  21417047.946   -15329928.84049 -11293213.53147  21417047.277    21417054.515
  22043712.497      852768.45849    573664.90646  22043711.706    22043720.938
  23066907.321    -9644700.73849  -7485825.63246  23066906.703    23066916.469
  21691188.104   -20619867.14949 -15746118.76447  21691187.673    21691196.046
  20290662.111   -25988621.61149 -19690312.90345  20290661.167    20290668.864
  21768020.323   -14768706.86549 -10846399.45747  21768019.633    21768027.620
  20984586.529   -20409389.24949 -15882272.47847  20984585.994    20984592.674
 03  4  2  0 33  0.0000000  0  7G14G17G31G 3G15G23G18
  21402073.091   -15408622.04249 -11354532.81447  21402072.414    21402079.604
  22055640.594      915451.02149    622508.43446  22055639.679    22055649.100
  23055101.134    -9706740.72049  -7534168.36646  23055100.646    23055110.530
  21688624.387   -20633338.59849 -15756615.96547  21688624.019    21688632.614
  20293538.269   -25973506.96149 -19678535.23145  20293537.417    20293545.105
  21777428.191   -14719268.36249 -10807875.97347  21777427.500    21777435.481
  20992537.213   -20367607.95549 -15849715.63347  20992536.669    20992543.464
 03  4  2  0 33 30.0000000  0  7G14G17G31G 3G15G23G18
  21387177.602   -15486898.12249 -11415527.02847  21387176.945    21387184.116
  22067627.749      978444.10049    671593.90046  22067626.870    22067636.448
  23043386.200    -9768302.67649  -7582138.68946  23043385.666    23043395.573
  21686168.627   -20646243.32249 -15766671.57447  21686168.248    21686177.000
  20296487.632   -25958007.46449 -19666457.65745  20296486.764    20296494.566
  21786855.256   -14669728.70449 -10769273.66047  21786854.584    21786862.617
  21000526.177   -20325625.73349 -15817002.22347  21000525.658    21000532.382
 03  4  2  0 34  0.0000000  0  7G14G17G31G 3G15G23G18
  21372361.679   -15564756.46049 -11476195.76947  21372361.032    21372368.079
  22079673.744     1041746.25149    720920.19746  22079672.940    22079682.477
  23031762.168    -9829386.46949  -7629736.37646  23031761.614    23031771.655
  21683820.395   -20658582.93049 -15776286.81547  21683820.044    21683828.854
  20299510.532   -25942123.84749 -19654080.80345  20299509.641    20299517.273
  21796301.107   -14620090.37649 -10730594.44747  21796300.465    21796308.451
  21008552.948   -20283445.28149 -15784134.34247  21008552.322    21008559.043
 03  4  2  0 34 30.0000000  0  7G14G17G31G 3G15G23G18
  21357626.528   -15642189.82649 -11536533.36447  21357625.874    21357632.933
  22091779.621     1105362.68649    770491.40846  22091778.999    22091788.285
  23020230.480    -9889984.61749  -7676955.62246  23020230.027    23020240.070
  21681580.983   -20670351.78149 -15785457.31447  21681580.624    21681589.225
  20302607.437   -25925849.96849 -19641399.84545  20302606.259    20302613.923
  21805766.670   -14570349.03149 -10691834.96847  21805765.982    21805773.794
  21016618.138   -20241062.36649 -15751108.68947  21016617.518    21016624.270
 03  4  2  0 35  0.0000000  0  7G14G17G31G 3G15G23G18
  21342971.474   -15719201.93449 -11596542.72947  21342970.829    21342978.005
  22103944.280     1169287.67449    820303.03346  22103943.628    22103952.924
  23008790.833    -9950101.02249  -7723799.48146  23008790.405    23008800.236
  21679449.187   -20681555.41149 -15794187.39647  21679448.730    21679457.186
  20305777.288   -25909190.86349 -19628418.79244  20305776.430    20305784.172
  21815250.565   -14520511.48749 -10653000.53447  21815249.807    21815257.494
  21024720.447   -20198483.90949 -15717930.65246  21024719.849    21024726.612
 03  4  2  0 35 30.0000000  0  7G14G17G31G 3G15G23G18
  21328396.686   -15795791.27749 -11656222.63947  21328396.109    21328403.406
  22116167.134     1233520.26049    870354.34846  22116166.626    22116175.822
  22997443.322   -10009734.14549  -7770266.80046  22997442.691    22997452.194
  21677424.739   -20692194.00149 -15802477.18447  21677424.302    21677432.619
  20309020.851   -25892146.33949 -19615137.36344  20309019.599    20309028.830
  21824752.412   -14470578.93549 -10614092.04147  21824751.639    21824759.351
  21032859.836   -20155711.29849 -15684601.37446  21032859.235    21032865.912
 03  4  2  0 36  0.0000000  0  7G14G17G31G 3G15G23G18
  21313903.834   -15871950.89649 -11715567.70447  21313903.242    21313910.499
  22128449.692     1298065.74249    920649.46446  22128449.114    22128458.263
  22986188.643   -10068877.31149  -7816352.32846  22986188.063    22986197.404
  21675508.702   -20702262.61549 -15810322.84147  21675508.318    21675516.672
  20312338.595   -25874710.89349 -19601551.28144                  20312337.040
  21834273.020   -14420547.64749 -10575106.64047  21834272.228    21834280.076
  21041036.628   -20112741.02449 -15651118.05646  21041036.094    21041042.805
 03  4  2  0 36 30.0000000  0  7G14G17G31G 3G15G23G18
  21299492.415   -15947682.27649 -11774579.07447  21299491.899    21299499.137
  22140791.498     1362920.52349    971185.59946  22140790.739    22140799.817
  22975027.049   -10127531.80249  -7862057.06746  22975026.510    22975035.706
  21673700.649   -20711764.30949 -15817726.76347  21673700.239    21673708.668
                 -25856887.09949 -19587662.64343
  21843811.586   -14370421.78849 -10536047.54647  21843810.875    21843818.812
  21049250.405   -20069577.35149 -15617484.01346  21049249.898    21049256.474
 03  4  2  0 37  0.0000000  0  7G14G17G31G 3G15G23G18
  21285163.566   -16022980.93749 -11833253.24447  21285162.949    21285170.188
  22153192.353     1428086.81449   1021964.50445  22153191.476    22153200.570
  22963959.438   -10185693.36849  -7907377.70846  22963958.802    22963967.880
  21672001.026   -20720696.53249 -15824686.92547  21672000.576    21672008.931
                 -25838671.60949 -19573468.79443
  21853368.446   -14320199.97949 -10496913.67847  21853367.759    21853375.656
  21057501.420   -20026218.89449 -15583698.24946  21057500.795    21057507.241
 03  4  2  0 37 30.0000000  0  7G14G17G31G 3G15G23G18
  21270916.743   -16097848.03149 -11891591.14347  21270916.201    21270923.390
  22165651.279     1493561.16149   1072983.45245  22165650.330    22165660.032
  22952985.226   -10243363.22549  -7952315.20346  22952984.559    22952993.591
  21670409.109   -20729062.20549 -15831205.62547  21670408.688    21670416.902
                 -25820066.96349   8424831.12343
  21862942.725   -14269886.32449 -10457708.21747  21862942.100    21862949.986
  21065788.416   -19982669.92149 -15549764.01246  21065787.908    21065794.268
 03  4  2  0 38  0.0000000  0  7G14G17G31G 3G15G23G18
  21256753.064   -16172278.80849 -11949589.07847  21256752.487    21256759.588
  22178169.692     1559346.50149   1124244.69345  22178168.624    22178178.793
  22942105.393   -10300536.72249  -7996865.87846  22942104.861    22942113.851
  21668925.532   -20736858.45949 -15837280.57847  21668925.076    21668933.280
                 -25801069.17848   8439634.82743
  21872535.006   -14219478.61349 -10418429.47847  21872534.360    21872542.230
  21074112.065   -19938928.69949 -15515679.90046  21074111.566    21074117.898
 03  4  2  0 38 30.0000000  0  7G14G17G31G 3G15G23G18
  21242672.498   -16246271.64549 -12007245.72347  21242671.935    21242679.193
  22190747.302     1625442.27249   1175747.84345  22190746.336    22190756.391
  22931320.536   -10357212.13349  -8041028.48046  22931319.838    22931328.721
  21667550.174   -20744085.34149 -15842911.94447  21667549.758    21667557.890
                 -25781678.40448   8454745.14443
  21882144.973   -14168977.94349 -10379078.31546  21882144.357    21882152.166
  21082472.299   -19894996.41449 -15481446.99046  21082471.748    21082477.982
 03  4  2  0 39  0.0000000  0  7G14G17G31G 3G15G23G18
  21228674.879   -16319828.30349 -12064562.52347  21228674.355    21228681.889
  22203383.244     1691844.88849   1227490.08546  22203382.388    22203392.432
  22920629.784   -10413391.48549  -8084804.52146  22920629.169    22920637.992
  21666282.523   -20750746.70649 -15848102.60047  21666282.095    21666290.336
                 -25761897.67148   8464609.74643
  21891771.767   -14118389.23749 -10339658.53146  21891771.122    21891778.867
  21090867.818   -19850878.12649 -15447069.09446  21090867.187    21090873.501
 03  4  2  0 39 30.0000000  0  7G14G17G31G 3G15G23G18
  21214761.165   -16392943.73049 -12121535.49547  21214760.677    21214768.440
  22216078.462     1758557.28349   1279473.70546  22216077.479    22216087.348
  22910034.204   -10469069.65649  -8128190.03946  22910033.674    22910042.696
  21665123.140   -20756839.03749 -15852849.86847  21665122.748    21665131.058
                 -25741722.96148   8480330.02243
  21901415.779   -14067709.91749 -10300168.14446  21901415.106    21901422.821
  21099298.895   -19806571.41149 -15412544.39646  21099298.349    21099304.851
 03  4  2  0 40  0.0000000  0  8G14G17G31G 9G 3G15G23G18
  21200931.827   -16465617.26249 -12178164.13447  21200931.211    21200939.043
  22228832.016     1825577.63349   1331697.29446  22228831.150    22228840.904
  22899534.483   -10524246.18249  -8171184.64646  22899533.873    22899542.957
                   -195322.16249   -144132.84343
  21664071.785   -20762363.94249 -15857154.98147  21664071.415    21664079.565
                 -25721155.04448   8496357.00243
  21911076.627   -14016942.33949 -10260609.00646  21911075.908    21911083.599
  21107765.635   -19762078.58449 -15377874.66146  21107765.058    21107771.624
 03  4  2  0 40 30.0000000  0  8G14G17G31G 9G 3G15G23G18
  21187187.028   -16537846.22549 -12234446.35047  21187186.476    21187194.270
  22241644.315     1892906.38449   1384161.16246  22241643.480    22241653.138
  22889130.766   -10578918.42649  -8213786.29146  22889130.065    22889139.267
                   -219129.09349   -162684.37643
  21663128.681   -20767320.28149 -15861017.04147  21663128.288    21663136.267
                 -25700192.04548   8512691.83744                  20345507.907
  21920754.236   -13966086.37949 -10220980.96746  21920753.518    21920761.165
  21116267.832   -19717399.93449 -15343060.12647  21116267.242    21116273.801
 03  4  2  0 41  0.0000000  0  8G14G17G31G 9G 3G15G23G18
  21173527.256   -16609629.34549 -12290381.17947  21173526.613    21173534.332
  22254515.227     1960543.17149   1436865.06646  22254514.390    22254524.064
  22878823.270   -10633085.15749  -8255994.06546  22878822.581    22878831.675
                   -242410.13449   -180825.40944                  23538350.606
  21662293.497   -20771708.68549 -15864436.54847  21662293.067    21662301.222
                 -25678836.16448   8529332.75643
  21930448.260   -13915143.56549 -10181285.26446  21930447.567    21930455.315
  21124805.031   -19672537.04849 -15308102.03147  21124804.462    21124810.902
 03  4  2  0 41 30.0000000  0  8G14G17G31G 9G 3G15G23G18
  21159952.419   -16680965.55149 -12345967.73947  21159951.700    21159959.381
  22267444.614     2028487.30049   1489808.48846  22267443.799    22267453.329
  22868611.993   -10686745.28649  -8297807.06746  22868611.340    22868620.526
  23534017.368     -265163.83949   -198555.39244  23534017.818    23534025.785
  21661566.292   -20775529.90249 -15867414.08947  21661565.900    21661574.189
                 -25657083.14558   8546283.04543
  21940158.648   -13864115.27849 -10141522.98646  21940157.945    21940165.701
  21133377.045   -19627491.52549 -15273001.63647  21133376.408    21133382.732
 03  4  2  0 42  0.0000000  0  8G14G17G31G 9G 3G15G23G18
  21146463.290   -16751850.56149 -12401202.72647  21146462.659    21146470.236
  22280432.957     2096740.57849   1542992.80046  22280432.157    22280441.583
  22858497.715   -10739894.91249  -8339222.28446  22858497.112    22858506.447
  23529788.382     -287386.33149   -215871.55245  23529787.087    23529799.250
  21660947.414   -20778781.70449 -15869947.93347  21660947.019    21660955.512
                 -25634932.14648   8563543.42143
  21949885.602   -13813000.22149 -10101693.06846  21949884.851    21949892.569
  21141983.902   -19582262.08749 -15237757.92047  21141983.279    21141989.615
 03  4  2  0 42 30.0000000  0  8G14G17G31G 9G 3G15G23G18
  21133060.425   -16822283.36249 -12456085.33347  21133059.787    21133067.117
  22293479.816     2165302.01649   1596417.26046  22293479.006    22293488.614
  22848481.035   -10792532.68349  -8380238.63746  22848480.446    22848489.767
  23525660.579     -309076.51649   -232772.95545  23525659.954    23525671.313
  21660436.889   -20781464.75049 -15872038.60447  21660436.492    21660445.077
                 -25612383.29949   8558270.82643
  21959628.720   -13761799.71349 -10061796.54346  21959628.035    21959635.716
  21150625.452   -19536850.61149 -15202372.33647  21150624.797    21150631.123
 03  4  2  0 43  0.0000000  0  8G14G17G31G 9G 3G15G23G18
  21119744.331   -16892259.99549 -12510612.50047  21119743.696    21119750.847
  22306585.736     2234173.79749   1650083.49146  22306584.962    22306594.500
  22838562.591   -10844655.02149  -8420853.40146  22838561.983    22838571.127
  23521634.903     -330230.65749   -249256.58545  23521634.012    23521645.771
  21660034.879   -20783577.49149 -15873684.90047  21660034.450    21660042.904
                 -25589433.72449   8576153.64743
  21969388.474   -13710512.37649 -10021832.38446  21969387.719    21969395.403
  21159301.748   -19491255.82449 -15166843.91547  21159301.141    21159307.496
 03  4  2  0 43 30.0000000  0  8G14G17G31G 9G 3G15G23G18
  21106514.548   -16961783.13549 -12564786.30047  21106513.915    21106520.936
  22319749.830     2303351.32849   1703987.99546  22319749.039    22319758.641
  22828741.516   -10896264.78049  -8461068.66546  22828740.882    22828750.169
  23517710.497     -350851.31849   -265324.53345  23517709.837    23517722.046
  21659740.428   -20785124.41549 -15874890.28247  21659740.014    21659748.345
                 -25566087.52049   8594345.36144                  20371028.031
  21979163.636   -13659143.67349  -9981804.85246  21979162.892    21979170.507
  21168011.932   -19445483.30449 -15131177.03247  21168011.321    21168017.684
 03  4  2  0 44  0.0000000  0  8G14G17G31G 9G 3G15G23G18
  21093372.047   -17030847.34949 -12618602.46047  21093371.383    21093378.328
  22332972.743     2372838.03749   1758133.43446  22332971.916    22332981.498
  22819018.908   -10947356.27349  -8500880.18946  22819018.333    22819027.788
  23513889.139     -370933.07049   -280972.58345  23513888.783    23513900.115
  21659554.397   -20786101.54649 -15875651.66147  21659554.053    21659562.249
  20375586.388   -25542339.98649   8612849.90945  20375539.955    20375547.535
  21988954.847   -13607690.56349  -9941711.49346  21988954.124    21988961.668
  21176756.493   -19399529.95249 -15095369.20847  21176755.917    21176762.215
 03  4  2  0 44 30.0000000  0  8G14G17G31G 9G 3G15G23G18
  21080316.436   -17099454.77549 -12672062.71247  21080315.761    21080322.683
  22346253.456     2442628.98249   1812515.92745  22346252.681    22346262.403
  22809394.645   -10997932.13549  -8540289.89046  22809393.955    22809403.470
  23510170.016     -390478.25749   -296202.55145  23510169.558    23510180.563
  21659476.074   -20786513.48349 -15875972.64947  21659475.677    21659483.782
  20380181.202   -25518194.87849   8631664.26145  20380134.275    20380188.043
  21998761.089   -13556158.01749  -9901556.26246  21998760.395    21998768.012
  21185534.571   -19353401.16149 -15059424.69347  21185534.000    21185540.204
 03  4  2  0 45  0.0000000  0  8G14G17G31G 9G 3G15G23G18
  21067348.264   -17167602.01149 -12725164.38247  21067347.589    21067354.659
  22359592.737     2512726.35949   1867137.19045  22359591.956    22359601.499
  22799869.174   -11047988.74049  -8579294.95846  22799868.450    22799877.935
  23506553.468     -409483.53449   -311011.77245  23506553.091    23506563.992
  21659505.582   -20786358.34549 -15875851.73547  21659505.207    21659513.338
  20384851.886   -25493649.55849   8650790.48445  20384850.661    20384858.712
  22008582.773   -13504544.66849  -9861338.09446  22008582.005    22008589.748
  21194346.223   -19307095.96449 -15023342.71747  21194345.620    21194351.879
 03  4  2  0 45 30.0000000  0  8G14G17G31G 9G 3G15G23G18
  21054467.846   -17235288.12249 -12777906.74247  21054467.286    21054474.383
  22372989.826     2583128.72849   1921996.10945  22372988.972    22372998.774
  22790442.531   -11097525.36449  -8617894.85546  22790441.776    22790451.391
  23503039.613     -427947.79449   -325399.39945  23503039.334    23503050.099
  21659642.836   -20785637.24449 -15875289.85147  21659642.422    21659650.627
  20389598.595   -25468704.31749   8670228.26445  20389597.715    20389605.578
  22018419.510   -13452852.24749  -9821058.31246  22018418.736    22018426.540
  21203190.985   -19260616.10749 -14987124.65047  21203190.417    21203196.802
 03  4  2  0 46  0.0000000  0  8G14G17G31G 9G 3G15G23G18
  21041676.121   -17302508.74349 -12830286.37747  21041675.581    21041682.680
  22386445.404     2653838.71749   1977094.74845  22386444.497    22386454.333
  22781115.710   -11146537.63449  -8656086.17846  22781114.932    22781124.682
  23499629.598     -445866.63149   -339362.05345  23499629.435    23499640.095
  21659888.176   -20784348.12049 -15874285.32647  21659887.762    21659895.947
  20394422.255   -25443356.15849   8689980.07346  20394421.506    20394429.102
  22028271.671   -13401078.92849  -9780715.45246  22028270.925    22028278.676
  21212069.336   -19213959.94449 -14950769.22347  21212068.740    21212075.176
 03  4  2  0 46 30.0000000  0  8G14G17G31G 9G 3G15G23G18
  21028972.942   -17369263.85049 -12882303.29247  21028972.426    21028979.491
  22399959.254     2724854.06149   2032431.31045  22399958.402    22399968.087
  22771888.589   -11195025.83449  -8693869.12446  22771887.751    22771897.682
  23496323.311     -463240.30749   -352899.92545  23496323.164    23496333.951
  21660241.289   -20782492.86149 -15872839.65847  21660240.837    21660249.111
  20399322.346   -25417605.95749   8710045.15046  20399321.513    20399329.205
  22038138.869   -13349227.21149  -9740311.55446  22038138.114    22038145.635
  21220980.704   -19167130.24749 -14914278.55447  21220980.121    21220986.599
 03  4  2  0 47  0.0000000  0  8G14G17G31G 9G 3G15G23G18
  21016358.614   -17435551.96949 -12933956.29047  21016358.088    21016365.149
  22413531.281     2796174.66349   2088005.71745  22413530.366    22413540.045
  22762761.266   -11242988.41749  -8731242.50946  22762760.719    22762770.678
  23493121.135     -480067.45549   -366011.93645  23493121.070    23493131.533
  21660702.097   -20780071.70249 -15870953.04147  21660701.618    21660709.777
  20404299.149   -25391453.58349   8730423.58446  20404298.318    20404305.906
  22048020.685   -13297298.01549  -9699847.22146  22048019.963    22048027.331
  21229924.956   -19120127.96649 -14877653.41547  21229924.399    21229930.816
 03  4  2  0 47 30.0000000  0  8G14G17G31G 9G 3G15G23G18
  21003833.475   -17501371.64149 -12985244.28747  21003832.959    21003839.980
  22427161.172     2867799.29149   2143817.03045  22427160.170    22427169.741
  22753734.488   -11290424.26049  -8768205.42946  22753733.928    22753743.793
  23490023.514     -496346.56649   -378696.92845  23490023.305    23490033.472
  21661270.330   -20777085.33049 -15868625.99547  21661269.845    21661277.916
  20409352.668   -25364898.67449   8751115.71246  20409351.729    20409359.133
  22057916.929   -13245292.32949  -9659323.31446  22057916.262    22057923.768
  21238901.930   -19072954.25449 -14840894.67147  21238901.324    21238907.557
 03  4  2  0 48  0.0000000  0  8G14G17G31G 9G 3G15G23G18
  20991397.951   -17566720.95049 -13036165.74647  20991397.298    20991404.463
  22440848.795     2939728.56149   2199865.73645  22440847.904    22440857.421
  22744808.154   -11337331.47049  -8804756.47746  22744807.697    22744817.578
  23487030.331     -512076.06249   -390953.61144  23487030.168    23487039.853
  21661946.063   -20773533.64949 -15865858.48247  21661945.617    21661953.684
  20414482.888   -25337940.34449   8772122.18246  20414481.838    20414489.169
  22067827.829   -13193210.48749  -9618740.09046  22067827.141    22067834.686
  21247911.298   -19025609.89449 -14804002.98547  21247910.658    21247916.849
 03  4  2  0 48 30.0000000  0  8G14G17G31G 9G 3G15G23G18
  20979051.956   -17631598.13649 -13086719.33547  20979051.385    20979058.688
  22454594.304     3011962.20749   2256151.64645  22454593.408    22454603.132
  22735983.061   -11383708.26549  -8840894.17546  22735982.547    22735992.349
  23484142.103     -527254.16049   -402780.62344  23484141.748    23484151.781
  21662729.411   -20769416.97049 -15862650.66747  21662728.985    21662736.974
  20419689.972   -25310577.76549   8793443.66246  20419688.853    20419696.118
  22077753.113   -13141052.77749  -9578097.73646  22077752.400    22077759.970
  21256952.952   -18978095.24949 -14766978.58347  21256952.358    21256958.568
 03  4  2  0 49  0.0000000  0  8G14G17G31G 9G 3G15G23G18
  20966795.822   -17696003.64949 -13136905.37947  20966795.329    20966802.588
  22468397.417     3084498.00449   2312672.93845  22468396.563    22468406.616
  22727258.876   -11429555.01149  -8876618.87946  22727258.247    22727268.015
  23481358.480     -541880.99249   -414178.13944  23481358.204    23481368.663
  21663619.901   -20764737.54249 -15859004.39247  21663619.518    21663627.295
  20424973.228   -25282812.23149   8815079.15246  20424972.346    20424979.648
  22087692.352   -13088821.88049  -9537398.39545  22087691.610    22087699.102
  21266026.502   -18930413.63549 -14729824.09747  21266025.907    21266032.116
 03  4  2  0 49 30.0000000  0  8G14G17G31G 9G 3G15G23G18
  20954630.461   -17759933.45549 -13186720.74847  20954629.981    20954636.931
  22482258.700     3157337.60949   2369431.00346  22482257.826    22482267.622
  22718635.855   -11474868.23049  -8911927.80946  22718635.336    22718645.244
  23478680.396     -555953.37948   -425143.60844  23478680.429    23478690.644
  21664617.810   -20759493.85849 -15854918.38247  21664617.328    21664625.247
  20430333.817   -25254641.41249   8837030.40646  20430333.015    20430340.435
  22097645.796   -13036516.63049  -9496641.04445  22097645.069    22097652.593
  21275132.198   -18882563.32549 -14692538.15447  21275131.593    21275137.675
 03  4  2  0 50  0.0000000  0  8G14G17G31G 9G 3G15G23G18
  20942555.728   -17823388.01449 -13236165.77947  20942555.131    20942561.833
  22496177.331     3230478.86849   2426424.08746  22496176.431    22496185.874
  22710114.546   -11519648.28949  -8946821.36046  22710114.045    22710123.749
  23476107.701     -569471.38849   -435677.03844  23476107.799    23476117.862
  21665722.446   -20753688.10349 -15850394.44347  21665722.063    21665730.153
  20435771.227   -25226066.55549   8859296.54346  20435770.521    20435778.102
  22107612.788   -12984139.48549  -9455827.70645  22107611.980    22107619.813
  21284269.341   -18834547.28949 -14655123.05647  21284268.757    21284274.829
 03  4  2  0 50 30.0000000  0  8G14G17G31G 9G 3G15G23G18
  20930571.768   -17886364.11049 -13285237.99347  20930571.147    20930577.824
  22510153.307     3303923.29149   2483653.44546  22510152.506    22510162.022
  22701695.374   -11563892.11249  -8981297.03846  22701694.784    22701704.203
  23473641.006     -582432.17548   -445776.29744  23473640.968    23473651.417
  21666934.322   -20747318.99549 -15845431.50547  21666933.904    21666942.153
  20441286.334   -25197085.43249   8881879.24846  20441285.572    20441293.091
  22117593.753   -12931689.33849  -9414957.48245  22117592.838    22117600.954
  21293438.257   -18786364.64549 -14617578.13847  21293437.560    21293443.690
 03  4  2  0 51  0.0000000  0  8G14G17G31G 9G 3G15G23G18
  20918679.045   -17948860.15549 -13333936.13047  20918678.411    20918685.252
  22524186.822     3377669.87949   2541118.24946  22524185.940    22524195.581
  22693378.429   -11607598.46049  -9015353.88846  22693377.821    22693386.962
  23471281.563     -594834.29148   -455440.20844  23471281.049    23471291.411
  21668253.332   -20740387.27349 -15840030.16447  21668252.960    21668261.330
  20446878.993   -25167697.74249   8904778.74846  20446877.911    20446885.372
  22127588.396   -12879167.03849  -9374031.07845  22127587.540    22127595.685
  21302638.414   -18738016.67049 -14579904.40747  21302637.751    21302643.952
 03  4  2  0 51 30.0000000  0  8G14G17G31G 9G 3G15G23G18
  20906877.612   -18010876.08149 -13382260.17647  20906877.050    20906884.027
  22538277.247     3451717.30649   2598817.46745  22538276.625    22538286.407
  22685163.791   -11650767.06849  -9048991.72646  22685163.139    22685172.277
  23469027.730     -606677.85648   -464668.91644  23469027.310    23469037.738
  21669679.279   -20732894.63449 -15834191.73247  21669678.803    21669687.109
  20452548.332   -25137904.20549   8927994.52145  20452547.436    20452554.904
  22137596.306   -12826574.57749  -9333049.93645  22137595.491    22137603.695
  21311869.621   -18689505.42749 -14542103.44846  21311869.040    21311875.318
 03  4  2  0 52  0.0000000  0  8G14G17G31G 9G 3G15G23G18
  20895168.164   -18072409.74449 -13430208.43647  20895167.606    20895174.464
  22552425.192     3526065.52849   2656751.06745  22552424.661    22552434.419
  22677051.738   -11693395.89549  -9082208.96746  22677051.105    22677060.258
  23466880.426     -617960.53749   -473460.45244  23466880.058    23466890.689
  21671211.866   -20724841.15249 -15827916.27147  21671211.343    21671219.672
  20458295.358   -25107703.81049   8951527.27846  20458294.537    20458301.925
  22147617.671   -12773911.78949  -9292014.00045  22147616.933    22147624.856
  21321132.030   -18640831.12049 -14504175.43846  21321131.508    21321137.818
 03  4  2  0 52 30.0000000  0  8G14G17G31G 9G 3G15G23G18
  20883550.872   -18133459.32749 -13477779.47347  20883550.279    20883557.014
  22566630.760     3600714.74849   2714919.22845  22566630.166    22566639.717
  22669042.835   -11735483.33949  -9115004.37446  22669042.178    22669051.250
  23464840.884     -628680.96749   -481813.98644  23464840.330    23464850.697
  21672850.978   -20716227.05649 -15821204.04547  21672850.418    21672858.896
  20464119.709   -25077095.85749   8975377.66846  20464118.856    20464126.522
  22157652.348   -12721179.19349  -9250923.70245  22157651.627    22157659.310
  21330425.444   -18591994.29949 -14466120.78246  21330424.814    21330431.281
 03  4  2  0 53  0.0000000  0  8G14G17G31G 9G 3G15G23G18
  20872025.415   -18194025.52449 -13524973.85047  20872024.848    20872031.584
  22580893.230     3675662.32349   2773319.81545  22580892.303    22580901.989
  22661136.605   -11777030.34449  -9147378.63546  22661135.972    22661145.031
  23462907.669     -638840.08649   -489730.10044  23462907.036    23462917.174
  21674596.077   -20707055.00549 -15814056.98847  21674595.660    21674604.356
  20470020.886   -25046082.14349   8999544.24245  20470020.239    20470028.302
  22167699.693   -12668379.57949  -9209781.21245  22167698.912    22167706.599
  21339748.980   -18542998.25149 -14427942.03046  21339748.370    21339754.999
 03  4  2  0 53 30.0000000  0  8G14G17G31G 9G 3G15G23G18
  20860592.607   -18254104.44349 -13571788.53347  20860592.083    20860598.772
  22595212.238     3750910.41449   2831954.62145  22595211.460    22595221.314
  22653333.884   -11818033.14649  -9179328.80446  22653333.314    22653342.400
  23461081.767     -648434.09749   -497205.92144  23461080.902    23461090.759
  21676448.025   -20697323.11849 -15806473.72447  21676447.627    21676456.407
  20476000.621   -25014659.69049   9024029.24645  20475999.929    20476007.790
  22177760.181   -12615511.05549  -9168585.01345  22177759.437    22177767.149
  21349103.068   -18493841.23849 -14389637.88046  21349102.523    21349109.340
 03  4  2  0 54  0.0000000  0  8G14G17G31G 9G 3G15G23G18
  20849252.930   -18313694.03349 -13618221.92547  20849252.473    20849258.936
  22609588.720     3826458.94849   2890823.54545  22609587.888    22609597.978
  22645635.105   -11858489.72049  -9210853.38046  22645634.653    22645643.690
  23459363.864     -657461.15148   -504239.97544  23459363.320    23459372.583
  21678406.586   -20687031.51649 -15798454.28747  21678406.191    21678414.966
  20482058.254   -24982827.44549   9048833.59245  20482057.536    20482065.084
  22187833.871   -12562573.70849  -9127335.14845  22187833.213    22187840.666
  21358488.132   -18444523.29149 -14351208.34046  21358487.546    21358494.340
 03  4  2  0 54 30.0000000  0  8G14G17G31G 9G 3G15G23G18
  20838006.805   -18372793.52349 -13664273.42247  20838006.189    20838012.569
  22624022.074     3902306.97049   2949925.81645  22624021.315    22624031.429
  22638040.494   -11898399.40949  -9241951.81446  22638039.961    22638049.025
  23457754.274     -665920.12549   -510831.29744  23457754.533    23457763.175
  21680471.359   -20676181.46049 -15789999.68747  21680470.903    21680479.671
  20488193.910   -24950585.70249   9073956.99145  20488192.990    20488200.370
  22197920.395   -12509568.71049  -9086032.56245  22197919.790    22197927.172
  21367903.550   -18395045.95449 -14312654.60046  21367902.888    21367909.645
 03  4  2  0 55  0.0000000  0  8G14G17G31G 9G 3G15G23G18
  20826853.652   -18431403.43249 -13709943.41147  20826853.080    20826859.525
  22638512.249     3978452.12849   3009259.57045  22638511.454    22638521.422
  22630549.779   -11937762.98549  -9272624.70446  22630549.376    22630558.414
  23456252.818     -673812.35849   -516981.00544  23456252.246    23456261.420
  21682641.724   -20664775.46249 -15781111.88347  21682641.360    21682650.189
  20494406.917   -24917936.11449   9099398.22245  20494405.978    20494413.317
                 -12456498.53549  -9044679.24745
  21377348.436   -18345411.95649 -14273978.76846  21377347.910    21377354.778
 03  4  2  0 55 30.0000000  0  8G14G17G31G 9G 3G15G23G18
  20815794.046   -18489521.83149 -13755230.41947  20815793.466    20815800.036
  22653058.626     4054893.98749   3068824.58045  22653057.685    22653067.944
  22623163.666   -11976578.63849  -9302870.62846  22623163.140    22623172.095
  23454859.176     -681136.18849   -522687.80944  23454858.719    23454868.014
  21684917.883   -20652813.83949 -15771791.16647  21684917.544    21684926.428
  20500697.485   -24884877.56849   9125158.12845  20500696.653    20500704.185
  22218130.941   -12403363.33849  -9003275.17645  22218130.159    22218137.009
  21386823.308   -18295621.64249 -14235181.15046  21386822.771    21386829.592
 03  4  2  0 56  0.0000000  0  8G14G17G31G 9G 3G15G23G18
  20804828.268   -18547147.27249 -13800133.29447  20804827.718    20804834.354
  22667661.101     4131632.77449   3128620.98045  22667660.366    22667670.857
  22615881.945   -12014845.09349  -9332688.60746  22615881.341    22615890.271
  23453573.959     -687890.01248   -527950.49044  23453573.399    23453582.435
  21687299.732   -20640297.13849 -15762037.93247  21687299.415    21687308.351
  20507066.342   -24851409.46649   9151237.17246  20507065.444    20507073.029
  22228254.462   -12350163.48549  -8961820.81045  22228253.721    22228260.714
  21396327.664   -18245675.73749 -14196262.24646  21396327.122    21396334.014
 03  4  2  0 56 30.0000000  0  8G14G17G31G 9G 3G15G23G18
  20793956.918   -18604276.58249 -13844649.57347  20793956.363    20793962.974
  22682320.427     4208669.40049   3188649.39445  22682319.717    22682330.673
  22608705.078   -12052559.28249  -9362076.23646  22608704.589    22608713.420
  23452397.822     -694070.93548   -532766.70144  23452397.803    23452405.650
  21689787.545   -20627224.37149 -15751851.37247  21689787.222    21689796.033
  20513513.566   -24817529.47049   9177637.16046  20513512.710    20513520.287
  22238390.477   -12296897.78249  -8920315.13545  22238389.823    22238397.222
  21405861.793   -18195573.19249 -14157221.33346  21405861.240    21405868.171
 03  4  2  0 57  0.0000000  0  8G14G17G31G 9G 3G15G23G18
  20783180.031   -18660909.81349 -13888779.30647  20783179.434    20783185.942
  22697036.157     4286002.39049   3248908.84245  22697035.549    22697046.464
  22601633.264   -12089721.46349  -9391033.70746  22601632.676    22601641.651
  23451330.475     -699679.53048   -537136.97344                  23451329.321
  21692380.761   -20613597.72449 -15741233.21147  21692380.467    21692389.075
  20520038.951   -24783239.17649   9204356.85846  20520038.123    20520045.495
  22248538.896   -12243568.14249  -8878759.59945  22248538.167    22248545.868
  21415425.331   -18145316.17249 -14118060.05346  21415424.790    21415431.672
 03  4  2  0 57 30.0000000  0  8G14G17G31G 9G 3G15G23G18
  20772497.680   -18717045.84349 -13932521.58947  20772497.040    20772503.542
  22711809.038     4363630.81349   3309398.43845  22711808.401    22711818.861
  22594666.348   -12126330.64049  -9419560.26446  22594665.899    22594675.058
  23450371.743     -704714.78349   -541060.56144  23450370.584    23450379.660
  21695079.296   -20599417.88349 -15730184.00847  21695078.929    21695087.348
  20526642.331   -24748538.30249   9231396.48246  20526641.433    20526648.772
  22258699.511   -12190175.21949  -8837154.74245  22258698.723    22258706.508
  21425017.975   -18094905.80649 -14078779.26146  21425017.499    21425024.458
 03  4  2  0 58  0.0000000  0  8G14G17G31G 9G 3G15G23G18
  20761909.575   -18772685.35449 -13975876.99547  20761909.030    20761915.625
  22726637.337     4441552.32349   3370116.37845  22726636.736    22726646.617
  22587804.805   -12162387.66449  -9447656.57346  22587804.318    22587813.508
  23449523.212     -709177.67849   -544538.19244  23449521.804    23449530.033
  21697882.449   -20584687.79349 -15718706.05047  21697882.039    21697890.296
  20533323.369   -24713428.20649   9258755.00046  20533322.537    20533329.901
  22268871.521   -12136721.59549  -8795502.58445  22268870.711    22268878.567
  21434639.149   -18044344.51849 -14039380.90146  21434638.868    21434645.977
 03  4  2  0 58 30.0000000  0  8G14G17G31G 9G 3G15G23G18
  20751416.793   -18827825.04749 -14018842.93847  20751416.274    20751422.898
  22741521.041     4519768.35249   3431063.89045  22741520.614    22741530.777
  22581049.055   -12197889.32249  -9475320.10846  22581048.516    22581057.696
  23448783.063     -713064.95348   -547567.17044  23448781.997    23448789.975
  21700790.248   -20569406.56849 -15706798.58747  21700789.856    21700798.148
  20540082.900   -24677906.74249   9286434.07446  20540082.047    20540089.435
  22279055.173   -12083205.84049  -8753802.01545  22279054.481    22279062.540
  21444289.648   -17993631.27849 -13999864.07546  21444289.258    21444296.436
 03  4  2  0 59  0.0000000  0  8G14G17G31G 9G 3G15G23G18
  20741019.696   -18882461.92549 -14061417.06447  20741019.112    20741025.802
  22756461.390     4598280.22349   3492241.85645  22756460.899    22756471.302
  22574399.512   -12232832.82449  -9502548.71446  22574399.019    22574408.197
  23448153.043     -716373.75849   -550145.42844  23448152.002    23448160.888
  21703803.283   -20553572.88349 -15694460.63747  21703802.810    21703811.154
  20546921.085   -24641971.90749   9314435.22746  20546920.203    20546927.666
  22289250.812   -12029626.75349  -8712052.13445  22289250.104    22289258.421
  21453969.282   -17942765.12149 -13960228.15846  21453968.856    21453975.922
 03  4  2  0 59 30.0000000  0  8G14G17G31G 9G 3G15G23G18
  20730717.605   -18936598.72149 -14103601.50347  20730717.074    20730723.941
  22771458.521     4677083.45549   3553646.90445  22771457.487    22771467.277
  22567855.632   -12267221.17249  -9529344.80646  22567855.099    22567864.133
  23447632.856     -719107.16949   -552275.31644  23447632.062    23447640.814
  21706920.355   -20537191.78849 -15681696.20247  21706919.882    21706928.309
  20553837.192   -24605627.40149   9342755.60046  20553836.405    20553843.841
  22299457.661   -11975988.79449  -8670256.37445  22299457.086    22299465.521
  21463677.091   -17891751.04949 -13920476.90846  21463676.675    21463683.545
 03  4  2  1  0  0.0000000  0  8G14G17G31G 9G 3G15G23G18
  20720511.202   -18990233.54349 -14145394.84147  20720510.709    20720517.554
  22786509.374     4756177.95348   3615278.87645  22786508.518    22786518.690
  22561417.666   -12301052.39549  -9555706.73746  22561417.196    22561426.041
  23447222.605     -721263.67849   -553955.66744  23447221.797    23447230.731
  21710141.775   -20520263.35149 -15668505.19547  21710141.312    21710149.674
  20560831.606   -24568872.02949   9371396.14846  20560830.783    20560838.216
  22309675.958   -11922291.58349  -8628414.40145  22309675.344    22309683.879
  21473413.360   -17840588.74849 -13880610.16846  21473412.895    21473419.469
 03  4  2  1  0 30.0000000  0  8G14G17G31G 9G 3G15G23G18
  20710401.278   -19043362.19749 -14186793.73447  20710400.698    20710407.462
  22801615.890     4835566.48848   3677140.07945  22801615.143    22801625.966
  22555086.655   -12334322.88049  -9581631.72646  22555086.119    22555094.536
  23446922.759     -722839.60349   -555183.63344  23446921.744    23446931.151
  21713467.609   -20502785.81549 -15654886.31847  21713467.139    21713475.619
  20567904.760   -24531702.75349   9400359.20446  20567903.906    20567911.307
  22319906.013   -11868532.82049  -8586524.47145  22319905.291    22319913.935
  21483177.628   -17789275.99349 -13840626.23546  21483177.117    21483183.949
 03  4  2  1  1  0.0000000  0  8G14G17G31G 9G 3G15G23G18
  20700387.740   -19095983.56949 -14227797.34747  20700387.130    20700393.886
  22816778.399     4915247.03649   3739228.76145  22816777.504    22816788.474
  22548862.494   -12367031.57549  -9607118.96646  22548861.907    22548870.120
  23446732.778     -723833.84549   -555958.37744  23446732.005    23446741.331
  21716897.679   -20484760.21249 -15640840.41847  21716897.235    21716905.916
  20575056.618   -24494119.52949   9429644.80347  20575055.795    20575063.161
  22330147.686   -11814713.03949  -8544586.98945  22330146.921    22330155.734
  21492970.360   -17737813.72249 -13800525.76646  21492970.016    21492976.905
 03  4  2  1  1 30.0000000  0  8G14G17G31G 9G 3G15G23G18
  20690470.505   -19148098.50049 -14268406.33747  20690469.906    20690476.692
  22831996.568     4995218.64449   3801544.17745  22831995.738    22832006.372
  22542744.826   -12399179.42849  -9632169.18446  22542744.214    22542752.732
  23446654.125     -724247.74049   -556280.85644  23446653.380    23446661.712
  21720431.550   -20466189.28849 -15626369.53947  21720431.248    21720439.871
  20582286.954   -24456123.90949   9459251.77147  20582286.130    20582293.564
  22340400.385   -11760834.70149  -8502603.93145  22340399.553    22340408.534
  21502791.703   -17686204.77049 -13760311.03746  21502791.097    21502797.760
 03  4  2  1  2  0.0000000  0  8G14G17G31G 9G 3G15G23G18
  20680649.595   -19199708.21149 -14308621.63547  20680648.885    20680655.637
  22847269.897     5075478.34449   3864084.09245  22847268.944    22847279.391
  22536733.390   -12430767.65249  -9656783.32946  22536732.845    22536741.822
  23446685.553     -724082.29849   -556151.87044  23446684.818    23446693.656
  21724068.672   -20447076.22249 -15611476.24447  21724068.330    21724076.974
  20589595.412   -24417717.58349   9489178.71547  20589594.561    20589602.084
  22350663.538   -11706900.42749  -8460577.23445  22350662.818    22350671.760
  21512639.041   -17634452.13749 -13719984.28746  21512638.970    21512646.061
 03  4  2  1  2 30.0000000  0  8G14G17G31G 9G 3G15G23G18
  20670925.095   -19250810.26049 -14348441.36247  20670924.447    20670931.175
  22862598.136     5156026.16549   3926848.50445  22862597.152    22862607.050
  22530828.963   -12461794.38349  -9680959.93246  22530828.492    22530837.520
  23446827.327     -723335.65249   -555569.96344  23446826.919    23446835.973
  21727809.020   -20427421.00749 -15596160.46847  21727808.651    21727817.322
  20596982.131   -24378899.37349   9519426.66647  20596981.367    20596988.996
  22360937.565   -11652909.58249  -8418506.47945  22360936.866    22360945.853
  21522514.740   -17582555.29049 -13679545.21646  21522514.622    21522521.791
 03  4  2  1  3  0.0000000  0  8G14G17G31G 9G 3G15G23G18
  20661297.601   -19301402.35549 -14387863.76247  20661296.982    20661303.704
  22877981.187     5236863.23949   3989838.32845  22877980.363    22877990.103
  22525031.986   -12492257.15849  -9704697.12346  22525031.496    22525040.375
  23447080.374     -722005.77949   -554533.71245  23447079.925    23447088.903
  21731652.451   -20407223.28349 -15580422.04447  21731652.090    21731660.825
  20604447.706   -24339667.80949   9549996.68747  20604446.908    20604454.533
  22371222.451   -11598861.35649  -8376390.91745  22371221.765    22371230.618
  21532418.291   -17530513.27649 -13638992.98846  21532417.997    21532425.204
 03  4  2  1  3 30.0000000  0  8G14G17G31G 9G 3G15G23G18
  20651767.350   -19351483.09749 -14426887.66047  20651766.790    20651773.592
  22893418.836     5317988.52449   4053052.74845  22893417.948    22893427.841
  22519342.341   -12522155.05149  -9727994.15546  22519341.934    22519350.907
  23447444.559     -720092.01249   -553042.41845  23447444.102    23447452.942
  21735599.048   -20386484.11049 -15564261.63247  21735598.698    21735607.414
  20611991.940   -24300022.58849   9580889.05347  20611991.075    20611998.862
  22381518.480   -11544755.81449  -8334230.82045  22381517.518    22381526.402
  21542349.409   -17478327.04249 -13598328.43746  21542349.051    21542356.061
 03  4  2  1  4  0.0000000  0  8G14G17G31G 9G 3G15G23G18
  20642334.577   -19401051.69949 -14465512.50047  20642334.120    20642340.880
  22908910.737     5399401.82849   4116491.63545  22908910.012    22908920.692
  22513760.732   -12551487.28749  -9750850.40846  22513760.308    22513769.025
  23447919.984     -717593.39949   -551095.41145  23447919.563    23447928.719
  21739648.494   -20365204.61249 -15547680.21747  21739648.115    21739656.711
  20619614.733   -24259963.58249   9612103.83847  20619613.959    20619621.899
  22391825.304   -11490593.68549  -8292026.60345  22391824.322    22391833.085
  21552307.782   -17425996.96849 -13557551.78246  21552307.278    21552314.140
 03  4  2  1  4 30.0000000  0  8G14G17G31G 9G 3G15G23G18
  20632999.896   -19450106.13749 -14503736.69447  20632999.392    20633006.132
  22924457.463     5481102.92149   4180154.74945  22924456.799    22924468.199
  22508286.988   -12580252.34349  -9773264.67246  22508286.527    22508295.239
  23448506.900     -714508.54649   -548691.56145  23448506.417    23448515.815
  21743800.591   -20343385.16049 -15530678.05847  21743800.221    21743808.858
  20627316.651   -24219489.93349   9643641.71946  20627315.846    20627323.813
  22402142.780   -11436374.74549  -8249778.09845  22402141.860    22402150.499
  21562293.094   -17373523.46949 -13516663.37046  21562292.685    21562299.429
 03  4  2  1  5  0.0000000  0  8G14G17G31G 9G 3G15G23G18
  20623762.778   -19498647.99949 -14541561.47748  20623762.187    20623768.798
  22940059.166     5563088.91049   4244039.84645  22940058.297    22940069.354
  22502920.759   -12608451.69349  -9795238.14246  22502920.382    22502929.108
  23449205.039     -710839.06749   -545832.12845  23449204.654    23449214.096
  21748054.682   -20321029.34549 -15513257.92647  21748054.315    21748062.975
  20635097.131   -24178603.84249   9675501.01546  20635096.310    20635104.129
  22412470.608   -11382101.82349  -8207487.53545  22412469.720    22412478.235
  21572305.549   -17320909.31449 -13475665.35646  21572304.973    21572311.574
 03  4  2  1  5 30.0000000  0  8G14G17G31G 9G 3G15G23G18
  20614623.766   -19546674.14249 -14578984.39548  20614623.134    20614629.603
  22955715.448     5645361.25049   4308148.04045  22955714.689    22955725.257
  22497663.041   -12636082.41049  -9816768.52646  22497662.492    22497671.182
  23450015.060     -706582.29649   -542515.16245  23450014.692    23450024.101
  21752410.978   -20298136.03149 -15495418.98647  21752410.670    21752419.401
  20642956.571   -24137302.89749   9707683.52246  20642955.689    20642963.342
  22422808.912   -11327772.85149  -8165153.28645  22422808.144    22422816.488
  21582344.850   -17268153.47249 -13434556.91246  21582344.234    21582350.726
 03  4  2  1  6  0.0000000  0  8G14G17G31G 9G 3G15G23G18
  20605582.091   -19594187.89749 -14616008.04548  20605581.543    20605588.070
  22971424.871     5727915.14249   4372475.59445  22971424.282    22971434.219
  22492512.598   -12663148.11149  -9837858.64846  22492512.018    22492520.716
  23450936.239     -701742.09749   -538743.54045  23450935.895    23450944.846
  21756868.761   -20274710.72149 -15477165.48747  21756868.453    21756877.142
  20650893.990   -24095591.36449   9740185.98746  20650893.094    20650900.721
  22433156.735   -11273392.73549  -8122779.22345  22433155.900    22433164.604
  21592410.046   -17215260.80149 -13393341.87246  21592409.307    21592415.939
 03  4  2  1  6 30.0000000  0  8G14G17G31G 9G 3G15G23G18
  20596638.771   -19641185.09749 -14652629.19548  20596638.234    20596644.770
  22987188.378     5810753.17549   4437024.63545  22987187.733    22987197.160
  22487470.435   -12689644.97149  -9858505.53346  22487469.899    22487478.493
  23451968.977     -696314.67049   -534514.33645  23451968.570    23451977.608
  21761428.280   -20250751.45949 -15458495.93447  21761427.887    21761436.462
  20658910.192   -24053465.93149   9773011.00046  20658909.314    20658916.854
  22443515.054   -11218958.93149  -8080363.31445  22443514.399    22443522.924
  21602501.342   -17162228.84549 -13352018.29746  21602500.880    21602507.630
 03  4  2  1  7  0.0000000  0  8G14G17G31G 9G 3G15G23G18
  20587793.831   -19687665.08849 -14688847.31748  20587793.277    20587799.828
  23003005.998     5893873.60449   4501793.68345  23003005.120    23003015.000
  22482536.649   -12715572.66049  -9878708.83546  22482536.044    22482544.517
  23453113.536     -690299.65849   -529827.29345  23453113.207    23453122.390
  21766088.749   -20226260.13949 -15439411.80447  21766088.431    21766096.953
  20667005.088   -24010926.94949   9806158.23946  20667004.241    20667011.633
  22453883.357   -11164472.09849  -8037906.08645  22453882.671    22453891.386
  21612619.477   -17109058.58249 -13310586.92546  21612618.945    21612625.506
 03  4  2  1  7 30.0000000  0  8G14G17G31G 9G 3G15G23G18
  20579047.353   -19733627.80149 -14724662.35847  20579046.842    20579053.228
  23018876.690     5977275.65149   4566782.17645  23018875.983    23018886.117
  22477711.287   -12740930.84249  -9898468.41946  22477710.674    22477718.965
  23454370.112     -683697.15749   -524682.44446  23454369.787    23454378.969
  21770850.194   -20201238.39849 -15419914.35347  21770849.864    21770858.414
  20675178.689   -23967974.89449   9839627.35747  20675177.782    20675185.078
  22464261.429   -11109933.19349  -7995408.21945  22464261.026    22464269.935
  21622763.651   -17055750.82649 -13269048.44346  21622763.042    21622769.506
 03  4  2  1  8  0.0000000  0  8G14G17G31G 9G 3G15G23G18
  20570399.837   -19779070.61649 -14760072.29347  20570399.339    20570405.667
  23034801.810     6060959.98749   4631990.68545  23034801.139    23034810.972
  22472994.671   -12765717.34849  -9917782.56546  22472993.970    22473002.213
  23455738.543     -676504.90849   -519078.08146  23455738.271    23455747.621
  21775712.632   -20175685.88449 -15400003.28847  21775712.298    21775720.812
  20683431.100   -23924607.94749   9873419.77947  20683430.229    20683437.624
  22474650.070   -11055340.73849  -7952868.68645  22474649.563    22474658.627
  21632934.061   -17002304.82149 -13227402.23745  21632933.501    21632939.947
 03  4  2  1  8 30.0000000  0  8G14G17G31G 9G 3G15G23G18
  20561851.126   -19823994.50649 -14795077.87247  20561850.597    20561856.962
  23050779.891     6144923.82549   4697416.99045  23050779.088    23050788.848
  22468386.526   -12789933.60449  -9936652.31846  22468385.900    22468393.999
  23457219.040     -668724.57249   -513015.45246  23457218.815    23457228.207
  21780675.433   -20149605.80149 -15379681.15547  21780675.143    21780683.651
  20691762.002   -23880828.09849   9907533.91247  20691761.172    20691768.753
  22485048.657   -11000697.38449  -7910289.48445  22485048.055    22485056.981
  21643130.254   -16948723.56249 -13185650.64345  21643129.674    21643136.144
 03  4  2  1  9  0.0000000  0  8G14G17G31G 9G 3G15G23G18
  20553401.509   -19868396.99649 -14829677.16047  20553400.947    20553407.394
  23066810.911     6229167.98549   4763061.67245  23066810.100    23066820.437
  22463887.172   -12813577.31449  -9955075.94446  22463886.595    22463894.782
  23458811.901     -660354.01849   -506492.93246  23458811.642    23458821.111
  21785738.648   -20122998.21849 -15358947.95747  21785738.377    21785746.848
  20700172.061   -23836633.70749   9941971.09947  20700171.189    20700178.860
  22495457.061   -10946001.79549  -7867669.56145  22495456.310    22495465.116
  21653352.293   -16895005.80549 -13143792.66345  21653351.637    21653358.313
 03  4  2  1  9 30.0000000  0  8G14G17G31G 9G 3G15G23G18
  20545051.123   -19912278.27149 -14863870.33247  20545050.597    20545056.959
  23082894.938     6313691.16749   4828923.80445  23082894.156    23082904.710
  22459496.971   -12836648.78849  -9973053.66246  22459496.354    22459504.421
  23460517.001     -651393.71449   -499510.85046  23460516.653    23460526.102
  21790901.935   -20095864.99349 -15337805.17647  21790901.613    21790910.068
  20708660.721   -23792025.61249   9976730.65547  20708659.833    20708667.588
  22505875.039   -10891255.14749  -7825009.86446  22505874.297    22505883.078
  21663600.151   -16841152.94949 -13101829.39045  21663599.482    21663606.143
 03  4  2  1 10  0.0000000  0  8G14G17G31G 9G 3G15G23G18
  20536800.277   -19955637.04549 -14897656.33147  20536799.669    20536806.020
  23099032.243     6398493.27949   4895003.27645  23099031.423    23099042.300
  22455215.720   -12859146.88249  -9990584.61546  22455215.029    22455223.074
  23462334.513     -641842.84549   -492068.60346  23462334.144    23462343.587
  21796164.998   -20068206.84149 -15316253.35047  21796164.759    21796173.224
  20717227.945   -23747003.09249  10011813.14947  20717227.192    20717235.100
  22516302.781   -10836457.37749  -7782310.32346  22516302.138    22516310.711
  21673873.678   -16787165.25749 -13059761.07945  21673872.901    21673879.562
 03  4  2  1 10 30.0000000  0  8G14G17G31G 9G 3G15G23G18
  20528648.858   -19998472.79749 -14931034.79747  20528648.283    20528654.651
  23115222.405     6483572.99049   4961299.06945  23115221.774    23115232.470
  22451043.303   -12881071.26349 -10007668.54746  22451042.727    22451050.943
  23464264.600     -631701.27149   -484166.04746  23464264.268    23464273.600
  21801527.904   -20040025.54349 -15294293.88547  21801527.636    21801535.886
  20725874.195   -23701566.46849  10047218.30747  20725873.476    20725881.314
  22526740.223   -10781608.93049  -7739571.27146  22526739.582    22526747.969
  21684172.492   -16733043.58049 -13017588.43445  21684171.910    21684178.495
 03  4  2  1 11  0.0000000  0  8G14G17G31G 9G 3G15G23G18
  20520596.849   -20040786.24449 -14964006.28347  20520596.327    20520602.667
  23131465.254     6568927.94649   5027809.30745  23131464.450    23131475.276
  22446980.119   -12902423.30849 -10024306.44046  22446979.500    22446987.847
  23466306.754     -620970.11849   -475804.08246  23466306.394    23466315.725
  21806989.663   -20011324.21249 -15271929.23347  21806989.346    21806997.483
  20734599.174   -23655717.36649  10082944.85646  20734598.356    20734606.074
  22537186.626   -10726711.80849  -7696794.32646  22537186.141    22537194.600
  21694496.770   -16678790.34349 -12975313.20046  21694496.192    21694502.522
 03  4  2  1 11 30.0000000  0  8G14G17G31G 9G 3G15G23G18
  20512644.855   -20082574.45249 -14996568.47447  20512644.332    20512650.561
  23147760.372     6654559.37649   5094535.03545  23147759.710    23147770.487
  22443026.372   -12923200.12349 -10040496.10946  22443025.756    22443034.139
  23468461.438     -609646.81549   -466980.70246  23468461.053    23468470.437
  21812550.479   -19982102.05749 -15249158.73947  21812550.176    21812558.260
  20743402.863   -23609453.76349  10118994.41846  20743402.042    20743409.796
  22547642.786   -10671764.05449  -7653977.94746  22547642.351    22547650.848
  21704846.319   -16624403.73449 -12932934.02546  21704845.728    21704851.905
 03  4  2  1 12  0.0000000  0  8G14G17G31G 9G 3G15G23G18
  20504792.674   -20123837.86549 -15028721.73047  20504792.148    20504798.314
  23164107.814     6740465.61949   5161474.87645  23164107.322    23164118.156
  22439182.034   -12943402.35449 -10056238.07746  22439181.358    22439189.772
  23470728.809     -597732.15249   -457696.51846  23470728.322    23470737.684
  21818209.918   -19952361.68549 -15225984.42147  21818209.568    21818217.620
  20752285.053   -23562776.68049  10155366.16046  20752284.263    20752292.223
  22558108.761   -10616767.24549  -7611123.31446  22558108.226    22558116.490
  21715220.786   -16569885.64949 -12890452.42246  21715220.166    21715226.374
 03  4  2  1 12 30.0000000  0  8G14G17G31G 9G 3G15G23G18
  20497040.265   -20164577.16149 -15060466.59247  20497039.715    20497045.829
  23180507.176     6826644.81549   5228627.35945  23180506.689    23180517.405
  22435446.688   -12963030.88449 -10071532.99746  22435446.024    22435454.644
  23473108.313     -585227.35649   -447952.52146  23473107.865    23473117.368
  21823967.362   -19922105.84149 -15202408.43747  21823967.052    21823975.072
  20761245.555   -23515687.45649  10192059.03846  20761244.859    20761253.051
  22568583.585   -10561722.95849  -7568231.68946  22568583.055    22568591.108
  21725620.025   -16515238.01549 -12847869.87446  21725619.396    21725625.547
 03  4  2  1 13  0.0000000  0  8G14G17G31G 9G 3G15G23G18
  20489388.189   -20204789.13549 -15091800.53547  20489387.642    20489393.670
  23196959.052     6913098.23349   5295993.52945  23196958.460    23196968.790
  22431821.207   -12982082.93949 -10086378.71446  22431820.554    22431829.047
  23475600.578     -572129.78049   -437746.59346  23475600.180    23475609.911
  21829823.284   -19891333.42649 -15178429.95247  21829822.928    21829830.779
  20770285.183   -23468183.63049  10229075.02646  20770284.471    20770292.780
  22579067.586   -10506628.98249  -7525301.35646  22579066.958    22579075.079
  21736044.089   -16460458.66749 -12805184.68746  21736043.600    21736049.708
 03  4  2  1 13 30.0000000  0  8G14G17G31G 9G 3G15G23G18
  20481836.200   -20244475.38649 -15122724.85447  20481835.590    20481841.595
  23213462.349     6999822.90749   5363571.09145  23213461.516    23213472.183
  22428305.172   -13000560.26249 -10100776.61346  22428304.399    22428312.780
  23478205.265     -558441.46849   -427080.36346  23478204.967    23478214.801
  21835776.794   -19860048.17949 -15154051.83147  21835776.396    21835784.106
  20779403.250   -23420267.67249  10266412.13146  20779402.579    20779410.901
  22589560.301   -10451487.90949  -7482334.30646  22589559.704    22589568.031
  21746492.808   -16405550.63449 -12762399.25146  21746492.247    21746498.414
 03  4  2  1 14  0.0000000  0  8G14G17G31G 9G 3G15G23G18
  20474384.723   -20283632.91349 -15153237.16947  20474384.109    20474390.077
  23230017.545     7086820.59749   5431361.43945  23230016.734    23230027.727
  22424898.677   -13018460.12949 -10114724.57046  22424897.976    22424906.568
  23480922.925     -544159.84449   -415951.81146  23480922.606    23480932.488
  21841827.951   -19828249.42749 -15129273.58647  21841827.518    21841835.164
  20788600.425   -23371937.13349  10304072.26746  20788599.691    20788607.734
  22600062.430   -10396297.62249  -7439328.94746  22600061.793    22600070.499
  21756966.237   -16350512.19049 -12719512.17146  21756965.706    21756971.953
 03  4  2  1 14 30.0000000  0  8G14G17G31G 9G 3G15G23G18
  20467033.299   -20322264.80149 -15183339.88547  20467032.658    20467038.690
  23246623.923     7174086.66749   5499360.80445  23246623.117    23246634.414
  22421601.685   -13035785.99049 -10128225.20446  22421601.008    22421609.711
  23483752.933     -529288.62849   -404363.78746  23483752.546    23483762.317
  21847975.567   -19795942.22849 -15104099.17047  21847975.281    21847982.903
  20797875.669   -23323196.02749  10342052.36646  20797875.020    20797882.855
  22610573.451   -10341062.26449  -7396288.44046  22610572.716    22610581.555
  21767463.820   -16295347.52149 -12676526.73046  21767463.239    21767469.524
 03  4  2  1 15  0.0000000  0  8G14G17G31G 9G 3G15G23G18
  20459782.628   -20360366.34849 -15213029.35047  20459782.088    20459788.228
  23263281.720     7261623.70049   5567571.39545  23263281.014    23263291.896
  22418414.719   -13052533.38949 -10141275.08246  22418414.094    22418422.885
  23486695.691     -513823.24549   -392312.79246  23486695.389    23486705.113
  21854220.801   -19763124.27549 -15078526.76847  21854220.408    21854227.818
  20807230.001   -23274040.13349  10380355.64246  20807229.295    20807236.967
  22621093.928   -10285778.02449  -7353209.84746  22621093.093    22621101.889
  21777986.063   -16240052.89249 -12633440.02546  21777985.505    21777991.961
 03  4  2  1 15 30.0000000  0  8G14G17G31G 9G 3G15G23G18
  20452632.499   -20397940.30549 -15242307.72147  20452631.928    20452638.134
  23279990.464     7349428.23649   5635990.35745  23279989.858    23280000.405
  22415337.392   -13068705.44949 -10153876.65846  22415336.645    22415345.464
  23489750.832     -497767.29049   -379801.61446  23489750.614    23489760.304
  21860562.060   -19729800.37449 -15052560.10747  21860561.619    21860569.066
  20816661.975   -23224472.96449  10418979.38746  20816661.386    20816669.499
  22631622.870   -10230448.39249  -7310095.87946  22631622.024    22631630.844
  21788532.268   -16184632.48849 -12590255.31646  21788531.653    21788538.257
 03  4  2  1 16  0.0000000  0  8G14G17G31G 9G 3G15G23G18
  20445583.262   -20434983.90049 -15271172.82447  20445582.698    20445589.006
  23296749.969     7437501.19849   5704618.41244  23296749.815    23296758.489
  22412369.803   -13084299.66649 -10166028.00046  22412369.180    22412378.111
  23492918.949     -481118.20649   -366828.26846  23492918.801    23492928.465
  21866999.498   -19695970.01049 -15026198.78947  21866999.191    21867006.827
  20826173.074   -23174492.36149  10457925.30446  20826172.361    20826180.596
  22642160.895   -10175071.31849  -7266944.93446  22642160.008    22642168.784
  21799102.640   -16129084.83149 -12546971.45046  21799101.966    21799108.686
 03  4  2  1 16 30.0000000  0  8G14G17G31G 9G 3G15G23G18
  20438634.959   -20471497.27549 -15299624.77147  20438634.378    20438640.798
  23313560.617     7525840.84849   5773454.46844  23313560.040    23313568.444
  22409512.162   -13099316.28949 -10177729.25146  22409511.469    22409520.583
  23496199.992     -463876.58549   -353393.20646  23496199.819    23496209.598
  21873533.151   -19661635.30549 -14999444.48047  21873532.779    21873540.669
  20835762.656   -23124099.29249  10497192.58946  20835761.812    20835769.926
  22652707.801   -10119648.06449  -7223757.98546  22652706.927    22652715.545
  21809697.007   -16073410.86049 -12503589.16046  21809696.332    21809703.148
 03  4  2  1 17  0.0000000  0  8G14G17G31G 9G 3G15G23G18
  20431787.563   -20507480.01249 -15327663.22047  20431786.998    20431793.418
  23330421.946     7614446.80849   5842497.85244  23330421.495    23330430.371
  22406764.307   -13113755.27449 -10188980.36646  22406763.621    22406772.808
  23499593.633     -446042.68049   -339496.62046  23499593.380    23499603.373
  21880162.326   -19626798.19449 -14972298.70347  21880162.009    21880170.039
  20845430.832   -23073293.84549  10536781.25046  20845429.968    20845437.780
  22663263.215   -10064178.64749  -7180535.06546  22663262.350    22663271.157
  21820315.248   -16017611.19149 -12460108.92846  21820314.551    21820321.484
 03  4  2  1 17 30.0000000  0  8G14G17G31G 9G 3G15G23G18
  20425040.759   -20542933.95349 -15355289.64047  20425040.309    20425046.602
  23347333.407     7703315.26349   5911745.85545  23347332.827    23347341.471
  22404125.979   -13127618.71449 -10199783.01746  22404125.437    22404134.555
  23503099.701     -427618.75349   -325140.22346  23503099.353    23503109.286
  21886886.566   -19591462.73649 -14944764.59647  21886886.213    21886894.262
  20855176.958   -23022078.57949  10576689.27046  20855176.151    20855183.796
  22673826.768   -10008665.68449  -7137278.28046  22673826.076    22673834.879
  21830956.620   -15961688.62949 -12416532.91046  21830956.183    21830963.241
 03  4  2  1 18  0.0000000  0  8G14G17G31G 9G 3G15G23G18
  20418395.497   -20577855.26149 -15382501.01847  20418394.979    20418401.299
  23364294.678     7792448.76149   5981200.35345  23364294.225    23364304.326
  22401598.107   -13140903.15449 -10210134.51646  22401597.566    22401606.577
  23506718.721     -408601.41549   -310321.46846  23506718.457    23506727.923
  21893705.938   -19555627.22149 -14916840.86147  21893705.593    21893713.677
  20865001.640   -22970450.00449  10616919.25746  20865000.761    20865008.428
  22684399.709    -9953106.09749  -7093985.07946  22684398.947    22684407.363
  21841622.419   -15905640.44649 -12372859.03246  21841621.919    21841628.892
 03  4  2  1 18 30.0000000  0  8G14G17G31G 9G 3G15G23G18
  20411851.172   -20612246.24249 -15409299.14647  20411850.620    20411857.024
  23381306.021     7881843.86349   6050858.86945  23381305.479    23381315.723
  22399179.982   -13153611.15749 -10220036.85346  22399179.450    22399188.477
  23510450.084     -388993.74349   -295042.71645  23510449.655    23510459.039
  21900619.670   -19519295.99749 -14888530.82347  21900619.297    21900627.358
  20874904.276   -22918411.46549  10657468.69646  20874903.295    20874910.978
  22694980.491    -9897502.90249  -7050657.91546  22694979.922    22694988.210
  21852311.347   -15849469.88249 -12329089.79046  21852310.800    21852317.790
 03  4  2  1 19  0.0000000  0  8G14G17G31G 9G 3G15G23G18
  20405408.303   -20646103.64249 -15435681.50247  20405407.740    20405414.116
  23398367.507     7971502.68849   6120722.68345  23398367.007    23398378.008
  22396872.107   -13165739.84749 -10229487.75646  22396871.568    22396880.515
  23514293.989     -368792.89649   -279301.70245  23514293.594    23514302.949
  21907627.908   -19482467.94249 -14859833.66847  21907627.565    21907635.628
  20884885.117   -22865960.38449  10698339.67746  20884884.276    20884891.895
  22705570.216    -9841853.29349  -7007294.59446  22705569.691    22705578.072
  21863023.874   -15793174.48249 -12285223.26246  21863023.354    21863030.337
 03  4  2  1 19 30.0000000  0  8G14G17G31G 9G 3G15G23G18
  20399066.631   -20679429.31849 -15461649.52747  20399066.011    20399072.378
  23415478.671     8061421.88149   6190789.53245  23415478.201    23415489.263
  22394673.990   -13177291.38049 -10238488.93446  22394673.460    22394682.192
  23518250.107     -348001.07149   -263100.25945  23518249.934    23518259.588
  21914729.873   -19445147.29149 -14830752.66747  21914729.439    21914737.515
  20894944.162   -22813099.05249  10739530.30146  20894943.392    20894951.085
  22716168.312    -9786159.92849  -6963897.21246  22716167.834    22716176.169
  21873759.788   -15736757.22249 -12241261.77646  21873759.241    21873766.189
 03  4  2  1 20  0.0000000  0  8G14G17G31G 9G 3G15G23G18
  20392826.151   -20712222.92549 -15487202.93147  20392825.521    20392831.862
  23432639.261     8151600.29949   6261058.26645  23432638.801    23432650.214
  22392585.587   -13188265.77849 -10247040.41846  22392585.116    22392593.822
  23522319.158     -326618.66349   -246438.56445  23522318.768    23522328.489
  21921925.067   -19407335.74549 -14801289.17347  21921924.717    21921932.769
  20905081.124   -22759827.78749  10781040.35146  20905080.434    20905088.417
  22726775.032    -9730423.08349  -6920465.92646  22726774.421    22726782.454
  21884518.567   -15680218.77949 -12197205.83646  21884518.124    21884525.039
 03  4  2  1 20 30.0000000  0  8G14G17G31G 9G 3G15G23G18
  20386687.055   -20744483.62849 -15512341.11447  20386686.491    20386692.905
  23449849.196     8242037.21649   6331528.56545  23449848.449    23449859.453
  22390607.258   -13198662.48349 -10255141.74246  22390606.745    22390615.408
  23526500.638     -304645.42749   -229316.49645  23526500.203    23526509.585
  21929213.646   -19369034.52849 -14771444.09947  21929213.232    21929221.294
  20915296.427   -22706146.25649  10822870.11646  20915295.722    20915303.800
  22737389.804    -9674642.32649  -6877000.37946  22737389.243    22737397.051
  21895300.740   -15623558.89449 -12153055.29046  21895300.239    21895306.878
 03  4  2  1 21  0.0000000  0  8G14G17G31G 9G 3G15G23G18
  20380649.534   -20776210.72649 -15537063.48147  20380649.010    20380655.506
  23467107.565     8332732.61849   6402200.15645  23467107.059    23467118.340
  22388739.029   -13208481.05949 -10262792.58546  22388738.468    22388746.891
  23530794.115     -282081.11149   -211733.89145  23530793.592
  21936595.070   -19330244.92149 -14741218.44847  21936594.651    21936602.931
  20925590.027   -22652054.46149  10865019.52346  20925589.146    20925597.188
  22748012.974    -9618817.45549  -6833500.46846  22748012.409    22748020.040
  21906105.929   -15566777.93549 -12108810.35546  21906105.270    21906111.822
 03  4  2  1 21 30.0000000  0  8G14G17G31G 9G 3G15G23G18
  20374713.828   -20807403.08649 -15561369.19447  20374713.310    20374719.792
  23484415.894     8423685.82448   6473072.70845  23484415.217    23484426.044
  22386980.799   -13217720.70449 -10269992.29746  22386980.226    22386988.530
  23535199.963     -258924.87849   -193690.05145  23535199.801    23535209.359
  21944069.344   -19290967.92949 -14710613.02947  21944068.877    21944077.183
  20935961.406   -22597551.88449  10907489.05546  20935960.606    20935968.697
  22758644.880    -9562947.80049  -6789965.68945  22758644.218    22758651.623
  21916933.834   -15509875.47549 -12064470.80746  21916933.263    21916939.850
 03  4  2  1 22  0.0000000  0  8G14G17G31G 9G 3G15G23G18
  20368879.128   -20838064.59349 -15585261.24147  20368878.639    20368884.982
  23501772.824     8514891.95248   6544142.28745  23501772.406    23501781.932
  22385332.032   -13226385.58149 -10276744.14946  22385331.487    22385339.650
  23539717.897     -235181.45549   -175188.66745  23539717.823    23539727.576
  21951634.983   -19251209.74749 -14679632.66447  21951634.580    21951643.015
  20946410.343   -22542642.69849  10950275.41346  20946409.512    20946417.577
  22769284.401    -9507037.72649  -6746399.40445  22769283.592    22769291.002
  21927784.298   -15452855.93249 -12020039.99946  21927783.751    21927790.367
 03  4  2  1 22 30.0000000  0  8G14G17G31G 9G 3G15G23G18
  20363146.069   -20868192.46849 -15608737.46347  20363145.498    20363151.637
  23519178.202     8606352.77658   6615410.32544  23519177.649    23519187.096
  22383793.015   -13234473.41749 -10283046.32846  22383792.353    22383800.687
  23544348.529     -210848.44649   -156227.88645  23544348.476    23544358.416
  21959292.274   -19210969.96249 -14648277.03947  21959291.879    21959300.574
  20956936.980   -22487325.07549  10993380.02746  20956936.095    20956944.195
  22779931.740    -9451085.02449  -6702799.90546  22779930.982    22779938.468
  21938657.387   -15395717.53349 -11975516.53446  21938656.923    21938663.760
 03  4  2  1 23  0.0000000  0  7G14G31G 9G 3G15G23G18
  20357514.904   -20897784.18049 -15631795.89747  20357514.376    20357520.297
  22382364.054   -13241982.02849 -10288897.19746  22382363.412    22382372.038
  23549091.760     -185924.00549   -136806.22845  23549091.633    23549101.392
  21967041.200   -19170248.17349 -14616545.76047  21967040.894    21967049.817
  20967541.533   -22431597.27349  11036804.28146  20967540.694    20967548.788
  22790587.654    -9395087.61449  -6659165.58146  22790586.905    22790594.476
  21949553.567   -15338458.61849 -11930899.22846  21949553.031    21949559.956
 03  4  2  1 23 30.0000000  0  7G14G31G 9G 3G15G23G18
  20351985.655   -20926841.13849 -15654437.62947  20351985.104    20351990.879
  22381045.120   -13248913.14049 -10294298.04446  22381044.515    22381053.153
  23553947.212     -160410.27449   -116925.38045  23553947.051    23553956.549
  21974881.616   -19129047.55649 -14584441.47847  21974881.256    21974890.125
  20978224.002   -22375460.95849  11080546.84146  20978223.138    20978231.110
  22801251.677    -9339047.23549  -6615497.78546  22801251.032    22801258.680
  21960471.943   -15281081.14149 -11886189.50346  21960471.582    21960478.608
 03  4  2  1 24  0.0000000  0  7G14G31G 9G 3G15G23G18
  20346558.032   -20955363.79649 -15676663.03047  20346557.431    20346563.209
  22379835.768   -13255267.44749 -10299249.42446  22379835.123    22379843.806
  23558914.548     -134308.01649    -96585.94245  23558914.353    23558923.712
  21982812.705   -19087370.53049 -14551965.86747  21982812.216    21982820.946
  20988984.029   -22318916.90749  11124607.11446  20988983.209    20988991.026
  22811923.996    -9282964.50349  -6571796.98246  22811923.304    22811930.942
  21971413.064   -15223586.06749 -11841388.20646  21971412.558    21971419.569
 03  4  2  1 24 30.0000000  0  7G14G31G 9G 3G15G23G18
  20341232.167   -20983351.30649 -15698471.43847  20341231.578    20341237.316
  22378736.201   -13261044.69849 -10303751.19446  22378735.614    22378744.224
  23563993.763     -107617.18749    -75787.86445  23563993.556    23564002.604
  21990833.783   -19045218.97249 -14519120.56247  21990833.274    21990842.104
  20999821.670   -22261965.24049  11168985.01046  20999820.757    20999828.529
  22822604.328    -9226839.31549  -6528063.10946  22822603.630    22822611.272
  21982376.304   -15165973.33849 -11796495.19246  21982375.828    21982382.854
 03  4  2  1 25  0.0000000  0  7G14G31G 9G 3G15G23G18
  20336007.897   -21010804.67649 -15719863.61747  20336007.266    20336013.091
  22377746.312   -13266245.99049 -10307804.16246  22377745.779    22377754.229
  23569184.595      -80339.03049    -54532.11745  23569184.304    23569193.335
  21998944.503   -19002595.73549 -14485907.67847  21998944.108    21998953.047
  21010736.336   -22204607.26249  11213679.49646  21010735.600    21010743.313
  22833292.583    -9170672.60149  -6484296.88046  22833291.911    22833299.686
  21993361.628   -15108244.44749 -11751511.69746  21993361.153    21993368.352
 03  4  2  1 25 30.0000000  0  7G14G31G 9G 3G15G23G18
  20330885.438   -21037722.35849 -15740838.39447  20330884.862    20330890.857
  22376866.324   -13270870.25749 -10311407.44746  22376865.817    22376874.304
  23574487.347      -52472.89949    -32818.28345  23574487.002    23574496.098
  22007145.104   -18959501.36149 -14452327.69447  22007144.681    22007153.647
  21021728.966   -22146842.15049  11258691.25746  21021728.110    21021735.543
  22843988.665    -9114463.40049  -6440497.50146  22843988.076    22843996.137
  22004369.231   -15050398.26449 -11706436.81746  22004368.763    22004376.111
 03  4  2  1 26  0.0000000  0  7G14G31G 9G 3G15G23G18
  20325864.517   -21064107.10949 -15761397.90047  20325864.007    20325869.916
  22376095.652   -13274920.68749 -10314563.64846  22376095.042    22376103.537
  23579901.270      -24022.17649    -10648.85745  23579901.024    23579910.048
  22015434.461   -18915940.86449 -14418384.50947  22015434.042    22015442.952
  21032798.228   -22088673.06649  11304017.79846  21032797.368    21032804.828
  22854692.698    -9058214.43249  -6396667.16246  22854691.976    22854700.003
  22015398.876   -14992438.54549 -11661273.44446  22015398.167    22015405.285
 03  4  2  1 26 30.0000000  0  7G14G31G 9G 3G15G23G18
  20320946.074   -21089954.46749 -15781538.65847  20320945.502    20320951.241
  22375434.953   -13278392.87449 -10317269.25346  22375434.349    22375442.736
  23585427.166        5016.94949     11979.04145  23585426.849    23585436.272
  22023813.106   -18871911.56849 -14384075.97947  22023812.672    22023821.535
  21043945.095   -22030095.76349  11349662.41446  21043944.340    21043951.875
  22865404.900    -9001921.42449  -6352802.53346  22865404.170    22865412.183
  22026450.761   -14934360.93249 -11616018.19446  22026450.086    22026457.055
 03  4  2  1 27  0.0000000  0  8G14G17G31G 9G 3G15G23G18
  20316129.102   -21115268.21549 -15801263.64947  20316128.477    20316134.133
                   -135380.46949   -114416.06943
  22374883.545   -13281291.15649 -10319527.60446  22374882.901    22374890.956
  23591064.680       34640.21449     35062.10045  23591064.255    23591073.400
  22032279.640   -18827419.38449 -14349406.77747  22032279.220    22032288.241
  21055169.007   -21971114.84549  11395621.52146  21055168.170    21055175.703
  22876124.589    -8945588.45449  -6308906.70745  22876123.819    22876131.847
  22037524.263   -14876169.79949 -11570674.50346  22037523.630    22037530.329
 03  4  2  1 27 30.0000000  0  8G14G17G31G 9G 3G15G23G18
  20311413.991   -21140045.95849 -15820570.93847  20311413.401    20311419.024
                    -41431.26349    -41208.36943
  22374441.670   -13283613.63249 -10321337.32846  22374441.007    22374448.847
  23596813.414       64849.64349     58601.94945  23596813.036    23596822.226
  22040834.173   -18782464.61849 -14314377.10647  22040833.838    22040842.716
  21066469.721   -21911728.64349  11441896.49346  21066468.967    21066476.523
  22886852.264    -8889213.25249  -6264978.04845  22886851.523    22886859.759
  22048619.499   -14817863.49249 -11525241.04446  22048618.979    22048625.576
 03  4  2  1 28  0.0000000  0  8G14G17G31G 9G 3G15G23G18
  20306800.871   -21164288.19349 -15839460.95447  20306800.245    20306805.931
                     52760.72449     32187.76543
  22374109.051   -13285361.16749 -10322699.04546  22374108.398    22374116.108
  23602673.350       95643.54249     82597.12945  23602672.840    23602681.830
  22049476.318   -18737049.41849 -14278988.69147  22049476.045    22049484.886
  21077847.498   -21851937.83349  11488486.77346  21077846.631    21077854.266
  22897587.820    -8832796.72649  -6221017.14645  22897587.081    22897595.366
  22059736.773   -14759442.93149 -11479718.58146  22059736.152    22059742.703
 03  4  2  1 28 30.0000000  0  8G14G17G31G 9G 3G15G23G18
  20302289.388   -21187995.29949 -15857934.00947  20302288.848    20302294.639
  23731738.107      147193.88949    105771.91145  23731738.619    23731748.244
  22373885.660   -13286534.52549 -10323613.34946  22373885.062    22373892.773
  23608644.065      127021.08249    107047.18645  23608643.955    23608652.791
  22058205.945   -18691176.02149 -14243243.24647  22058205.652    22058214.263
  21089301.611   -21791743.27249  11535391.64246  21089300.991    21089308.977
  22908331.241    -8776339.16149  -6177024.27545  22908330.513    22908338.714
  22070875.490   -14700908.92549 -11434107.72446  22070874.881    22070881.386
 03  4  2  1 29  0.0000000  0  8G14G17G31G 9G 3G15G23G18
  20297879.768   -21211168.00049 -15875990.64447  20297879.231    20297884.995
  23749752.658      241866.78649    179542.90645  23749752.129    23749764.621
  22373771.471   -13287134.74449 -10324081.02646  22373770.870    22373778.466
  23614725.879      158981.19249    131951.22045  23614725.766    23614734.324
  22067022.189   -18644847.22449 -14207142.88847  22067021.808    22067030.261
  21100832.949   -21731146.19649  11582610.04946  21100832.248    21100840.252
  22919082.404    -8719841.31549  -6133000.05545  22919081.709    22919089.839
  22082035.840   -14642262.33249 -11388409.05246  22082035.106    22082041.454
 03  4  2  1 29 30.0000000  0  8G14G17G31G 9G 3G15G23G18
  20293571.694   -21233806.75049 -15893631.18647  20293571.123    20293576.868
  23767814.211      336777.70849    253499.33945  23767813.795    23767826.565
  22373766.047   -13287162.68049 -10324102.80746  22373765.475    22373773.133
  23620918.238      191522.74849    157308.34244  23620918.097    23620926.214
  22075924.314   -18598065.97649 -14170690.03347  22075923.976    22075932.455
  21112440.569   -21670147.64949  11630141.38646  21112439.792    21112448.003
  22929840.998    -8663303.91049  -6088944.88645  22929840.342    22929848.694
  22093217.205   -14583503.88749 -11342623.33146  22093216.574    22093222.742
 03  4  2  1 30  0.0000000  0  8G14G17G31G 9G 3G15G23G18
  20289365.638   -21255909.76349 -15910854.26047  20289365.045    20289370.718
  23785920.590      431927.21349    327641.62445  23785920.369    23785932.184
  22373869.900   -13286617.01349 -10323677.60746  22373869.372    22373876.843
  23627221.420      224646.84849    183119.29744  23627221.186    23627229.146
  22084912.654   -18550832.45949 -14133884.75447  22084912.283    22084920.699
  21124124.883   -21608746.32549  11677986.55246  21124124.063    21124132.468
  22940607.524    -8606725.04249  -6044857.53545  22940606.898    22940615.310
  22104420.103   -14524632.53149 -11296749.55346  22104419.399    22104425.695
 03  4  2  1 30 30.0000000  0  8G14G17G31G 9G 3G15G23G18
  20285260.954   -21277479.95849 -15927662.17347  20285260.337    20285265.985
  23804072.177      527311.19149    401966.70945  23804071.974    23804082.892
  22374082.350   -13285500.98749 -10322807.95146  22374081.775    22374089.101
  23633634.855      258349.94149    209381.50144  23633634.118
  22093986.089   -18503151.62649 -14096730.88247  22093985.682    22093993.994
  21135885.380   -21546945.20949  11726143.25446  21135884.541    21135892.798
  22951381.631    -8550107.37849  -6000739.91545  22951381.009    22951389.103
  22115643.711   -14465651.17349 -11250790.06646  22115643.109    22115649.557
 03  4  2  1 31  0.0000000  0  8G14G17G31G 9G 3G15G23G18
  20281257.987   -21298515.09949 -15944053.18347  20281257.438    20281263.069
  23822268.073      622930.90849    476475.40745  23822267.497    23822279.308
  22374403.532   -13283812.67449 -10321492.34346  22374402.903    22374410.300
  23640158.680      292633.49449    236096.00444  23640157.552    23640164.593
  22103144.444   -18455023.20349 -14059228.30247  22103144.202    22103152.560
  21147722.445   -21484742.74749  11774612.66946  21147721.547    21147729.546
  22962163.433    -8493448.67649  -5956590.27945  22962162.895    22962170.773
  22126888.748   -14406558.01649 -11204743.46346  22126888.194    22126894.766
 03  4  2  1 31 30.0000000  0  8G14G17G31G 9G 3G15G23G18
  20277356.966   -21319015.06849 -15960027.14547  20277356.438    20277362.054
  23840508.943      718785.84249    551167.45345  23840508.262    23840520.084
  22374833.529   -13281552.39149 -10319731.06546  22374833.025    22374840.455
  23646793.196      327496.92249    263262.34144  23646791.946    23646799.532
  22112387.916   -18406449.13149 -14021378.42847  22112387.632    22112396.127
  21159635.416   -21422139.34649  11823394.55046  21159634.560    21159642.619
  22972953.100    -8436748.74449  -5912408.54245  22972952.694
  22138155.380   -14347352.91749 -11158609.61546  22138154.714    22138161.226
 03  4  2  1 32  0.0000000  0  8G14G17G31G 9G 3G15G23G18
  20273557.573   -21338981.82949 -15975585.58547  20273557.008    20273562.425
  23858793.127      814872.46649    626039.94445  23858792.570    23858805.088
  22375372.135   -13278722.76249 -10317526.15846  22375371.463    22375379.117
  23653537.254      362937.53949    290878.38344  23653535.768    23653544.355
  22121715.442   -18357433.59649 -13983184.53447  22121715.085    22121723.645
  21171624.234   -21359137.51849  11872486.85246  21171623.410    21171631.652
  22983750.330    -8380009.49749  -5868196.15445  22983749.901    22983757.860
  22149442.645   -14288038.31649 -11112390.44446  22149441.950    22149448.410
 03  4  2  1 32 30.0000000  0  8G14G17G31G 9G 3G15G23G18
  20269859.786   -21358413.80749 -15990727.33947  20269859.199    20269864.581
  23877122.378      911191.57849    701093.66845  23877121.663    23877133.950
  22376019.035   -13275322.44849 -10314876.56046  22376018.415    22376026.210
  23660391.499      398956.52549    318945.19544  23660389.982    23660398.708
  22131126.818   -18307976.87349 -13944646.85947  22131126.440    22131135.159
  21183689.205   -21295735.66949  11921890.91346  21183688.348    21183696.640
  22994555.414    -8323229.34049  -5823951.92545  22994554.850    22994562.775
  22160750.942   -14228612.88749 -11066084.96446  22160750.222    22160756.701
 03  4  2  1 33  0.0000000  0  8G14G17G31G 9G 3G15G23G18
  20266263.231   -21377312.77449 -16005453.76747  20266262.679    20266268.277
  23895495.091     1007740.04649    776326.11345  23895494.463    23895505.929
  22376774.124   -13271353.70449 -10311784.01346  22376773.593    22376781.340
  23667355.627      435551.21749    347460.51544  23667354.191    23667362.776
  22140621.193   -18258082.84749 -13905768.43647  22140620.897    22140629.767
  21195829.957   -21231936.21649  11971604.70346  21195829.132    21195837.022
  23005367.764    -8266409.94149  -5779677.08745  23005367.245    23005375.063
  22172079.894   -14169078.67149 -11019694.68846  22172079.239    22172085.683
 03  4  2  1 33 30.0000000  0  8G14G17G31G 9G 3G15G23G18
  20262768.117   -21395678.77849 -16019764.89047  20262767.608    20262773.351
  23913911.128     1104517.31549    851736.86844  23913910.627    23913921.959
  22377637.297   -13266816.95249 -10308248.87846  22377636.825    22377644.595
  23674428.549      472721.15048    376424.13944  23674427.175    23674435.911
  22150198.597   -18207753.59549 -13866550.90047  22150198.316    22150207.145
  21208046.418   -21167739.55549  12021628.03746  21208045.585    21208053.023
  23016187.920    -8209551.15649  -5735371.55845  23016187.355    23016194.943
  22183429.488   -14109435.70949 -10973219.63746  22183428.882    22183435.456
 03  4  2  1 34  0.0000000  0  8G14G17G31G 9G 3G15G23G18
  20259375.074   -21413509.13849 -16033658.64747  20259374.547    20259380.297
  23932370.489     1201524.60849    927326.78144  23932370.374    23932382.212
  22378609.119   -13261710.07449 -10304269.47646  22378608.621    22378616.324
  23681610.816      510468.35449    405837.55244  23681609.923    23681619.225
  22159859.049   -18156988.61049 -13826993.82047  22159858.749    22159867.389
  21220338.828   -21103143.53949  12071962.53846  21220337.946    21220345.259
  23027015.868    -8152650.25249  -5691033.20845  23027015.299    23027022.804
  22194799.975   -14049681.47449 -10926657.91646  22194799.550    22194806.407
 03  4  2  1 34 30.0000000  0  8G14G17G31G 9G 3G15G23G18
  20256082.956   -21430809.07949 -16047139.07347  20256082.436    20256088.221
  23950873.760     1298755.81149   1003091.29545  23950873.036    23950884.116
  22379688.368   -13256038.72849 -10299850.22346  22379687.844    22379695.496
  23688902.789      548786.46549    435695.85245  23688902.073    23688910.992
  22169601.089   -18105795.09949 -13787102.81847  22169600.744    22169609.273
  21232705.873   -21038153.78249  12122603.87046  21232704.985    21232712.598
  23037850.893    -8095712.00249  -5646665.76245  23037850.258    23037858.010
  22206190.961   -13989821.33549 -10880013.68046  22206190.554    22206197.415
 03  4  2  1 35  0.0000000  0  8G14G17G31G 9G 3G15G23G18
  20252892.253   -21447576.53049 -16060204.58947  20252891.675    20252897.456
  23969419.592     1396211.99449   1079031.04045  23969418.895    23969430.223
  22380875.488   -13249800.98049 -10294989.62346  22380874.942    22380882.656
  23696303.558      587677.25948    466000.35844  23696302.741    23696311.798
  22179424.625   -18054173.02549 -13746877.86247  22179424.214    22179432.698
  21245148.028   -20972768.24449  12173553.61146  21245147.192    21245155.149
  23048693.548    -8038734.10849  -5602267.44945  23048692.892    23048700.612
  22217602.769   -13929853.08549 -10833285.17346  22217602.273    22217609.006
 03  4  2  1 35 30.0000000  0  8G14G17G31G 9G 3G15G23G18
  20249802.841   -21463811.21449 -16072854.97547  20249802.323    20249808.047
  23988007.369     1493892.88049   1155145.85245  23988006.808    23988018.381
  22382170.159   -13242997.25349 -10289688.00446  22382169.587    22382177.392
  23703812.904      627140.16749    496750.68344  23703812.133    23703821.380
  22189329.048   -18002124.12949 -13706320.30547  22189328.677    22189337.436
  21257665.394   -20906987.23949  12224811.53346  21257664.695    21257672.844
  23059543.917    -7981715.99449  -5557837.76945  23059543.100    23059550.827
  22229035.030   -13869776.71149 -10786472.44446  22229034.450    22229041.037
 03  4  2  1 36  0.0000000  0  8G14G17G31G 9G 3G15G23G18
  20246815.025   -21479512.27949 -16085089.52747  20246814.462    20246820.202
  24006638.772     1591798.14149   1231435.60645  24006637.970    24006649.664
  22383572.489   -13235627.16949 -10283945.06146  22383571.956    22383579.752
  23711430.782      667175.47148    527947.00545  23711430.138    23711440.016
  22199314.636   -17949649.28749 -13665430.88347  22199314.294    22199323.258
  21270258.721   -20840810.43749  12276377.80946  21270257.846    21270265.661
  23070401.847    -7924656.58549  -5513375.91045  23070401.084    23070408.998
  22240487.853   -13809591.23849 -10739574.64846  22240487.172    22240493.933
 03  4  2  1 36 30.0000000  0  8G14G17G31G 9G 3G15G23G18
  20243928.164   -21494682.48649 -16096910.45747  20243927.660    20243933.388
  24025311.208     1689923.73648   1307896.93445  24025310.143    24025322.785
  22385081.989   -13227693.84449 -10277763.23946  22385081.451    22385089.335
  23719157.271      707779.36849    559586.38545  23719156.760    23719166.775
  22209380.409   -17896753.64549 -13624213.54747  22209380.106    22209389.061
  21282926.642   -20774241.02849  12328250.02946  21282925.737    21282933.216
  23081267.150    -7867558.44449  -5468883.86145  23081266.342    23081274.577
  22251960.297   -13749299.86549 -10692594.34746  22251959.918    22251967.043
 03  4  2  1 37  0.0000000  0  8G14G17G31G 9G 3G15G23G18
  20241142.694   -21509320.80049 -16108316.90647  20241142.129    20241147.746
  24044025.992     1788270.32949   1384530.63445  24044024.859    24044037.084
  22386698.797   -13219196.60849 -10271142.03846  22386698.311    22386706.369
  23726992.241      748952.70549    591669.47645  23726991.625    23727001.784
  22219526.298   -17843437.68749 -13582668.68847  22219525.932    22219534.774
  21295669.295   -20707278.08249  12380428.89846  21295668.466    21295675.890
  23092140.283    -7810419.82649  -5424360.28345  23092139.544    23092147.902
  22263454.154   -13688900.68949 -10645530.06846  22263453.561    22263460.664
 03  4  2  1 37 30.0000000  0  8G14G17G31G 9G 3G15G23G18
  20238458.128   -21523428.11949 -16119309.59647  20238457.558    20238463.185
  24062781.868     1886835.72049   1461334.63845  24062781.122    24062793.635
  22388422.766   -13210136.95949 -10264082.56146  22388422.278    22388430.605
  23734935.277      790693.43648    624194.75744  23734934.648    23734944.381
  22229751.581   -17789704.63849 -13540798.83747  22229751.143    22229759.757
  21308486.467   -20639923.12749  12432913.27546  21308485.613    21308493.345
  23103021.171    -7753241.36149  -5379805.63345  23103020.293    23103028.774
  22274968.070   -13628394.85349 -10598382.66446  22274967.591    22274974.526
 03  4  2  1 38  0.0000000  0  8G14G17G31G 9G 3G15G23G18
  20235874.245   -21537005.95749 -16129889.73547  20235873.726    20235879.412
  24081580.027     1985617.30649   1538307.21245  24081579.219    24081590.992
  22390253.094   -13200516.98949 -10256586.48846  22390252.582    22390261.328
  23742986.082      832999.42949    657160.49444  23742985.193    23742995.109
  22240055.395   -17735558.21049 -13498606.83447  22240054.940    22240063.546
  21321377.800   -20572178.04549  12485701.64346  21321376.987    21321384.859
  23113908.852    -7696024.45149  -5335220.97445  23113908.065    23113916.891
  22286502.090   -13567784.22049 -10551153.59545  22286501.376    22286508.382
 03  4  2  1 38 30.0000000  0  8G14G17G31G 9G 3G15G23G18
  20233391.202   -21550054.06549 -16140057.06947  20233390.685    20233396.450
  24100418.662     2084615.15849   1615448.25145  24100418.116    24100429.867
  22392190.209   -13190336.49149 -10248653.60646  22392189.849    22392198.724
  23751144.695      875870.61248    690566.59344  23751143.516    23751153.297
  22250437.324   -17680999.39549 -13456093.52347  22250437.023    22250445.784
  21334343.638   -20504042.53049  12538794.22346  21334342.732    21334350.680
  23124804.820    -7638767.72749  -5290605.38645  23124803.791    23124812.476
  22298055.963   -13507068.09449 -10503842.33245  22298055.288    22298062.385
 03  4  2  1 39  0.0000000  0  8G14G17G31G 9G 3G15G23G18
  20231008.979   -21562572.69949 -16149811.82847  20231008.405    20231014.188
  24119298.611     2183827.81149   1692756.74845  24119297.938    24119309.203
  22394234.186   -13179596.74249 -10240284.96746  22394233.725    22394242.531
  23759409.365      919305.43648    724411.88944  23759409.012    23759418.372
  22260897.333   -17626031.14249 -13413261.18847  22260896.982    22260905.948
  21347383.593   -20435517.51849  12592190.32346  21347382.605    21347390.726
  23135707.674    -7581471.70049  -5245959.15245  23135706.834    23135715.616
  22309629.779   -13446246.82549 -10456449.17745  22309629.145    22309636.265
 03  4  2  1 39 30.0000000  0  8G14G17G31G 9G 3G15G23G18
  20228727.391   -21574562.11949 -16159154.20547  20228726.834    20228732.592
  24138218.894     2283253.71949   1770231.34945  24138218.228    24138229.672
  22396384.302   -13168298.16849 -10231480.87146  22396383.786    22396392.732
  23767781.264      963303.10649    758695.77644  23767780.969
  22271434.908   -17570655.34649 -13370111.26647  22271434.586    22271443.725
  21360497.467   -20366603.18649  12645889.78146  21360496.585    21360504.811
  23146617.858    -7524135.80949  -5201281.82845  23146617.240    23146626.389
  22321223.849   -13385319.97649 -10408973.73345  22321223.189    22321230.252
 03  4  2  1 40  0.0000000  0  8G14G17G31G 9G 3G15G23G18
  20226546.629   -21586022.12949 -16168084.07647  20226546.103    20226551.804
  24157179.541     2382892.59449   1847871.87445  24157178.804    24157190.592
  22398640.682   -13156441.19449 -10222241.67546  22398640.154    22398649.041
  23776261.305     1007862.94148    793417.80444  23776260.626    23776270.364
  22282050.152   -17514873.80249 -13326645.16847  22282049.678    22282058.544
  21373685.672   -20297300.03049  12699892.19346  21373684.736    21373692.852
  23157535.985    -7466759.62248  -5156573.06944  23157535.671    23157544.470
  22332837.756   -13324287.57949 -10361416.03145  22332837.219    22332844.277
 03  4  2  1 40 30.0000000  0  9G14G25G17G31G 9G 3G15G23G18
  20224465.446   -21596958.60649 -16176605.98747  20224464.904    20224470.632
  24532952.327    -5364341.88649  -3899911.86745  24532952.042    24532968.310
  24176179.265     2482737.86349   1925673.34145  24176178.480    24176190.125
  22401002.205   -13144032.10049 -10212572.23946  22401001.609    22401010.518
  23784846.032     1052979.83048    828574.09244  23784846.014
  22292740.655   -17458694.52849 -13282869.13546  22292740.237    22292749.006
  21386946.325   -20227614.15949  12754192.86246  21386945.516    21386953.622
  23168461.335    -7409347.22048  -5111836.06544                  23168460.012
  22344470.511   -13263155.50249 -10313780.64945  22344469.996    22344477.256
 03  4  2  1 41  0.0000000  0  8G14G25G17G31G 9G 3G15G18
  20222483.855   -21607371.85049 -16184720.17347  20222483.306    20222488.987
  24514295.023    -5462384.25949  -3976308.17645  24514294.738    24514310.926
  24195218.168     2582787.99349   2003634.35045  24195217.679    24195229.449
  22403468.678   -13131071.71849 -10202473.24846  22403468.061    22403476.914
  23793536.347     1098650.24648    864161.46244  23793536.309    23793546.940
  22303506.426   -17402119.83249 -13238785.01246  22303506.024    22303514.712
  21400279.589   -20157545.80349  12808791.56646  21400278.896    21400287.104
  22356122.470   -13201923.15149 -10266067.12845  22356122.028    22356129.392
 03  4  2  1 41 30.0000000  0  8G14G25G17G31G 9G 3G15G18
  20220603.105   -21617255.23149 -16192421.50447  20220602.528    20220608.245
  24495628.333    -5560479.19149  -4052745.45845  24495627.950    24495643.518
  24214297.838     2683048.99749   2081759.72344  24214297.271    24214308.898
  22406041.136   -13117553.82749 -10191939.81046  22406040.422    22406049.231
  23802334.281     1144881.25349    900185.67944  23802334.005    23802344.338
  22314348.416   -17345144.65549 -13194388.81846  22314348.009    22314356.623
  21413687.061   -20087088.81349  12863693.08546  21413686.343    21413694.645
  22367795.112   -13140584.01349 -10218270.43046  22367794.618    22367801.949
 03  4  2  1 42  0.0000000  0  8G14G25G17G31G 9G 3G15G18
  20218822.551   -21626611.92849 -16199712.42247  20218822.001    20218827.763
  24476951.466    -5658626.43749  -4129223.45745  24476950.990    24476966.293
  24233416.583     2783516.81148   2160046.22744  24233415.745    24233427.797
  22408718.739   -13103482.25349 -10180974.90846  22408718.058    22408727.030
  23811238.166     1191669.01849    936643.68345  23811237.882    23811248.293
  22325265.528   -17287774.29349 -13149684.67346  22325265.200    22325273.662
  21427168.214   -20016246.98249  12918894.47546  21427167.390    21427175.429
  22379487.455   -13079141.09849 -10170392.87546  22379486.903    22379494.216
 03  4  2  1 42 30.0000000  0  8G14G25G17G31G 9G 3G15G18
  20217142.518   -21635440.75449 -16206591.99747  20217141.994    20217147.645
  24458265.270    -5756821.38549  -4205738.63245  24458264.756    24458279.940
  24252576.169     2884203.20647   2238502.88344  24252575.453    24252588.730
  22411502.125   -13088856.05749 -10169577.88147  22411501.490    22411510.409
  23820247.675     1239013.95048    973535.80645  23820247.466    23820257.712
  22336257.860   -17230009.16849 -13104672.94846  22336257.520    22336266.047
  21440722.506   -19945019.10049  12974396.66446  21440721.717    21440729.596
  22391199.703   -13017592.74049 -10122433.15246  22391199.175    22391206.461
 03  4  2  1 43  0.0000000  0  7G14G25G31G 9G 3G15G18
  20215562.711   -21643742.98249 -16213061.23747  20215562.157    20215567.822
  24439570.162    -5855062.89349  -4282290.06745  24439569.838    24439584.788
  22414390.764   -13073677.18049 -10157750.18447  22414390.071    22414398.980
  23829362.635     1286914.04049   1010860.54345  23829362.525    23829373.063
  22347324.774   -17171852.80649 -13059356.32446  22347324.399    22347332.906
  21454350.016   -19873406.83249  13030198.38746  21454349.173    21454356.990
  22402931.859   -12955940.09349 -10074392.12546  22402931.293    22402938.667
 03  4  2  1 43 30.0000000  0  8G14G25G31G 9G 3G15G23G18
  20214082.378   -21651521.69549 -16219122.55847  20214081.852    20214087.528
  24420866.502    -5953350.27049  -4358877.24145  24420866.117    24420880.988
  22417383.660   -13057949.19149 -10145494.61347  22417383.049    22417391.926
  23838582.869     1335365.45849   1048614.94245  23838582.724    23838592.573
  22358465.057   -17113310.20549 -13013738.74546  22358464.668    22358473.307
  21468050.108   -19801413.47249  13086297.05346  21468049.040    21468056.860
                  -1203625.63949   -946423.70143
  22414683.292   -12894185.42249 -10026271.66246  22414682.798    22414690.305
 03  4  2  1 44  0.0000000  0  8G14G25G31G 9G 3G15G23G18
  20212701.961   -21658775.95949 -16224775.22047  20212701.398    20212707.019
  24402154.684    -6051679.30949  -4435496.87045  24402154.411    24402169.152
  22420480.990   -13041671.68149 -10132810.84147  22420480.485    22420489.353
  23847908.250     1384368.38749   1086799.06945  23847907.627    23847917.515
  22369678.452   -17054382.16549 -12967820.81046  22369678.125    22369686.831
  21481822.271   -19729038.45949  13142693.15946  21481821.315    21481829.249
                  -1145932.94649   -901468.48943
  22426454.282   -12832327.64549  -9978070.77646  22426453.889    22426461.516
 03  4  2  1 44 30.0000000  0  8G14G25G31G 9G 3G15G23G18
  20211421.564   -21665504.63949 -16230018.32348  20211421.004    20211426.578
  24383435.704    -6150046.03649  -4512145.85645  24383435.480    24383449.956
  22423683.167   -13024844.00149 -10119698.35847  22423682.707    22423691.457
  23857338.401     1433923.17149   1125413.19245  23857337.807    23857347.575
  22380965.186   -16995069.22549 -12921602.98946  22380964.880    22380973.579
  21495667.554   -19656280.65949  13199387.47746  21495666.749    21495674.446
                  -1088197.60549   -856479.95544                  23256141.689
  22438245.390   -12770365.22249  -9929788.38346  22438245.006    22438252.499
 03  4  2  1 45  0.0000000  0  8G14G25G31G 9G 3G15G23G18
  20210240.249   -21671712.47049 -16234855.56747  20210239.662    20210245.257
  24364709.335    -6248451.73449  -4588825.18945  24364709.183    24364723.518
  22426989.280   -13007471.51849 -10106161.36747  22426988.789    22426997.257
  23866872.511     1484024.44648   1164453.16745  23866871.988    23866881.505
  22392324.131   -16935378.23649 -12875090.57346  22392323.836    22392332.304
  21509584.930   -19583145.15049  13256376.16346  21509584.204    21509591.660
  23267129.485    -1030423.82449   -811461.40144  23267128.902    23267139.637
  22450055.762   -12708302.38349  -9881427.73146  22450055.260    22450062.493
 03  4  2  1 45 30.0000000  0  8G14G25G31G 9G 3G15G23G18
  20209158.344   -21677397.82249 -16239285.67947  20209157.751    20209163.304
  24345976.563    -6346891.61349  -4665531.15145  24345976.652    24345990.186
  22430399.113   -12989553.01949 -10092198.94447  22430398.568    22430407.001
  23876510.175     1534672.78649   1203919.40845  23876509.797    23876519.271
  22403755.205   -16875309.34749 -12828283.70046  22403754.773    22403762.992
  21523574.561   -19509630.53149  13313660.23346  21523573.770    21523581.180
  23278131.552     -972609.09549   -766411.03944  23278130.985    23278138.576
  22461885.382   -12646137.30349  -9832987.43246  22461884.940    22461892.124
 03  4  2  1 46  0.0000000  0  8G14G25G31G 9G 3G15G23G18
  20208176.218   -21682558.43949 -16243306.92947  20208175.691    20208181.104
  24327238.582    -6445359.77149  -4742259.14145  24327238.713    24327252.148
  22433913.066   -12971086.85149 -10077809.75047  22433912.615    22433921.008
  23886252.496     1585869.48548   1243812.98245  23886252.291    23886261.489
  22415257.972   -16814862.20249 -12781182.06146  22415257.530    22415265.902
  21537636.658   -19435735.07849  13371241.09446  21537635.775    21537643.159
  23289141.422     -914750.37349   -721326.38944  23289139.795    23289148.429
  22473735.271   -12583866.97949  -9784465.14246  22473734.756    22473741.757
 03  4  2  1 46 30.0000000  0  8G14G25G31G 9G 3G15G23G18
  20207293.142   -21687199.35549 -16246923.20247  20207292.563    20207297.892
  24308494.543    -6543858.41848  -4819010.84045  24308494.462    24308508.232
  22437530.444   -12952078.69749 -10062998.22947  22437529.891    22437538.152
  23896098.332     1637608.98549   1284129.51344  23896097.985    23896107.210
  22426831.475   -16754043.97349 -12733791.29246  22426830.978    22426839.412
  21551769.991   -19361463.78349  13429114.83146  21551769.091    21551776.587
  23300158.921     -856851.91649   -676210.73344  23300158.335    23300165.594
  22485604.199   -12521496.26149  -9735864.56846  22485603.700    22485610.371
 03  4  2  1 47  0.0000000  0  8G14G25G31G 9G 3G15G23G18
  20206508.830   -21691320.54949 -16250134.49047  20206508.276    20206513.662
  24289745.461    -6642383.23049  -4895782.94245  24289745.201    24289759.251
  22441250.572   -12932528.84849 -10047764.55646  22441250.016    22441258.347
  23906047.154     1689890.61049   1324868.46445  23906046.839    23906055.701
  22438474.969   -16692856.07549 -12686112.45746  22438474.478    22438483.177
  21565974.730   -19286816.64449  13487281.38546  21565973.788    21565981.597
  23311184.039     -798912.62249   -631063.26044  23311183.154    23311190.977
  22497492.171   -12459024.35249  -9687185.17146  22497491.731    22497498.195
 03  4  2  1 47 30.0000000  0  8G14G25G31G 9G 3G15G23G18
  20205823.035   -21694924.33049 -16252942.60947  20205822.500    20205827.875
  24270991.523    -6740933.63949  -4972574.96845  24270991.253    24271005.279
  22445072.947   -12912440.13649 -10032111.05446  22445072.550    22445081.003
  23916098.639     1742711.41049   1366027.53145  23916098.269    23916107.147
  22450188.006   -16631302.85049 -12638148.95446  22450187.598    22450196.335
  21580250.253   -19211796.44549  13545738.65346  21580249.485    21580257.692
  23322216.866     -740933.87849   -585884.99044  23322216.286    23322224.090
  22509399.100   -12396452.71949  -9638428.07246  22509398.748    22509405.282
 03  4  2  1 48  0.0000000  0  8G14G25G31G 9G 3G15G23G18
  20205235.647   -21698011.68449 -16255348.30747  20205235.047    20205240.350
  24252233.059    -6839507.11549  -5049385.01645  24252232.950    24252246.877
  22448998.083   -12891814.28849 -10016038.97946  22448997.612    22449005.926
  23926252.464     1796069.51349   1407605.26345  23926251.940    23926260.631
  22461970.319   -16569386.97249 -12589902.84546  22461969.882    22461978.492
  21594596.570   -19136404.45849  13604485.61046  21594595.822    21594604.368
  23333257.503     -682915.94149   -540676.18144  23333256.782    23333264.696
  22521324.869   -12333781.90349  -9589593.69846  22521324.631    22521331.403
 03  4  2  1 48 30.0000000  0  9G14G25G31G11G 9G 3G15G23G18
  20204745.111   -21700588.85049 -16257356.45947  20204744.567    20204749.887
  24233469.520    -6938107.00649  -5126215.64745  24233469.569    24233483.709
  22453024.224   -12870658.07049  -9999553.67246  22453023.695    22453031.587
  24661475.378    -3795269.78149  -2941210.43545  24661474.876    24661483.874
  23936506.981     1849957.82749   1449596.16445  23936506.622    23936515.153
  22473820.034   -16507116.62849 -12541380.55146  22473819.648    22473828.161
  21609012.805   -19060647.12849  13663517.28946  21609012.022    21609020.579
  23344304.658     -624864.13849   -495441.01144  23344303.794    23344312.326
  22533268.563   -12271017.67649  -9540686.50446  22533268.363    22533275.088
 03  4  2  1 49  0.0000000  0  9G14G25G31G11G 9G 3G15G23G18
  20204353.472   -21702646.65549 -16258959.91947  20204352.938    20204358.282
  24214703.178    -7036720.37449  -5203056.74045  24214703.720    24214717.824
  22457152.905   -12848962.68349  -9982648.21546  22457152.327    22457159.892
  24642388.246    -3895573.78349  -3019369.29745  24642387.710    24642396.450
  23946863.950     1904384.84649   1492006.81545  23946863.611    23946872.230
  22485738.610   -16444484.47349 -12492576.31546  22485738.169    22485746.686
  21623500.440   -18984514.88349  13722841.10146  21623499.642    21623508.221
  23355360.241     -566768.27749   -450171.61144  23355359.491    23355368.285
  22545231.858   -12208150.69149  -9491699.21546  22545231.650    22545238.276
 03  4  2  1 49 30.0000000  0  9G14G25G31G11G 9G 3G15G23G18
  20204060.039   -21704188.37549 -16260161.22347  20204059.521    20204064.910
  24195934.762    -7135346.80149  -5279908.08645  24195935.254    24195949.452
  22461383.334   -12826732.02149  -9965325.65446  22461382.689    22461390.197
  24623312.091    -3995818.24149  -3097481.71745  24623311.577    24623320.672
  23957322.853     1959346.56149   1534834.16645  23957322.530    23957331.217
  22497724.796   -16381495.16749 -12443493.84246  22497724.499    22497733.207
  21638058.587   -18908011.67749  13782453.96446  21638057.714    21638066.431
  23366423.277     -508630.77649   -404869.63244  23366422.724    23366431.558
  22557214.310   -12145183.13449  -9442633.56946  22557213.926    22557220.727
 03  4  2  1 50  0.0000000  0  9G14G25G31G11G 9G 3G15G23G18
  20203864.572   -21705215.10149 -16260961.23747  20203864.076    20203869.426
  24177164.223    -7233983.96449  -5356767.79645  24177164.658    24177179.125
  22465715.182   -12803967.76749  -9947587.28446  22465714.629    22465722.173
  24604247.540    -4096001.37749  -3175546.40745  24604246.965    24604256.371
  23967883.091     2014840.95849   1578076.51145  23967882.730    23967891.682
  22509778.579   -16318151.99649 -12394135.53946  22509778.275    22509787.216
  21652686.863   -18831138.78349  13842354.90246  21652685.988    21652695.006
  23377494.637     -450451.56249   -359535.11844  23377493.289    23377502.560
  22569215.626   -12082115.29649  -9393489.83146  22569215.317    22569222.252
 03  4  2  1 50 30.0000000  0  9G14G25G31G11G 9G 3G15G23G18
  20203766.877   -21705728.91649 -16261361.58547  20203766.323    20203771.600
  24158391.973    -7332630.39949  -5433634.72344  24158392.224    24158406.474
  22470148.107   -12780672.64249  -9929435.26146  22470147.541    22470155.169
  24585194.759    -4196122.67249  -3253562.92245  24585194.104    24585203.541
  23978544.161     2070864.99449   1621731.63345  23978543.920    23978552.835
  22521899.106   -16254458.77749 -12344504.53946  22521898.754    22521907.818
  21667385.085   -18753898.45249  13902542.14746  21667384.342    21667393.437
  23388573.643     -392231.80749   -314169.13444  23388572.367    23388581.486
  22581235.924   -12018948.64749  -9344269.06346  22581235.526    22581242.461
 03  4  2  1 51  0.0000000  0  9G14G25G31G11G 9G 3G15G23G18
  20203766.833   -21705729.23349 -16261361.79047  20203766.234    20203771.589
  24139618.941    -7431281.52749  -5510505.20344  24139618.991    24139633.161
  22474681.859   -12756846.18349  -9910869.21546  22474681.392    22474689.277
  24566154.655    -4296178.49649  -3331528.41545  24566153.807    24566163.267
  23989305.788     2127418.87749   1665799.56245  23989305.789    23989314.586
  22534086.263   -16190416.35849 -12294601.39746  22534085.727    22534094.602
  21682153.719   -18676289.76949  13963016.42546  21682152.947    21682161.872
  23399660.686     -333969.20149   -268769.76244  23399659.771    23399668.354
  22593275.262   -11955681.82049  -9294970.27446  22593274.861    22593281.600
 03  4  2  1 51 30.0000000  0  9G14G25G31G11G 9G 3G15G23G18
  20203863.918   -21705218.24949 -16260963.59347  20203863.377    20203868.832
  24120845.537    -7529936.77249  -5587378.96345  24120845.445    24120858.842
  22479316.080   -12732491.93149  -9891891.87146  22479315.654    22479323.826
  24547126.624    -4396168.23349  -3409442.37845  24547125.929    24547135.855
  24000167.586     2184498.90249   1710277.51445  24000167.701    24000176.471
  22546338.752   -16126029.57149 -12244429.95246  22546338.244    22546346.790
  21696992.043   -18598315.92749  14023775.17846  21696991.245    21696999.559
  23410755.795     -275665.74749   -223338.66344  23410755.220    23410763.757
  22605333.259   -11892316.29449  -9245594.54945  22605332.893    22605339.494
 03  4  2  1 52  0.0000000  0  9G14G25G31G11G 9G 3G15G23G18
  20204058.231   -21704196.83849 -16260167.64947  20204057.702    20204063.278
  24102072.228    -7628593.06449  -5664253.54045  24102071.981    24102083.795
  22484050.537   -12707611.16149  -9872504.24946  22484050.145    22484058.511
  24528111.726    -4496089.55949  -3487303.01745  24528111.032    24528121.369
  24011128.983     2242104.74948   1755165.37545  24011129.093    24011138.513
  22558656.214   -16061300.46449 -12193991.71346  22558655.758    22558664.111
  21711899.689   -18519977.57549  14084818.02346  21711898.825    21711906.590
  23421858.637     -217321.08248   -177875.34544  23421857.816    23421866.076
  22617410.198   -11828852.33049  -9196142.07945  22617409.813    22617416.216
 03  4  2  1 52 30.0000000  0  9G14G25G31G11G 9G 3G15G23G18
  20204349.525   -21702665.58549 -16258974.44047  20204349.000    20204354.610
  24083299.502    -7727247.16349  -5741126.44445  24083299.218    24083310.037
  22488885.261   -12682204.68049  -9852707.01446  22488884.878    22488893.210
  24509110.199    -4595940.55649  -3565108.87245  24509109.777    24509120.233
  24022190.127     2300233.21349   1800460.25045  24022190.314    24022200.303
  22571038.306   -15996231.45849 -12143288.62846  22571037.876    22571045.907
  21726876.296   -18441275.24049  14146144.49345  21726875.418    21726883.118
  23432969.045     -158934.32049   -132379.20644  23432968.173    23432977.260
  22629506.095   -11765289.37249  -9146612.53345  22629505.609    22629511.906
 03  4  2  1 53  0.0000000  0  9G14G25G31G11G 9G 3G15G23G18
  20204737.755   -21700625.34249 -16257384.62147  20204737.261    20204742.820
  24064527.055    -7825896.36749  -5817995.54245  24064526.926    24064537.838
  22493819.877   -12656274.04549  -9832501.36646  22493819.482    22493827.572
  24490122.348    -4695718.79449  -3642858.01745  24490122.314    24490132.961
  24033351.133     2358883.76849   1846161.98545  24033351.226    24033361.033
  22583484.678   -15930824.95449 -12092322.61046  22583484.249    22583492.143
  21741921.623   -18362210.25649  14207753.53045  21741920.782    21741929.089
  23444087.619     -100505.36748    -86850.33244  23444087.516
  22641620.741   -11701627.67349  -9097006.03445  22641619.953    22641626.324
 03  4  2  1 53 30.0000000  0  9G14G25G31G11G 9G 3G15G23G18
  20205222.464   -21698078.26349 -16255399.84047  20205221.956    20205227.520
  24045755.616    -7924539.23849  -5894859.79545  24045755.271    24045767.128
  22498853.821   -12629822.08049  -9811889.48746  22498853.248    22498861.177
  24471148.728    -4795423.79749  -3720550.13045  24471148.755    24471159.776
  24044610.618     2418053.21048   1892268.10745  24044610.604    24044620.634
  22595994.580   -15865084.86249 -12041096.64146  22595994.209    22596002.395
  21757035.610   -18282784.89049  14269643.39245  21757034.918    21757043.416
  23455213.052      -42035.42648    -41289.27844  23455212.445
  22653753.335   -11637868.69049  -9047323.75745  22653752.683    22653759.173
 03  4  2  1 54  0.0000000  0  9G14G25G31G11G 9G 3G15G23G18
  20205803.912   -21695022.86849 -16253018.98847  20205803.383    20205808.949
  24026986.212    -8023170.30349  -5971714.86145  24026985.855    24026998.176
  22503986.851   -12602847.93649  -9790870.67546  22503986.225    22503994.314
  24452190.528    -4895050.87149  -3798181.47045  24452190.540    24452201.480
  24055969.079     2477742.21248   1938778.96545  24055969.387    24055979.112
  22608568.021   -15799011.53449 -11989611.00946  22608567.674    22608576.014
  21772218.820   -18202997.83349  14331815.07745  21772218.106    21772226.405
                     16478.02958      4305.60944
  22665904.961   -11574010.22949  -8997563.92845  22665904.491    22665910.965
 03  4  2  1 54 30.0000000  0  8G14G25G31G11G 9G 3G15G18
  20206479.830   -21691470.42449 -16250250.82747  20206479.346    20206484.911
  24008217.188    -8121797.15349  -6048566.63345  24008217.199    24008229.850
  22509216.946   -12575363.26449  -9769454.01746  22509216.404    22509224.565
  24433245.524    -4994608.02749  -3875758.38345  24433245.356    24433256.194
  24067424.478     2537938.88449   1985685.48145  24067424.439    24067434.064
  22621202.463   -15732617.88149 -11937875.79746  22621202.058    22621210.380
  21787468.822   -18122860.20649  14394259.92945  21787467.891    21787475.873
  22678074.060   -11510062.34549  -8947734.43445  22678073.526    22678080.037
 03  4  2  1 55  0.0000000  0  8G14G25G31G11G 9G 3G15G18
  20207252.182   -21687411.76649 -16247088.19847  20207251.721    20207257.197
  23989451.812    -8220406.74149  -6125404.97245  23989451.838    23989464.604
  22514546.153   -12547359.67749  -9747633.07846  22514545.564    22514553.484
  24414316.297    -5094083.21249  -3953271.44645  24414315.981    24414326.145
  24078977.678     2598651.31048   2032993.89445  24078977.541    24078987.285
  22633899.194   -15665896.64049 -11885885.31146  22633898.748    22633907.146
  21802786.687   -18042363.05649  14456984.98245  21802785.786    21802793.956
  22690262.246   -11446015.10849  -8897827.53745  22690261.479    22690268.086
 03  4  2  1 55 30.0000000  0  8G14G25G31G11G 9G 3G15G18
  20208120.703   -21682847.50949 -16243531.66147  20208120.190    20208125.668
  23970690.716    -8318996.75049  -6202228.04345  23970690.607    23970702.908
  22519973.514   -12518838.44249  -9725408.78146  22519972.938    22519980.875
  24395402.850    -5193474.19949  -4030718.83845  24395402.464    24395412.264
  24090628.883     2659878.01448   2080703.03645  24090628.425    24090638.166
  22646657.672   -15598850.17049 -11833641.38846  22646657.285    22646665.782
  21818173.054   -17961507.25149  14519989.49245  21818172.043    21818180.387
  22702468.723   -11381868.25149  -8847842.98445  22702467.999    22702474.759
 03  4  2  1 56  0.0000000  0  8G14G25G31G11G 9G 3G15G18
  20209085.165   -21677778.87649 -16239582.02547  20209084.692    20209090.199
  23951933.835    -8417563.80849  -6279033.22545  23951933.742    23951945.742
  22525498.777   -12489801.26549  -9702782.41946  22525498.362    22525506.447
  24376505.263    -5292778.81549  -4108098.86745  24376504.998    24376514.900
  24102377.417     2721617.43548   2128811.68144  24102376.832    24102387.110
  22659477.817   -15531480.88549 -11781145.86946  22659477.390    22659486.066
  21833627.449   -17880294.05449  14583272.46245  21833626.356    21833634.761
  22714693.975   -11317621.89049  -8797780.89145  22714693.605    22714700.366
 03  4  2  1 56 30.0000000  0  8G14G25G31G11G 9G 3G15G18
  20210145.205   -21672208.23649 -16235241.23547  20210144.708    20210150.290
  23933181.615    -8516106.82549  -6355819.64945  23933181.424    23933193.340
  22531122.031   -12460251.26849  -9679756.45446  22531121.500    22531129.558
  24357624.758    -5391996.40149  -4185411.17045  24357624.248    24357634.536
  24114222.558     2783865.87348   2177316.97644  24114222.112    24114232.297
  22672358.384   -15463793.11349 -11728402.22446  22672357.944    22672366.965
  21849149.032   -17798726.08049  14646831.89345  21849148.110    21849156.640
  22726938.577   -11253277.73249  -8747642.59845  22726938.216    22726944.781
 03  4  2  1 57  0.0000000  0  8G14G25G31G11G 9G 3G15G18
  20211300.405   -21666137.20249 -16230510.57147  20211299.938    20211305.552
  23914434.392    -8614623.60949  -6432585.67645  23914434.012    23914445.974
  22536841.641   -12430190.69049  -9656332.62046  22536841.260    22536849.899
  24338761.328    -5491125.50449  -4262654.56245  24338760.805    24338771.149
  24126163.979     2846620.87948   2226217.00544  24126164.084    24126173.749
  22685298.790   -15395790.25449 -11675413.04246  22685298.475    22685307.496
  21864738.242   -17716804.85849  14710666.57346  21864737.248    21864745.684
  22739201.785   -11188836.22748  -8697428.42045  22739201.230    22739207.707
 03  4  2  1 57 30.0000000  0  8G14G25G31G11G 9G 3G15G18
  20212550.381   -21659568.69149 -16225392.22847  20212549.893    20212555.390
  23895692.089    -8713113.30249  -6509330.55145  23895691.867    23895703.718
  22542658.477   -12399622.92749  -9632513.62246  22542658.192    22542666.861
  24319914.704    -5590165.50949  -4339828.38545  24319914.274    24319924.458
  24138202.090     2909878.91948   2275508.93344  24138201.860    24138211.646
  22698298.717   -15327476.74549 -11622181.81546  22698298.314    22698307.279
  21880393.659   -17634533.63049  14774773.99746  21880392.839    21880401.339
  22751482.921   -11124299.36649  -8647139.99345  22751482.245    22751488.475
 03  4  2  1 58  0.0000000  0  8G14G25G31G11G 9G 3G15G18
  20213895.172   -21652502.06349 -16219885.75847  20213894.672    20213900.067
  23876955.890    -8811571.06449  -6586050.58445  23876955.788    23876967.471
  22548572.032   -12368548.04849  -9608299.48346  22548571.678    22548580.267
  24301085.507    -5689112.96649  -4416930.10945  24301085.258    24301095.671
  24150335.511     2973639.82548   2325192.70244  24150335.271    24150345.119
  22711357.603   -15258853.69749 -11568709.39446  22711357.124    22711366.058
  21896116.004   -17551911.62949  14839154.75946  21896115.255    21896123.808
  22763782.298   -11059665.34548  -8596775.81345  22763781.614    22763788.091
 03  4  2  1 58 30.0000000  0  8G14G25G31G11G 9G 3G15G18
  20215334.645   -21644937.48649 -16213991.24847  20215334.185    20215339.533
  23858226.460    -8909993.01349  -6662742.72745  23858226.424    23858237.968
  22554581.930   -12336966.63349  -9583690.58746  22554581.458    22554590.103
  24282274.878    -5787964.32249  -4493956.96445  24282274.621    24282284.952
  24162564.140     3037902.50948   2375267.51544  24162564.253    24162574.218
  22724474.864   -15189922.44049 -11514996.79546  22724474.393    22724483.502
  21911905.267   -17468938.91049  14903808.78546  21911904.544    21911913.089
  22776099.809   -10994933.49648  -8546335.38645  22776099.306    22776105.896
 03  4  2  1 59  0.0000000  0  8G14G25G31G11G 9G 3G15G18
  20216868.616   -21636877.27349 -16207710.56747  20216868.034    20216873.380
  23839504.109    -9008378.00549  -6739406.07245  23839504.166    23839515.655
  22560687.551   -12304881.87149  -9558689.52946  22560687.041    22560695.598
  24263482.750    -5886718.87049  -4570908.35845  24263482.430    24263492.550
  24174887.804     3102664.16849   2425731.16644  24174887.884    24174898.145
  22737649.730   -15120687.45549 -11461047.47046  22737649.274    22737658.724
  21927760.825   -17385618.10049  14968734.06546  21927760.127    21927768.547
  22788435.654   -10930104.96249  -8495819.60645  22788435.155    22788442.134
 03  4  2  1 59 30.0000000  0  8G14G25G31G11G 9G 3G15G18
  20218496.221   -21628323.67749 -16201045.40847  20218495.697    20218501.117
  23820788.923    -9106724.16449  -6816039.17545  23820789.122    23820800.791
  22566888.310   -12272296.76749  -9533298.51146  22566887.838    22566896.114
  24244709.116    -5985376.01449  -4647783.87145  24244708.877    24244718.438
  24187305.946     3167921.30949   2476580.90545  24187305.856    24187316.098
  22750881.634   -15051152.58249 -11406864.54746  22750881.273    22750890.970
  21943682.113   -17301951.71649  15033928.59146  21943681.455    21943689.747
  22800790.590   -10865180.68749  -8445229.23045  22800790.111    22800796.614
 03  4  2  2  0  0.0000000  0  8G14G25G31G11G 9G 3G15G18
  20220217.563   -21619277.59549 -16193996.50347  20220217.135    20220222.545
  23802082.042    -9205028.83149  -6892639.90545  23802082.152    23802093.683
  22573183.995   -12239212.71549  -9507518.77146  22573183.500    22573191.725
  24225954.457    -6083933.26949  -4724581.54046  24225954.210    24225963.258
  24199818.159     3233672.04749   2527815.25545  24199817.974    24199828.460
  22764170.159   -14981320.36749 -11352449.88246  22764169.873    22764179.847
  21959668.936   -17217940.72149  15099391.65946  21959668.228    21959676.501
  22813162.679   -10800161.21749  -8394564.68345  22813162.427    22813170.008
 03  4  2  2  0 30.0000000  0  8G14G25G31G11G 9G 3G15G18
  20222032.810   -21609739.86149 -16186564.49947  20222032.278    20222037.453
  23783384.054    -9303288.33449  -6969205.49145  23783384.036    23783395.205
  22579574.443   -12205631.01849  -9481351.28046  22579573.897    22579582.006
  24207219.210    -6182387.69349  -4801299.04745  24207218.872    24207227.483
  24212424.338     3299915.17549   2579433.27745  24212423.947    24212434.090
  22777514.998   -14911192.81049 -11297805.06146  22777514.734    22777524.867
  21975721.327   -17133585.45449  15165122.99346  21975720.575    21975728.717
  22825553.726   -10735045.50749  -8343825.21445  22825553.487    22825561.213
 03  4  2  2  1  0.0000000  0  8G14G25G31G11G 9G 3G15G18
  20223941.325   -21599711.00949 -16178749.78647  20223940.777    20223945.846
  23764695.175    -9401499.32549  -7045733.28145  23764694.964    23764706.076
  22586059.241   -12171553.14349  -9454797.07646  22586058.727    22586066.904
  24188503.764    -6280736.73449  -4877934.42445  24188503.180    24188511.791
  24225123.417     3366649.14349   2631433.83545  24225123.426    24225133.307
  22790915.745   -14840772.21449 -11242931.95146  22790915.258    22790925.506
  21991838.949   -17048886.94449  15231121.78547  21991838.247    21991846.307
  22837963.282   -10669833.48949  -8293010.66145  22837963.207    22837970.660
 03  4  2  2  1 30.0000000  0  8G14G25G31G11G 9G 3G15G18
  20225942.475   -21589193.90749 -16170554.64047  20225941.932    20225947.133
  23746015.215    -9499661.06649  -7122222.65545  23746015.127    23746026.247
  22592638.207   -12136982.47149  -9427858.93346  22592637.592    22592645.465
  24169808.304    -6378979.95649  -4954487.36645  24169807.632    24169815.985
  24237915.196     3433870.21749   2683813.88845  24237915.220    24237925.010
  22804371.168   -14770063.11049 -11187834.01446  22804370.822    22804380.870
  22008021.390   -16963848.26549  15297385.63547  22008020.674    22008028.684
  22850391.419   -10604526.31049  -8242121.94445  22850390.962    22850398.232
 03  4  2  2  2  0.0000000  0  8G14G25G31G11G 9G 3G15G18
  20228036.313   -21578189.40249 -16161979.66847  20228035.833    20228041.179
  23727345.259    -9597770.22449  -7198671.09145  23727345.082    23727356.286
  22599310.261   -12101920.52449  -9400537.95746  22599309.693    22599317.650
  24151133.315    -6477114.82749  -5030955.92945  24151133.029    24151140.785
  24250799.585     3501576.67249   2736572.14944  24250799.701    24250809.161
  22817881.053   -14699067.99649 -11132513.21446  22817880.719    22817890.577
  22024268.443   -16878470.12349  15363914.02447  22024267.706    22024275.592
  22862837.218   -10539123.87049  -8191158.99245  22862836.707    22862844.007
 03  4  2  2  2 30.0000000  0  8G14G25G31G11G 9G 3G15G18
  20230223.294   -21566696.60049 -16153024.22247  20230222.868    20230228.139
  23708686.150    -9695821.90649  -7275074.73245  23708686.039    23708697.378
  22606076.031   -12066367.24849  -9372834.11546  22606075.469    22606083.420
  24132479.926    -6575137.08349  -5107336.72444  24132479.842    24132486.997
  24263775.928     3569768.60048   2789708.65044  24263776.107    24263785.589
  22831445.140   -14627787.47849 -11076970.00246  22831444.960    22831454.707
  22040580.027   -16792751.94749  15430707.36647  22040579.345    22040587.253
  22875301.441   -10473624.33549  -8140120.43645  22875300.908    22875308.112
 03  4  2  2  3  0.0000000  0  8G14G25G31G11G 9G 3G15G18
  20232502.817   -21554718.92349 -16143690.94647  20232502.260    20232507.428
  23690038.196    -9793814.72349  -7351432.48045  23690038.019    23690049.810
  22612934.458   -12030326.40049  -9344750.34846  22612933.871    22612941.682
  24113847.812    -6673046.31049  -5183629.34044  24113847.333    24113853.608
  24276844.607     3638441.88148   2843220.25544  24276844.629    24276853.931
  22845062.816   -14556226.33049 -11021208.11346  22845062.642    22845072.367
  22056955.757   -16706696.83949  15497763.25846  22056954.998    22056963.144
  22887783.988   -10408029.62749  -8089007.70845  22887783.317    22887790.323
 03  4  2  2  3 30.0000000  0  8G14G25G31G11G 9G 3G15G18
  20234874.231   -21542257.05449 -16133980.39247  20234873.679    20234878.868
  23671402.063    -9891746.28749  -7427742.52245  23671401.960    23671414.048
  22619885.205   -11993799.56749  -9316287.92046  22619884.580    22619892.460
  24095237.847    -6770840.14849  -5259832.23744  24095237.525    24095244.118
  24290004.206     3707594.94848   2897105.73244  24290003.551
  22858733.234   -14484387.01449 -10965229.50845  22858733.020    22858742.855
  22073395.373   -16620305.64949  15565081.01146  22073394.687    22073403.030
  22900284.220   -10342339.39749  -8037820.49545  22900283.594    22900290.339
 03  4  2  2  4  0.0000000  0  8G14G25G31G11G 9G 3G15G18
  20237337.396   -21529312.71949 -16123893.87647  20237336.834    20237341.959
  23652778.455    -9989613.59549  -7504002.51245  23652778.132    23652790.288
  22626927.919   -11956789.02449  -9287448.54546  22626927.364    22626935.345
  24076649.909    -6868516.87249  -5335943.76244  24076649.642    24076656.011
                   3777225.38648   2951363.10944
  22872455.888   -14412272.81049 -10909036.66845  22872455.719    22872465.651
  22089898.776   -16533580.11749  15632659.29547  22089898.101    22089906.479
  22912802.681   -10276554.12149  -7986559.28345  22912802.088    22912808.518
 03  4  2  2  4 30.0000000  0  8G14G25G31G11G 9G 3G15G18
  20239892.324   -21515886.28849 -16113431.66947  20239891.814    20239896.842
  23634167.674   -10087413.24549  -7580209.78745  23634167.427    23634179.257
  22634062.622   -11919296.04949  -9258233.26646  22634062.065    22634070.189
  24058085.203    -6966073.53049  -5411961.74444  24058084.996    24058092.032
                   3847331.88258   3005991.57044
  22886230.668   -14339885.50349 -10852631.06645  22886230.493    22886240.532
  22106465.781   -16446521.04649  15700497.54046  22106464.993    22106473.420
  22925339.500   -10210672.83949  -7935223.21945  22925338.989    22925345.057
 03  4  2  2  5  0.0000000  0  8G14G25G31G11G 9G 3G15G18
  20242538.510   -21501980.70549 -16102596.13047  20242537.953    20242542.995
  23615569.692   -10185144.12349  -7656363.49545  23615569.582    23615581.106
  22641288.492   -11881324.01749  -9228644.68046  22641287.862    22641296.093
  24039543.588    -7063509.18849  -5487885.43245  24039543.530    24039550.777
                   3917910.57849   2037865.05343
  22900056.728   -14267229.67749 -10796016.18845  22900056.520    22900066.546
  22123095.708   -16359130.89249  15768593.71946  22123094.770    22123103.454
  22937894.416   -10144696.97949  -7883813.50645  22937893.806    22937899.718
 03  4  2  2  5 30.0000000  0  8G14G25G31G11G 9G 3G15G18
  20245275.242   -21487598.15949 -16091388.94647  20245274.738    20245279.868
  23596985.332   -10282804.15649  -7732461.96845  23596985.198    23596996.590
  22648604.928   -11842875.85849  -9198685.10646  22648604.347    22648612.654
  24021025.279    -7160822.68549  -5563714.01445  24021025.051    24021032.965
                   3988958.11848   2093227.53343
  22913933.405   -14194308.95249 -10739194.92846  22913933.153    22913943.046
  22139787.735   -16271412.29949  15836945.81846  22139786.925    22139795.934
  22950467.171   -10078627.68149  -7832330.96545  22950466.603    22950472.382
 03  4  2  2  6  0.0000000  0  8G14G25G31G11G 9G 3G15G18
  20248103.144   -21472737.36449 -16079809.07347  20248102.670    20248107.820
  23578415.868   -10380387.64049  -7808500.77145  23578415.703    23578426.477
  22656012.212   -11803950.92549  -9168354.00346  22656011.709    22656019.869
  24002531.603    -7258009.01749  -5639443.47845  24002531.392    24002539.766
                   4060475.32748   2148957.11943
  22927860.483   -14121123.41149 -10682167.29746  22927860.152    22927870.042
  22156542.665   -16183363.62449  15905555.12746  22156541.885    22156551.019
  22963058.246   -10012462.14949  -7780773.44645  22963057.526    22963063.385
 03  4  2  2  6 30.0000000  0  7G14G25G31G11G 3G15G18
  20251021.588   -21457401.21649 -16067858.81247  20251021.040    20251026.129
  23559861.199   -10477893.41449  -7884479.03445  23559860.948    23559871.486
  22663509.710   -11764552.90149  -9137654.28446  22663509.039    22663517.044
  23984062.363    -7355067.61749  -5715073.44645  23984062.029    23984070.604
  22941836.797   -14047677.53649 -10624936.81946  22941836.576    22941846.526
  22173359.937   -16094987.93949  15974419.26346  22173359.123    22173368.299
  22975667.021    -9946202.11649  -7729142.28145  22975666.287    22975672.368
 03  4  2  2  7  0.0000000  0  7G14G25G31G11G 3G15G18
  20254030.494   -21441588.98849 -16055537.56347  20254029.937    20254035.033
  23541322.104   -10575316.44249  -7960392.79045  23541321.982    23541332.341
  22671096.748   -11724681.65849  -9106585.77046  22671096.207    22671104.302
  23965618.108    -7451993.94749  -5790600.32545  23965617.708    23965626.506
  22955862.486   -13973972.05849 -10567504.04646  22955862.208    22955872.228
  22190239.846   -16006284.41549  16043538.82346  22190238.976    22190247.962
  22988294.336    -9879845.38149  -7677435.77145  22988293.536    22988300.140
 03  4  2  2  7 30.0000000  0  7G14G25G31G11G 3G15G18
  20257128.876   -21425306.50349 -16042849.90847  20257128.352    20257133.499
  23522798.368   -10672658.28149  -8036243.32846  23522798.306    23522808.658
  22678772.822   -11684343.79349  -9075153.70646  22678772.253    22678780.400
  23947198.592    -7548790.52449  -5866026.14445  23947198.149    23947206.913
  22969935.939   -13900014.22449 -10509874.64346  22969935.804    22969945.775
  22207181.072   -15917258.96249  16112909.25746  22207180.179    22207188.926
  23000939.211    -9813396.46749  -7625657.36445  23000938.303    23000945.179
 03  4  2  2  8  0.0000000  0  7G14G25G31G11G 3G15G18
  20260317.386   -21408550.83749 -16029793.48647  20260316.854    20260322.087
  23504291.388   -10769912.50449  -8112025.59646  23504291.308    23504301.680
  22686538.063   -11643537.12649  -9043356.28846  22686537.527    22686545.690
  23928804.666    -7645450.79249  -5941345.65945  23928804.283    23928812.974
  22984058.295   -13825802.57449 -10452047.46946  22984058.017    22984067.828
  22224183.981   -15827908.65349  16182532.86046  22224183.029    22224191.857
  23013602.468    -9746851.05649  -7573803.87045  23013601.614    23013608.249
 03  4  2  2  8 30.0000000  0  7G14G25G31G11G 3G15G18
  20263594.687   -21391328.29249 -16016373.31247  20263594.196    20263599.383
  23485800.774   -10867080.67949  -8187740.78846  23485800.828    23485811.136
  22694391.307   -11602268.60349  -9011199.05246  22694390.731    22694398.588
  23910436.146    -7741977.29749  -6016560.98545  23910435.830    23910444.434
  22998227.397   -13751344.87849 -10394028.56246  22998227.068    22998236.736
  22241247.415   -15738239.82349  16252404.61746  22241246.367    22241255.373
  23026283.169    -9680213.87749  -7521878.81245  23026282.336    23026288.991
 03  4  2  2  9  0.0000000  0  7G14G25G31G11G 3G15G18
  20266961.402   -21373636.28749 -16002587.30947  20266960.875    20266965.938
  23467327.841   -10964155.88049  -8263383.56646  23467327.907    23467338.267
  22702332.595   -11560536.26049  -8978680.37546  22702332.072    22702339.802
  23892094.103    -7838363.72149  -6091667.19445  23892093.769    23892102.490
  23012443.343   -13676639.92349 -10335816.96746  23012443.107    23012452.695
  22258371.502   -15648249.91349  16322526.58846  22258370.750    22258379.985
  23038982.026    -9613481.24749  -7469879.43945  23038981.215    23038988.291
 03  4  2  2  9 30.0000000  0  7G14G25G31G11G 3G15G18
  20270417.222   -21355475.53249 -15988436.08647  20270416.693    20270421.784
  23448873.334   -11061134.75949  -8338951.26246  23448873.363    23448883.570
  22710361.808   -11518341.74449  -8945801.57346  22710361.324    22710368.982
  23873779.282    -7934607.07849  -6166661.89445  23873779.037    23873787.514
  23026706.005   -13601690.10149 -10277414.58446  23026705.803    23026715.454
  22275557.108   -15557939.86749  16392897.99146  22275556.283    22275565.333
  23051699.301    -9546652.34349  -7417804.99145  23051698.521    23051705.388
 03  4  2  2 10  0.0000000  0  7G14G25G31G11G 3G15G18
  20273961.448   -21336850.72749 -15973923.24947  20273960.909    20273965.998
  23430437.019   -11158017.70249  -8414444.26146  23430436.976    23430447.016
  22718478.194   -11475690.37449  -8912566.78846  22718477.645    22718485.285
  23855491.433    -8030708.68349  -6241546.11445  23855491.148    23855499.650
  23041014.229   -13526501.46249 -10218826.09246  23041013.957    23041023.767
  22292803.052   -15467313.96749  16463515.50646  22292802.074    22292810.854
  23064434.243    -9479730.23449  -7365657.88445  23064433.386    23064440.372
 03  4  2  2 10 30.0000000  0  7G14G25G31G11G 3G15G18
  20277594.083   -21317761.16649 -15959048.22647  20277593.534    20277598.658
  23412019.530   -11254799.67649  -8489858.57445  23412019.538    23412029.788
  22726681.609   -11432582.22149  -8878976.00346  22726680.936    22726688.601
  23837231.279    -8126663.93649  -6316316.27745  23837231.119    23837239.818
  23055367.458   -13451074.53749 -10160051.95146  23055367.282    23055377.099
  22310108.834   -15376371.52449  16534379.69946  22310107.953    22310116.361
  23077187.316    -9412712.93849  -7313436.66545  23077186.337    23077193.229
 03  4  2  2 11  0.0000000  0  7G14G25G31G11G 3G15G18
  20281314.479   -21298209.91749 -15943813.45047  20281313.958    20281319.115
  23393621.140   -11351479.35949  -8565193.13645  23393621.375    23393631.998
  22734970.778   -11389020.98649  -8845032.17946  22734970.208    22734978.054
  23818999.656    -8222471.78149  -6390971.67445  23818999.291    23819008.215
  23069765.059   -13375413.87049 -10101095.65346  23069764.825    23069774.843
  22327474.288   -15285115.77949  16605487.96646  22327473.421    22327481.589
  23089957.871    -9345602.05149  -7261142.44645  23089956.926    23089963.686
 03  4  2  2 11 30.0000000  0  7G14G25G31G11G 3G15G18
  20285122.890   -21278196.48049 -15928218.57847  20285122.332    20285127.583
  23375243.410   -11448051.92949  -8640444.25645  23375243.537    23375254.464
  22743346.342   -11345006.88149  -8810735.51146  22743345.849    22743353.566
  23800796.668    -8318128.36649  -6465509.10045  23800796.193    23800805.419
  23084206.806   -13299520.29049 -10041957.86046  23084206.677    23084216.862
  22344899.414   -15193546.14949  16676840.90846  22344898.618    22344906.671
  23102746.704    -9278395.49049  -7208773.69445  23102745.832    23102752.567
 03  4  2  2 12  0.0000000  0  7G14G25G31G11G 3G15G18
  20289018.332   -21257725.52249 -15912267.14547  20289017.815    20289023.137
  23356886.124   -11544517.68249  -8715612.19445  23356886.194    23356897.206
  22751807.000   -11300545.39249  -8776090.19246  22751806.463    22751814.397
  23782622.304    -8413634.45249  -6539929.33545  23782621.893    23782631.152
  23098692.017   -13223399.99749  -9982643.46046  23098691.868    23098702.110
  22362383.168   -15101667.43149  16748434.65046  22362382.465    22362390.653
  23115553.468    -9211096.29849  -7156332.73945  23115552.575    23115559.212
 03  4  2  2 12 30.0000000  0  7G14G25G31G11G 3G15G18
  20293001.069   -21236796.87549 -15895959.11247  20293000.508    20293005.643
  23338550.612   -11640871.89649  -8790693.17045  23338550.458    23338561.310
  22760352.633   -11255637.01349  -8741096.69746  22760352.226    22760360.180
  23764477.404    -8508986.23449  -6614229.23345  23764477.035    23764486.210
  23113220.572   -13147054.08449  -9923153.18246  23113220.230    23113230.212
  22379926.043   -15009479.21549  16820269.59146  22379925.280    22379933.511
  23128378.244    -9143702.70349  -7103818.27845  23128377.278    23128383.662
 03  4  2  2 13  0.0000000  0  7G14G25G31G11G 3G15G18
  20297070.491   -21215411.95149 -15879295.52947  20297069.961    20297075.065
  23320236.681   -11737111.80749  -8865685.11145  23320236.566    23320247.197
  22768983.184   -11210283.89049  -8705756.64346  22768982.731    22768990.512
  23746362.361    -8604181.04049  -6688406.90045  23746362.036    23746371.114
  23127791.203   -13070485.29349  -9863489.27646  23127790.864    23127800.654
  22397527.404   -14916983.26749  16892344.30746  22397526.665    22397535.028
  23141220.606    -9076214.70549  -7051230.20745  23141219.697    23141226.203
 03  4  2  2 13 30.0000000  0  7G14G25G31G11G 3G15G18
  20301226.026   -21193573.64249 -15862278.65247  20301225.574    20301230.789
  23301944.980   -11833236.11749  -8940586.96846  23301944.829    23301955.115
  22777697.746   -11164489.68249  -8670072.87646  22777697.268    22777705.012
  23728277.509    -8699218.46249  -6762461.89146  23728277.195    23728285.902
  23142403.419   -12993697.81949  -9803654.98446  23142403.098    23142412.798
  22415186.943   -14824182.19449  16964656.79546  22415186.130    22415194.555
  23154080.899    -9008633.70849  -6998569.67645  23154080.114    23154086.705
 03  4  2  2 14  0.0000000  0  7G14G25G31G11G 3G15G18
  20305468.061   -21171282.00149 -15844908.54447  20305467.517    20305472.758
  23283676.083   -11929240.39549  -9015395.30646  23283675.956    23283685.939
  22786496.073   -11118255.20949  -8634046.00846  22786495.517    22786503.270
  23710223.433    -8794094.31849  -6836390.91246  23710223.034    23710231.649
  23157057.093   -12916693.33249  -9743651.58946  23157056.723    23157066.358
  22432904.488   -14731075.99149  17037207.00746  22432903.794    22432912.166
  23166959.223    -8940958.05949  -6945835.45045  23166958.438    23166965.187
 03  4  2  2 14 30.0000000  0  7G14G25G31G11G 3G15G18
  20309795.751   -21148540.12549 -15827187.59247  20309795.182    20309800.378
  23265430.070   -12025123.44749  -9090109.14546  23265429.948    23265439.911
  22795377.498   -11071584.29849  -8597679.11646  22795376.859    22795384.388
  23692200.127    -8888807.80049  -6910193.52646  23692199.711    23692208.215
  23171751.322   -12839476.01549  -9683482.30846  23171750.891    23171760.564
  22450679.588   -14637668.01649  17109992.41546  22450678.879    22450687.137
  23179854.701    -8873189.73349  -6893028.94645  23179854.011    23179861.166
 03  4  2  2 15  0.0000000  0  7G14G25G31G11G 3G15G18
  20314208.944   -21125347.88349 -15809115.69647  20314208.466    20314213.659
  23247208.028   -12120880.31449  -9164724.68146  23247207.923    23247217.957
  22804341.707   -11024477.54149  -8560972.54546  22804341.013    22804348.427
  23674208.564    -8983354.97049  -6983866.50146  23674208.147    23674216.291
  23186485.265   -12762046.99049  -9623148.12546  23186484.931    23186495.030
  22468512.214   -14543957.83249  17183013.27447  22468511.493    22468519.632
  23192768.344    -8805326.65049  -6840148.56545  23192767.881    23192775.050
 03  4  2  2 15 30.0000000  0  7G14G25G31G11G 3G15G18
  20318707.379   -21101708.46449 -15790695.35546  20318706.862    20318712.040
  23229010.187   -12216510.23249  -9239241.26646  23229010.061    23229020.150
  22813387.891   -10976938.80949  -8523929.42846  22813387.261    22813394.824
  23656248.716    -9077735.07049  -7057409.29146  23656248.210    23656256.225
  23201259.021   -12684410.81949  -9562652.47846  23201258.622    23201268.845
  22486401.796   -14449948.81949  17256267.00047  22486400.959    22486409.080
  23205700.172    -8737370.32149  -6787195.56045  23205699.460    23205706.644
 03  4  2  2 16  0.0000000  0  7G14G25G31G11G 3G15G18
  20323291.042   -21077621.54049 -15771926.33347  20323290.499    20323295.574
  23210837.749   -12312008.09849  -9313654.99746  23210837.502    23210847.328
  22822516.575   -10928968.67449  -8486550.12646  22822515.801    22822523.368
  23638321.394    -9171943.83049  -7130818.59046  23638320.861    23638328.658
  23216072.268   -12606568.30949  -9501996.08846  23216071.837    23216081.956
  22504348.050   -14355640.47649  17329753.96447  22504347.275    22504355.487
  23218649.736    -8669318.94249  -6734168.49345  23218649.124    23218656.426
 03  4  2  2 16 30.0000000  0  7G14G25G31G11G 3G15G18
  20327958.781   -21053091.63649 -15752812.10647  20327958.337    20327963.488
  23192690.008   -12407374.40949  -9387966.22846  23192689.846    23192699.602
  22831725.884   -10880572.50349  -8448838.84446  22831725.196    22831733.063
  23620426.359    -9265982.18649  -7204095.07946  23620425.800    23620433.590
  23230923.395   -12528525.49949  -9441183.62946  23230923.046    23230933.314
  22522350.396   -14261037.35649  17403470.64147  22522349.612    22522357.957
  23231617.388    -8601175.18549  -6681069.47745  23231616.806    23231623.552
 03  4  2  2 17  0.0000000  0  7G14G25G31G11G 3G15G18
  20332711.140   -21028117.27749 -15733351.55947  20332710.728    20332715.975
  23174568.260   -12502602.65749  -9462169.89246  23174568.111    23174577.908
  22841016.521   -10831749.49649  -8410795.01246  22841015.824    22841023.998
  23602564.710    -9359844.38349  -7277234.30645  23602564.265    23602571.850
  23245812.897   -12450282.19849  -9380214.92846  23245812.539    23245822.760
  22540409.207   -14166137.64349  17477418.41346  22540408.450    22540416.903
  23244602.920    -8532935.81049  -6627895.97645  23244602.367    23244608.914
 03  4  2  2 17 30.0000000  0  7G14G25G31G11G 3G15G18
  20337547.543   -21002701.64049 -15713547.17647  20337547.119    20337552.434
  23156473.218   -12597691.88549  -9536265.23046  23156472.878    23156482.599
  22850387.538   -10782503.58149  -8372421.58046  22850386.876    22850395.326
  23584736.851    -9453529.87449  -7350235.85345  23584736.347    23584743.609
  23260739.508   -12371842.93349  -9319093.54446  23260739.125    23260749.328
  22558523.840   -14070944.72449  17551594.65446  22558523.119    22558531.699
  23257605.942    -8464602.78749  -6574649.46845  23257605.525    23257612.286
 03  4  2  2 18  0.0000000  0  7G14G25G31G11G 3G15G18
  20342467.673   -20976847.07249 -15693400.74947  20342467.123    20342472.433
  23138404.909   -12692639.95249  -9610250.55946  23138404.536    23138414.167
  22859838.510   -10732838.03249  -8333721.20546  22859837.953    22859846.581
  23566942.893    -9547036.78649  -7423098.26545  23566942.446    23566949.558
  23275702.608   -12293211.34049  -9257822.24046  23275702.317    23275712.406
  22576693.814   -13975461.03349  17625997.50646  22576693.011    22576701.655
  23270627.110    -8396176.57249  -6521330.34245  23270626.670    23270633.203
 03  4  2  2 18 30.0000000  0  7G14G25G31G11G 3G15G18
  20347470.973   -20950553.08649 -15672911.93847  20347470.470    20347476.003
  23120364.473   -12787441.89449  -9684122.01546  23120364.235    23120373.793
  22869369.551   -10682752.98949  -8294693.96346  22869368.835    22869377.729
  23549183.590    -9640360.97849  -7495818.28345  23549183.221    23549190.315
  23290702.189   -12214388.02649  -9196401.61946  23290701.923    23290712.024
  22594919.011   -13879686.12749  17700627.24946  22594918.214    22594927.118
  23283666.550    -8327655.25449  -6467937.09545  23283666.163    23283672.516
 03  4  2  2 19  0.0000000  0  7G14G25G31G11G 3G15G18
  20352557.204   -20923823.59549 -15652083.75147  20352556.778    20352562.465
  23102352.254   -12882097.12949  -9757879.17246  23102351.955    23102361.505
  22878979.223   -10632253.10649  -8255343.42546  22878978.483    22878987.619
  23531459.287    -9733502.08649  -7568395.63046  23531458.920    23531465.972
  23305737.249   -12135378.24249  -9134835.61146  23305737.024    23305747.066
  22613198.788   -13783623.73349  17775481.04646  22613198.168    22613207.295
  23296723.309    -8259040.75849  -6414471.27245  23296722.944    23296729.382
 03  4  2  2 19 30.0000000  0  7G14G25G31G11G 3G15G18
  20357726.124   -20896660.83349 -15630917.95047  20357725.680    20357731.418
  23084368.277   -12976603.17749  -9831520.07446  23084367.905    23084377.707
  22888667.406   -10581341.43549  -8215672.06246  22888666.675    22888675.842
  23513770.258    -9826458.36249  -7640828.98546  23513769.846    23513776.977
  23320807.308   -12056185.25149  -9073126.92346  23320807.011    23320817.052
  22631533.382   -13687275.90249  17850557.24246  22631532.547    22631541.766
  23309797.765    -8190333.43049  -6360933.11644  23309797.694    23309803.743
 03  4  2  2 20  0.0000000  0  7G14G25G31G11G 3G15G18
  20362977.713   -20869063.58549 -15609413.61347  20362977.264    20362983.098
  23066413.664   -13070954.08149  -9905040.09446  23066413.285    23066423.365
  22898433.995   -10530017.52649  -8175679.47646  22898433.275    22898442.560
  23496117.211    -9919224.58849  -7713114.26745  23496116.847    23496124.071
  23335912.059   -11976809.45649  -9011275.76046  23335911.814    23335921.940
  22649922.317   -13590641.57449  17925856.65745  22649921.346    22649930.661
  23322890.532    -8121530.48149  -6307320.52144  23322890.481    23322896.603
 03  4  2  2 20 30.0000000  0  7G14G25G31G11G 3G15G18
  20368311.297   -20841035.45549 -15587573.50847  20368310.872    20368316.594
  23048488.421   -13165149.22849  -9978438.77346  23048488.224    23048498.478
  22908278.247   -10478285.77349  -8135369.05146  22908277.560    22908286.889
  23478500.521   -10011800.32149  -7785251.12146  23478500.243    23478507.456
  23351050.722   -11897255.30949  -8949285.57346  23351050.424    23351060.794
  22668365.081   -13493724.19449  18001376.66245  22668364.047    22668373.237
  23336001.061    -8052633.76049  -6253634.66844  23336000.463    23336006.489
 03  4  2  2 21  0.0000000  0  7G14G25G31G11G 3G15G18
  20373726.449   -20812579.28249 -15565399.85047  20373725.973    20373731.583
  23030593.325   -13259187.19249 -10051715.02746  23030593.142    23030603.365
  22918199.257   -10426149.97049  -8094743.79146  22918198.571    22918208.054
  23460920.194   -10104184.61949  -7857238.77046  23460919.984    23460927.458
  23366222.566   -11817527.23749  -8887159.93446  23366222.281    23366232.684
  22686861.211   -13396526.76949  18077114.87246  22686860.164    22686869.103
  23349129.267    -7983644.54949  -6199876.86444  23349128.783    23349134.673
 03  4  2  2 21 30.0000000  0  7G14G25G31G11G 3G15G18
  20379223.094   -20783694.22649 -15542891.99247  20379222.667    20379228.226
  23012729.673   -13353061.91749 -10124863.99645  23012729.339    23012739.096
  22928197.309   -10373609.91949  -8053803.53246  22928196.610    22928206.179
  23443377.349   -10196372.03849  -7929073.02746  23443377.158    23443384.811
  23381427.664   -11737625.38049  -8824898.88146  23381427.244    23381437.776
  22705410.733   -13299048.23149  18153072.13146  22705409.852    22705418.632
  23362275.640    -7914559.95349  -6146044.75544  23362275.243    23362280.780
 03  4  2  2 22  0.0000000  0  7G14G25G31G11G 3G15G18
  20384800.518   -20754384.98549 -15520053.61947  20384800.047    20384805.555
  22994897.028   -13446773.95249 -10197886.16846  22994896.574    22994905.846
  22938271.236   -10320671.10449  -8012552.53446  22938270.576    22938280.099
  23425871.785   -10288363.59849  -8000754.64146  23425871.517    23425879.481
  23396664.495   -11657555.57049  -8762506.88546  23396664.047    23396674.762
  22724013.112   -13201293.10549  18229244.90746  22724012.243    22724020.726
  23375439.563    -7845383.15349  -6092140.80244  23375438.969    23375444.797
 03  4  2  2 22 30.0000000  0  7G14G25G31G11G 3G15G18
  20390458.516   -20724651.56249 -15496884.71247  20390458.030    20390463.556
  22977096.321   -13540318.71949 -10270778.01145  22977095.658    22977104.433
  22948420.790   -10267334.46949  -7970991.54446  22948420.029    22948429.643
  23408404.328   -10380155.26949  -8072280.51645  23408404.029    23408412.178
  23411932.975   -11577319.16649  -8699985.11146  23411932.656    23411943.502
  22742667.969   -13103261.37149  18305633.19746  22742667.090    22742675.814
  23388621.050    -7776112.11248  -6038163.44344  23388620.644    23388626.954
 03  4  2  2 23  0.0000000  0  7G14G25G31G11G 3G15G18
  20396197.193   -20694494.20849 -15473385.46647  20396196.727    20396202.342
  22959327.806   -13633692.17449 -10343536.39245  22959327.399    22959335.656
  22958645.755   -10213600.99649  -7929121.37746  22958645.150    22958654.843
  23390975.382   -10471742.95149  -8143647.41945  23390975.235    23390983.678
  23427233.033   -11496917.43049  -8637334.51846  23427232.585    23427243.624
  22761375.370   -13004953.51449  18382236.63446  22761374.559    22761383.237
  23401819.614    -7706747.71148  -5984113.47443                  23401818.604
 03  4  2  2 23 30.0000000  0  7G14G25G31G11G 3G15G18
  20402016.032   -20663916.08349 -15449558.35347  20402015.569    20402021.209
  22941592.011   -13726892.49949 -10416159.83946  22941591.777    22941600.066
  22968945.737   -10159474.64849  -7886945.00046  22968945.129    22968954.797
  23373585.790   -10563125.73149  -8214854.69746  23373585.683    23373593.992
  23442563.210   -11416354.67649  -8574558.44946  23442562.912    23442574.207
  22780134.666   -12906372.48149  18459052.98546  22780133.921    22780142.520
                  -7637286.02249  -5929987.70643
 03  4  2  2 24  0.0000000  0  7G14G25G31G11G 3G15G18
  20407913.924   -20632922.31649 -15425407.35947  20407913.485    20407919.149
  22923888.903   -13819920.37149 -10488648.93545  22923888.693    22923897.328
  22979319.375   -10104961.37849  -7844467.15546  22979318.848    22979328.357
  23356234.877   -10654304.73649  -8285903.17246  23356234.795    23356242.874
  23457923.271   -11335636.95249  -8511661.64546  23457923.057    23457934.247
  22798945.246   -12807523.12949  18536078.39846  22798944.419    22798952.892
                  -7567733.99149  -5875791.64443
 03  4  2  2 24 30.0000000  0  7G14G25G31G11G 3G15G18
  20413891.532   -20601510.25649 -15400930.39847  20413891.038    20413896.587
  22906220.296   -13912768.50849 -10560997.95946  22906219.984    22906228.876
  22989766.927   -10050059.26449  -7801686.36946  22989766.446    22989775.923
  23338924.147   -10745273.13349  -8356787.54345  23338923.931    23338931.914
  23473313.250   -11254763.33449  -8448643.32746  23473313.023    23473323.898
  22817807.202   -12708403.07449  18613314.76746  22817806.282    22817814.726
                  -7498086.80048  11101119.87443
 03  4  2  2 25  0.0000000  0  7G14G25G31G11G 3G15G18
  20419947.598   -20569685.16649 -15376131.61247  20419947.105    20419952.567
  22888585.991   -14005437.02449 -10633207.03546  22888585.632    22888594.753
  23000287.181    -9994774.39049  -7758607.27346  23000286.663    23000296.103
  23321652.922   -10836032.29349  -8427508.89145  23321652.637    23321660.708
  23488731.543   -11173739.69949  -8385508.15146  23488731.400    23488742.185
  22836719.679   -12609017.23649  18690758.22746  22836718.759    22836727.368
                  -7428347.22049  11155461.56443
 03  4  2  2 25 30.0000000  0  7G14G25G31G11G 3G15G18
  20426082.522   -20537446.05849 -15351010.22247  20426081.998    20426087.435
  22870986.787   -14097921.07049 -10705272.37346  22870986.456    22870995.717
  23010880.396    -9939106.84849  -7715230.01546  23010879.879    23010889.274
  23304422.935   -10926576.33349  -8498062.60545  23304422.625    23304430.666
  23504178.396   -11092566.58649  -8322256.54645  23504178.157    23504188.979
  22855683.090   -12509364.82349  18768409.39646  22855682.110    22855690.873
                  -7358512.91149  11209877.17043
 03  4  2  2 26  0.0000000  0  7G14G25G31G11G 3G15G18
  20432295.454   -20504796.72449 -15325569.18247  20432294.967    20432300.512
  22853422.876   -14190219.89549 -10777193.36846  22853422.675    22853431.963
  23021545.676    -9883061.10549  -7671558.03146  23021545.166    23021554.419
  23287233.556   -11016905.35549  -8568448.75945  23287233.354    23287241.464
  23519652.407   -11011248.88849  -8258892.19645  23519652.274    23519663.305
  22874696.561   -12409449.81249  18846265.21246  22874695.437    22874704.283
                  -7288585.77749  11132800.79743
 03  4  2  2 26 30.0000000  0  7G14G25G31G11G 3G15G18
  20438586.569   -20471736.40549 -15299807.90047  20438586.091    20438591.703
  22835895.278   -14282327.79449 -10848965.60946  22835895.209    22835904.449
  23032282.996    -9826637.29349  -7627591.50446  23032282.533    23032291.447
  23270086.232   -11107014.52749  -8638663.61645  23270086.095    23270093.951
  23535154.010   -10929786.83749  -8195415.37846  23535153.981    23535165.245
  22893759.916   -12309271.09249  18924326.48546  22893758.921    22893767.847
                  -7218563.31549  11187363.79143
 03  4  2  2 27  0.0000000  0  7G14G25G31G11G 3G15G18
  20444954.898   -20438270.44849 -15273730.50747  20444954.442    20444960.028
  22818403.875   -14374245.52349 -10920589.68946  22818403.718    22818413.007
  23043091.057    -9769841.48649  -7583335.06746  23043090.441    23043099.270
  23252980.554   -11196905.03349  -8708708.07945  23252980.447    23252988.223
  23550682.459   -10848186.82649  -8131831.08546  23550682.311    23550693.393
  22912872.472   -12208833.85349  19002589.22846  22912871.449    22912880.310
                  -7148448.77249  11241998.58443
 03  4  2  2 27 30.0000000  0  7G14G25G31G11G 3G15G18
  20451400.525   -20404398.56849 -15247336.80747  20451400.070    20451405.619
  22800949.548   -14465968.25149 -10992061.84946  22800949.401    22800958.547
  23053969.529    -9712674.23549  -7538789.16046  23053968.960    23053977.828
  23235917.448   -11286572.07649  -8778578.40145  23235917.318    23235925.012
  23566236.917   -10766449.59549  -8068139.87246  23566236.623    23566247.654
  22932034.110   -12108138.06749  19081053.47546  22932033.204    22932041.879
  23521422.610    -7078239.88049  11296706.79545  23521419.748    23521353.761
 03  4  2  2 28  0.0000000  0  7G14G25G31G11G 3G15G18
  20457922.949   -20370123.18049 -15220628.72147  20457922.525    20457928.003
  22783532.883   -14557493.38349 -11063379.92546  22783532.599    22783541.466
  23064917.938    -9655138.77649  -7493956.40746  23064917.370    23064926.386
  23218897.366   -11376013.91949  -8848273.26246  23218897.122    23218904.729
  23581816.792   -10684578.59649  -8004344.42346  23581816.378    23581827.421
  22951244.441   -12007185.68949  19159717.57845  22951243.764    22951252.450
  23534800.523    -7007937.16049  11351488.15045  23534796.248    23534807.308
 03  4  2  2 28 30.0000000  0  7G14G25G31G11G 3G15G18
  20464522.130   -20335444.89949 -15193606.66447  20464521.686    20464527.130
  22766154.351   -14648817.47449 -11134541.27746  22766154.090    22766162.333
  23075936.218    -9597236.89149  -7448838.04946  23075935.692    23075944.519
  23201920.729   -11465227.18749  -8917789.97346  23201920.445    23201928.160
  23597421.370   -10602575.90849  -7940446.33745  23597420.985    23597432.232
  22970503.846   -11905977.74149  19238580.90345  22970503.222    22970511.916
  23548196.820    -6937539.68449  11406343.32745  23548196.392    23548202.413
 03  4  2  2 29  0.0000000  0  7G14G25G31G11G 3G15G18
  20471197.375   -20300367.09649 -15166273.30047  20471196.845    20471202.277
  22748814.277   -14739938.43549 -11205544.50546  22748814.144    22748822.041
  23087023.779    -9538972.13049  -7403437.01346  23087023.126    23087031.837
  23184987.838   -11554210.51949  -8987127.56246  23184987.467    23184995.046
  23613050.322   -10520445.52649  -7876448.78646  23613050.065    23613061.338
  22989811.636   -11804516.88349  19317641.26545  22989810.716    22989819.549
  23561611.097    -6867048.44049  11461271.57345  23561610.378    23561616.351
 03  4  2  2 29 30.0000000  0  7G14G25G31G11G 3G15G18
  20477948.042   -20264891.33949 -15138629.78947  20477947.562    20477952.993
  22731513.271   -14830853.82949 -11276387.61745  22731513.300    22731520.877
  23098179.682    -9480347.35349  -7357755.40546  23098179.133    23098187.757
  23168099.106   -11642961.66149  -9056284.15946  23168098.690    23168106.212
  23628703.399   -10438190.27949  -7812353.87346  23628703.059    23628714.165
  23009166.325   -11702805.21849  19396897.08145  23009165.477    23009174.828
  23575042.481    -6796463.55049  11516272.83744  23575041.220    23575048.348
 03  4  2  2 30  0.0000000  0  7G14G25G31G11G 3G15G18
  20484774.271   -20229018.69049 -15110677.07447  20484773.776    20484779.242
  22714252.875   -14921559.69149 -11347067.34945  22714252.610    22714259.972
  23109403.792    -9421364.60649  -7311794.92346  23109403.303    23109412.025
  23151255.173   -11731477.14349  -9125257.13545  23151254.750    23151262.011
  23644379.465   -10355812.56749  -7748163.58846  23644379.227    23644390.106
  23028568.442   -11600843.64049  19476347.62545  23028567.894    23028577.571
  23588491.974    -6725784.02148  11571347.80544  23588490.877    23588498.481
 03  4  2  2 30 30.0000000  0  7G14G25G31G11G 3G15G18
  20491675.829   -20192750.31749 -15082416.00747  20491675.368    20491680.830
  22697033.029   -15012053.03049 -11417581.41746  22697032.251    22697039.650
  23120695.932    -9362025.84249  -7265556.95946  23120695.345    23120703.921
  23134456.536   -11819754.43949  -9194044.57245  23134456.139    23134463.316
  23660078.343   -10273314.29249  -7683879.33445  23660078.049    23660089.187
  23048018.608   -11498633.37849  19555991.94245  23048017.899    23048027.613
  23601959.584    -6655009.09048  11626497.14144  23601958.574    23601966.830
 03  4  2  2 31  0.0000000  0  7G14G25G31G11G 3G15G18
  20498652.104   -20156090.10549 -15053849.57047  20498651.639    20498657.015
  22679853.096   -15102332.43449 -11487928.93646  22679852.445    22679860.133
  23132054.638    -9302335.55149  -7219045.09646  23132053.983    23132062.532
  23117703.444   -11907792.74249  -9262645.69745  23117702.997    23117710.020
  23675799.078   -10190700.39249  -7619504.98345  23675798.836    23675809.982
  23067515.463   -11396177.93649  19635827.33145  23067514.542    23067524.292
  23615445.087    -6584140.56948  11681719.32544  23615444.528    23615453.377
 03  4  2  2 31 30.0000000  0  7G14G25G31G11G 3G15G18
  20505702.461   -20119040.78449 -15024979.96647  20505701.968    20505707.316
  22662713.662   -15192396.46949 -11558108.57746  22662713.531    22662721.550
  23143479.429    -9242297.51949  -7172262.27346  23143478.893    23143487.161
  23100995.881   -11995590.56649  -9331059.45945  23100995.524    23101002.320
  23691541.199   -10107974.51149  -7555043.37945  23691540.918    23691552.126
  23087057.983   -11293480.18649  19715851.50546  23087057.233    23087067.035
  23628948.848    -6513179.12949  11737013.87144  23628948.339    23628956.397
 03  4  2  2 32  0.0000000  0  7G14G25G31G11G 3G15G18
  20512826.892   -20081601.07249 -14995806.15447  20512826.406    20512831.827
  22645617.055   -15282239.00349 -11628115.65146  22645616.916    22645625.095
  23154970.618    -9181911.48149  -7125208.29346  23154970.108    23154977.974
  23084335.269   -12083142.36249  -9399281.52345  23084334.888    23084341.372
  23707304.659   -10025136.87049  -7490494.64745  23707304.414    23707315.548
  23106647.170   -11190538.99449  19796065.37246  23106646.521    23106656.159
  23642470.970    -6442121.89749  11792383.15044  23642470.397    23642478.273
 03  4  2  2 32 30.0000000  0  7G14G25G31G11G 3G15G18
  20520024.412   -20043777.21149 -14966333.01447  20520023.993    20520029.434
  22628562.496   -15371861.69049 -11697951.38046  22628562.222    22628570.436
  23166526.622    -9121184.21949  -7077888.46246  23166526.117    23166534.025
  23067721.186   -12170450.15649  -9467313.45045  23067720.720    23067727.044
  23723088.358    -9942194.36549  -7425864.24545  23723088.077    23723099.102
  23126281.587   -11087360.39849  19876464.25346  23126280.948    23126290.521
  23656010.142    -6370973.02249  11847823.81844  23656009.766    23656016.778
 03  4  2  2 33  0.0000000  0  7G14G25G31G11G 3G15G18
  20527295.440   -20005568.13349 -14936559.68847  20527294.959    20527300.421
  22611550.816   -15461258.64849 -11767611.21746  22611550.519    22611558.750
  23178147.696    -9060115.64449  -7030302.61746  23178147.253    23178155.148
  23051154.695   -12257508.32749  -9535150.89545  23051154.078    23051160.344
  23738891.982    -9859146.71249  -7361151.89845  23738891.696    23738902.644
  23145961.560   -10983942.90149  19957049.29945  23145960.875    23145970.150
  23669567.477    -6299729.57349  11903338.25144  23669567.297    23669573.043
 03  4  2  2 33 30.0000000  0  7G14G25G31G11G 3G15G18
  20534639.196   -19966976.24149 -14906488.09647  20534638.725    20534644.236
  22594582.289   -15550427.92849 -11837093.67046  22594582.196    22594590.419
  23189832.993    -8998709.17249  -6982453.46646  23189832.483    23189840.456
  23034635.771   -12344315.29849  -9602792.59945  23034635.165    23034641.411
  23754714.704    -9775997.95449  -7296360.77945  23754714.533    23754725.491
  23165685.977   -10880289.42649  20037818.19345  23165685.460    23165694.633
  23683142.967    -6228391.82849  11958926.12044  23683142.951    23683147.938
 03  4  2  2 34  0.0000000  0  7G14G25G31G11G 3G15G18
  20542055.534   -19928003.10149 -14876119.38647  20542055.071    20542060.594
  22577658.045   -15639365.85749 -11906395.82746  22577657.832    22577666.159
  23201582.175    -8936966.97849  -6934342.70846  23201581.639    23201589.572
  23018164.955   -12430867.99049  -9670236.19745  23018164.497    23018171.038
  23770556.317    -9692750.14049  -7231492.51245  23770556.266    23770567.314
  23185455.212   -10776400.98049  20118770.19845  23185454.664    23185463.819
  23696735.793    -6156959.21249  12014587.89744  23696736.072    23696741.954
 03  4  2  2 34 30.0000000  0  7G14G25G31G11G 3G15G18
  20549544.238   -19888649.74549 -14845454.44847  20549543.757    20549549.223
  22560778.304   -15728069.20349 -11975515.22046  22560778.109    22560786.562
  23213394.890    -8874891.33249  -6885972.17246  23213394.312    23213402.294
  23001743.263   -12517163.68649  -9737479.47345  23001742.806    23001749.238
  23786416.664    -9609405.46649  -7166548.70945  23786416.586    23786427.629
  23205269.186   -10672279.02949  20199904.13945  23205268.527    23205277.384
  23710346.865    -6085431.03549  12070324.09444  23710346.799    23710353.304
 03  4  2  2 35  0.0000000  0  7G14G25G31G11G 3G15G18
  20557104.573   -19848920.07449 -14814496.25947  20557104.053    20557109.489
  22543943.386   -15816536.83149 -12044450.94846  22543943.133    22543951.696
  23225269.957    -8812486.86149  -6837345.36546  23225269.371    23225277.651
  22985370.710   -12603201.05149  -9804521.43645  22985370.260    22985376.837
  23802294.368    -9525968.77049  -7101533.19845  23802294.155    23802305.324
  23225127.060   -10567927.20949  20281217.19745  23225126.319    23225134.960
  23723976.337    -6013809.14449  12126133.34244  23723975.853    23723982.634
 03  4  2  2 35 30.0000000  0  7G14G25G31G11G 3G15G18
  20564735.977   -19808816.27749 -14783246.54047  20564735.440    20564740.965
  22527153.449   -15904766.59749 -12113201.29146  22527153.297    22527161.970
  23237207.277    -8749756.56049  -6788464.65546  23237206.736    23237215.174
  22969047.706   -12688979.02549  -9871361.33045  22969047.209    22969053.521
  23818188.865    -9442443.29049  -7036448.53245  23818188.472    23818199.956
  23245028.332   -10463347.73949  20362707.60645  23245027.442    23245035.985
  23737623.632    -5942093.67949  12182015.52644  23737623.126    23737629.837
 03  4  2  2 36  0.0000000  0  7G14G25G31G11G 3G15G18
  20572438.115   -19768340.55449 -14751707.00447  20572437.678    20572443.248
  22510409.485   -15992755.74849 -12181764.23246  22510409.437    22510417.951
  23249205.791    -8686703.55349  -6739332.49946  23249205.231    23249213.827
  22952774.576   -12774494.93249  -9937996.94746  22952774.126    22952780.357
  23834099.928    -9358831.85449  -6971296.89345  23834099.436    23834110.730
  23264972.207   -10358542.75849  20444373.79845  23264971.186    23264979.976
  23751288.872    -5870285.07749  12237970.20944  23751288.115    23751294.648
 03  4  2  2 36 30.0000000  0  7G14G25G31G11G 3G15G18
  20580211.350   -19727492.96949 -14719877.72247  20580210.876    20580216.300
  22493712.432   -16080499.61249 -12250135.93546  22493712.238    22493720.647
  23261265.608    -8623328.87449  -6689949.70746  23261265.051    23261273.555
  22936552.032   -12859744.66649 -10004425.19046  22936551.646    22936558.000
  23850026.849    -9275135.79249  -6906079.29945  23850026.330    23850037.588
  23284958.435   -10253512.16349  20526215.75145  23284957.480    23284966.737
  23764971.251    -5798381.31949  12293998.99644  23764970.003    23764976.444
 03  4  2  2 37  0.0000000  0  7G14G25G31G11G 3G15G18
  20588055.220   -19686273.54649 -14687758.67147  20588054.677    20588060.046
  22477062.870   -16167993.36649 -12318312.77646  22477062.603    22477070.899
  23273386.694    -8559633.28349  -6640316.81746  23273386.090    23273394.600
  22920381.136   -12944723.32649 -10070642.19146  22920380.761    22920387.071
  23865969.672    -9191356.10349  -6840796.54845  23865969.174    23865980.368
  23304987.748   -10148255.98049  20608233.46945  23304986.784    23304996.329
  23778672.646    -5726380.21049  12350103.73344  23778671.388    23778678.359
 03  4  2  2 37 30.0000000  0  7G14G25G31G11G 3G15G18
  20595968.190   -19644689.52949 -14655355.55247  20595967.728    20595973.178
  22460460.292   -16255240.44949 -12386297.41446  22460459.937    22460468.155
  23285567.276    -8495624.98149  -6590440.28946  23285566.647    23285575.200
  22904261.094   -13029434.31749 -10136650.64846  22904260.801    22904267.110
  23881926.951    -9107500.77049  -6775454.86245  23881926.318    23881937.468
  23325058.645   -10042781.68449  20690421.17545  23325057.728    23325067.237
  23792391.937    -5654287.40649  12406279.98144  23792390.531    23792397.735
 03  4  2  2 38  0.0000000  0  7G14G25G31G11G 3G15G18
  20603950.903   -19602740.10449 -14622667.67747  20603950.442    20603955.912
  22443905.605   -16342234.81649 -12454085.11246  22443905.378    22443913.493
  23297807.041    -8431304.31149  -6540320.34346  23297806.464    23297815.400
  22888192.970   -13113872.57149 -10202446.56146  22888192.744    22888199.198
  23897898.234    -9023569.68449  -6710054.14545  23897897.601    23897908.945
  23345171.414    -9937088.34549  20772779.53745  23345170.634    23345179.523
  23806128.665    -5582100.04548  12462529.94244  23806127.558    23806134.907
 03  4  2  2 38 30.0000000  0  7G14G25G31G11G 3G15G18
  20612002.971   -19560427.35449 -14589696.68447  20612002.408    20612007.796
  22427399.690   -16428973.67249 -12521673.68846  22427399.494    22427407.367
  23310105.923    -8366673.95649  -6489959.08946  23310105.369    23310114.374
  22872177.303   -13198035.64149 -10268028.03946  22872177.051    22872183.582
  23913883.309    -8939565.96149  -6644596.83045  23913882.793    23913894.269
  23365325.904    -9831177.88749  20855307.11245  23365325.052    23365333.557
  23819883.519    -5509817.43948  12518854.05544                  23819882.947
 03  4  2  2 39  0.0000000  0  7G14G25G31G11G 3G15G18
  20620123.874   -19517751.65949 -14556442.89147  20620123.396    20620128.691
  22410943.257   -16515453.04049 -12589060.03146  22410943.047    22410950.772
  23322463.606    -8301735.17749  -6439357.47546  23322463.044    23322471.989
  22856214.792   -13281919.53349 -10333391.99746  22856214.532    22856220.902
  23929881.980    -8855491.32349  -6579084.22245  23929881.667    23929893.510
  23385521.362    -9725050.78949  20938003.49345  23385520.441    23385528.999
  23833657.193    -5437436.27948  12575254.97744                  23833656.512
 03  4  2  2 39 30.0000000  0  6G14G25G31G11G 3G15
  20628312.348   -19474720.94449 -14522912.45847  20628311.827    20628317.141
  22394535.626   -16601676.19449 -12656246.77446  22394535.425    22394542.888
  23334878.071    -8236497.06549  -6388522.62546  23334877.560    23334886.330
  22840304.716   -13365527.60749 -10398541.01346  22840304.456    22840310.804
  23945892.735    -8771354.50449  -6513523.17645  23945892.493    23945904.633
  23405756.250    -9618714.98049  21020862.52545  23405755.353    23405764.390
 03  4  2  2 40  0.0000000  0  6G14G25G31G11G 3G15
  20636568.845   -19431332.34249 -14489103.14747  20636568.271    20636573.638
  22378178.228   -16687635.23349 -12723227.68446  22378178.030    22378185.231
  23347349.891    -8170957.48949  -6337452.85946  23347349.337    23347358.038
  22824448.443   -13448852.97349 -10463469.74246  22824448.094    22824454.419
  23961915.800    -8687153.38049  -6447911.99245  23961915.541    23961927.908
  23426031.214    -9512167.28749  21103886.64245  23426030.437    23426040.111
 03  4  2  2 40 30.0000000  0  6G14G25G31G11G 3G15
  20644893.553   -19387585.52749 -14455014.71347  20644893.008    20644898.346
  22361872.136   -16773325.14049 -12789998.85546  22361871.779    22361878.809
  23359878.940    -8105117.07449  -6286148.69046  23359878.423    23359887.138
  22808646.648   -13531890.95049 -10528174.55346  22808646.263    22808652.639
  23977951.100    -8602888.30749  -6382251.07745  23977950.890    23977963.245
  23446346.878    -9405407.40249  21187076.14345  23446346.251    23446356.169
 03  4  2  2 41  0.0000000  0  6G14G25G31G11G 3G15
  20653285.378   -19343485.87749 -14420651.36947  20653284.848    20653290.234
  22345616.558   -16858747.04149 -12856561.27146  22345616.342    22345623.342
  23372463.992    -8038982.12549  -6234615.01446  23372463.500    23372472.104
  22792899.337   -13614642.30049 -10592655.98746  22792898.935    22792905.547
  23993997.422    -8518566.05049  -6316545.51245  23993997.160    23994009.227
  23466702.034    -9298440.88448  21270426.67845  23466701.381    23466711.419
 03  4  2  2 41 30.0000000  0  6G14G25G31G11G 3G15
  20661744.220   -19299034.26549 -14386013.72647  20661743.663    20661749.096
  22329412.877   -16943896.91549 -12922911.68846  22329412.670    22329419.837
  23385104.730    -7972554.62649  -6182853.38046  23385104.269    23385112.860
  22777207.094   -13697103.86549 -10656911.64846  22777206.749    22777213.637
  24010054.285    -8434188.19249  -6250796.67945  24010053.995    24010065.629
  23487096.215    -9191268.63049  21353937.49945  23487095.673    23487105.714
 03  4  2  2 42  0.0000000  0  6G14G25G31G11G 3G15
  20670269.806   -19254231.77649 -14351102.68747  20670269.241    20670274.733
  22313261.726   -17028771.05249 -12989047.26346  22313261.491    22313268.825
  23397800.932    -7905836.25149  -6130865.08946  23397800.459    23397808.841
  22761570.650   -13779272.28849 -10720938.87346  22761570.413    22761577.524
  24026120.998    -8349756.65349  -6185006.00345  24026120.962    24026132.241
  23507529.515    -9083891.51049  21437607.94945  23507528.937    23507538.924
 03  4  2  2 42 30.0000000  0  6G14G25G31G11G 3G15
  20678861.122   -19209084.39549 -14315922.89547  20678860.523    20678865.956
  22297162.909   -17113370.70549 -13054968.99046  22297162.616    22297170.079
  23410551.041    -7838833.92449  -6078655.51646  23410550.672    23410558.943
  22745990.155   -13861148.53249 -10784738.44646  22745989.869    22745996.872
  24042196.783    -8265278.04549  -6119178.68945  24042196.754    24042208.047
  23528000.384    -8976315.45949  21521433.38145  23527999.814    23528009.941
 03  4  2  2 43  0.0000000  0  6G14G25G31G11G 3G15
  20687518.187   -19163591.80549 -14280474.12747  20687517.619    20687522.890
  22281117.205   -17197691.20149 -13120673.16146  22281116.914    22281124.575
  23423355.219    -7771548.59849  -6026225.44246  23423354.868    23423363.014
  22730465.984   -13942728.55249 -10848307.18846  22730465.666    22730472.593
  24058281.504    -8180753.11749  -6053315.27045  24058281.427    24058292.708
  23548509.490    -8868540.37749  21605413.90145  23548508.697    23548518.832
 03  4  2  2 43 30.0000000  0  6G14G25G31G11G 3G15
  20696240.491   -19117755.65849 -14244757.63347  20696239.901    20696245.206
  22265125.024   -17281729.57349 -13186157.53546  22265124.745    22265132.635
  23436212.716    -7703982.80349  -5973576.81546  23436212.268    23436220.255
  22714998.699   -14024009.44749 -10911642.82646  22714998.394    22715005.192
  24074374.645    -8096184.25649  -5987417.60545  24074374.447    24074385.839
  23569056.244    -8760567.96749  21689548.17745  23569055.421    23569065.208
 03  4  2  2 44  0.0000000  0  6G14G25G31G11G 3G15
  20705027.226   -19071581.30449 -14208777.60347  20705026.608    20705031.963
  22249186.426   -17365486.25549 -13251422.36646  22249186.229    22249194.289
  23449122.476    -7636142.32349  -5920714.17145  23449122.020    23449129.550
  22699588.249   -14104991.98149 -10974746.03446  22699587.952    22699594.634
  24090474.913    -8011577.69849  -5921490.55745  24090474.761    24090485.992
  23589639.699    -8652403.20749  21773832.35145  23589638.802    23589648.373
 03  4  2  2 44 30.0000000  0  6G14G25G31G11G 3G15
  20713878.327   -19025067.75349 -14172533.27247  20713877.821    20713883.222
  22233302.726   -17448955.87049 -13316463.56346  22233302.445    22233310.541
  23462084.449    -7568027.51249  -5867637.69246  23462083.897    23462091.131
  22684235.598   -14185671.32049 -11037612.95246  22684235.280    22684241.715
  24106582.604    -7926933.30349  -5855534.02945  24106582.330    24106593.404
  23610260.039    -8544045.12049  21858267.18045  23610259.047    23610268.396
 03  4  2  2 45  0.0000000  0  6G14G25G31G11G 3G15
  20722793.839   -18978216.48449 -14136025.77347  20722793.359    20722798.701
  22217474.017   -17532135.36149 -13381278.61046  22217473.793    22217481.858
  23475098.158    -7499640.92549  -5814349.49245  23475097.538    23475104.672
  22668941.088   -14266044.45849 -11100241.28246  22668940.809    22668947.072
  24122696.704    -7842253.59949  -5789549.99845  24122696.534    24122707.385
  23630916.008    -8435495.50749  21942851.24145  23630915.179    23630924.803
 03  4  2  2 45 30.0000000  0  6G14G25G31G11G 3G15
  20731773.492   -18931028.22549 -14099255.70547  20731773.032    20731778.268
  22201701.320   -17615020.55249 -13445864.38946  22201701.123    22201709.187
  23488163.079    -7430983.93149  -5760850.57045  23488162.453    23488169.580
  22653705.538   -14346107.12449 -11162627.69446  22653705.307    22653711.625
  24138817.605    -7757539.84849  -5723539.41545  24138817.284    24138827.772
  23651608.273    -8326754.82549  22027584.18245  23651607.673    23651617.136
 03  4  2  2 46  0.0000000  0  6G14G25G31G11G 3G15
  20740816.814   -18883505.61349 -14062225.07447  20740816.292    20740821.471
  22185984.942   -17697609.53549 -13510219.31546  22185984.803    22185992.900
  23501278.712    -7362060.51549  -5707144.12245  23501278.016    23501285.379
  22638529.131   -14425858.17049 -11224771.27746  22638528.923    22638535.447
  24154944.066    -7672795.59549  -5657505.10745  24154943.850    24154954.112
  23672336.637    -8217826.03049  22112463.65545  23672335.915    23672345.199
 03  4  2  2 46 30.0000000  0  6G14G25G31G11G 3G15
  20749923.116   -18835651.14249 -14024935.84547  20749922.697    20749927.923
  22170325.473   -17779899.99049 -13574341.63546  22170325.363    22170333.352
  23514444.032    -7292873.87949  -5653232.55345  23514443.381    23514450.995
  22623412.352   -14505295.62849 -11286670.52246  22623412.238    22623418.922
  24171075.822    -7588024.38449  -5591449.76545  24171075.482    24171085.763
  23693100.329    -8108711.62849  22197487.82345  23693099.678    23693108.434
 03  4  2  2 47  0.0000000  0  6G14G25G31G11G 3G15
  20759091.563   -18787470.27749 -13987392.31847  20759091.091    20759096.496
  22154722.777   -17861893.12849 -13638232.27246  22154722.714    22154730.386
  23527658.267    -7223430.51749  -5599120.85945  23527657.683    23527665.455
  22608355.180   -14584420.65449 -11348326.29346  22608355.062    22608361.843
  24187211.288    -7503232.18649  -5525378.06945  24187210.912    24187221.409
  23713899.038    -7999416.92749  22282652.44945  23713898.399    23713906.211
 03  4  2  2 47 30.0000000  0  6G14G25G31G11G 3G15
  20768322.105   -18738962.81549 -13949594.29747  20768321.661    20768327.150
  22139177.876   -17943583.62449 -13701887.11146  22139177.626    22139185.034
  23540921.130    -7153730.88649  -5544809.53045  23540920.551    23540929.091
  22593358.817   -14663228.33249 -11409734.80846  22593358.543    22593365.150
  24203350.502    -7418419.50149  -5459290.43445  24203350.210    24203361.052
  23734732.112    -7889941.60949  22367957.83145  23734731.217    23734738.874
 03  4  2  2 48  0.0000000  0  6G14G25G31G11G 3G15
  20777614.113   -18690132.12349 -13911544.39547  20777613.718    20777619.326
  22123690.419   -18024970.00349 -13765304.96546  22123690.239    22123697.514
  23554232.205    -7083779.28649  -5490301.86445  23554231.694    23554240.718
  22578422.892   -14741717.40949 -11470895.07046  22578422.534    22578429.048
  24219492.694    -7333590.63249  -5393190.16145  24219492.545    24219503.635
  23755598.078    -7780289.19749  22453401.23345  23755597.194    23755605.512
 03  4  2  2 48 30.0000000  0  6G14G25G31G11G 3G15
  20786968.475   -18640974.77449 -13873239.95547  20786968.081    20786973.655
  22108262.297   -18106044.51649 -13828479.82246  22108262.069    22108269.366
  23567591.726    -7013573.82949  -5435596.37945  23567591.068    23567600.851
  22563548.704   -14819880.81849 -11531801.55346  22563548.341    22563554.945
  24235638.718    -7248743.11749  -5327075.37245  24235638.546    24235649.719
  23776498.080    -7670456.55649  22538985.09545  23776497.284    23776506.274
 03  4  2  2 49  0.0000000  0  6G14G25G31G11G 3G15
  20796384.189   -18591495.99449 -13834685.04047  20796383.683    20796389.126
  22092893.264   -18186807.94849 -13891412.28746  22092893.089    22092900.496
  23580998.383    -6943120.19749  -5380697.52945  23580997.965    23581008.143
  22548736.511   -14897718.98949 -11592454.60546  22548736.045    22548742.675
  24251787.342    -7163882.57749  -5260950.44145  24251787.117    24251798.346
  23797431.588    -7560448.44749  22624705.69945  23797430.901    23797440.300
 03  4  2  2 49 30.0000000  0  6G14G25G31G11G 3G15
  20805860.771   -18541695.92049 -13795879.75847  20805860.302    20805865.727
  22077584.322   -18267256.17349 -13954099.10246  22077584.117    22077591.647
  23594452.505    -6872419.66249  -5325606.29945  23594452.060    23594462.314
  22533986.830   -14975227.60549 -11652850.85346  22533986.436    22533993.126
  24267938.132    -7079010.27949  -5194816.34745  24267937.945    24267949.139
  23818398.324    -7450265.20749  22710562.74445  23818397.765    23818407.707
 03  4  2  2 50  0.0000000  0  6G14G25G31G11G 3G15
  20815397.702   -18491579.77249 -13756828.20547  20815397.190    20815402.481
  22062335.538   -18347389.47449 -14016540.55946  22062335.124    22062342.758
  23607952.226    -6801478.41349  -5270327.49245  23607951.885    23607962.258
  22519299.969   -15052407.78949 -11712991.21246  22519299.583    22519306.023
  24284090.067    -6994132.04149  -5128677.60445  24284089.864    24284101.072
  23839398.255    -7339912.28549  22796551.98945  23839397.548    23839407.278
 03  4  2  2 50 30.0000000  0  6G14G25G31G11G 3G15
  20824994.014   -18441150.86149 -13717532.91847  20824993.477    20824998.658
  22047146.680   -18427206.38349 -14078735.48146  22047146.368    22047154.000
  23621497.114    -6730300.73549  -5214864.44746  23621496.767    23621507.297
  22504675.627   -15129258.28549 -11772874.66446  22504675.298    22504681.753
  24300242.429    -6909252.14249  -5062537.56145  24300242.093    24300253.248
  23860429.272    -7229392.72249  22882671.11145  23860428.590    23860438.517
 03  4  2  2 51  0.0000000  0  6G14G25G31G11G 3G15
  20834650.065   -18390407.02949 -13677992.23747  20834649.552    20834654.849
  22032019.432   -18506700.33849 -14140678.73946  22032019.190    22032026.608
  23635087.017    -6658885.42649  -5159216.25646  23635086.679    23635097.665
  22490115.247   -15205772.53949 -11832496.09446  22490114.998    22490121.655
  24316395.371    -6824368.90849  -4996394.92445  24316394.989    24316406.239
  23881492.228    -7118704.45448  22968921.65045  23881491.807    23881502.029
 03  4  2  2 51 30.0000000  0  6G14G25G31G11G 3G15
  20844365.144   -18339352.98449 -13638209.85247  20844364.737    20844370.071
  22016953.636   -18585871.66949 -14202370.60447  22016953.440    22016960.633
  23648721.630    -6587238.25449  -5103387.38046  23648721.120    23648732.181
  22475618.803   -15281951.10349 -11891855.94546  22475618.513    22475625.461
  24332547.790    -6739488.13849  -4930254.20745  24332547.308    24332559.022
  23902586.712    -7007852.20149  23055299.95245  23902586.273    23902596.755
 03  4  2  2 52  0.0000000  0  6G14G25G31G11G 3G15
  20854139.295   -18287989.38349 -13598186.25747  20854138.920    20854144.303
  22001950.071   -18664716.05049 -14263807.69047  22001949.877    22001956.954
  23662399.646    -6515360.69149  -5047378.96246  23662399.161    23662410.322
  22461187.082   -15357790.10249 -11950951.20646  22461186.764    22461193.878
  24348699.223    -6654610.98449  -4864116.30845  24348698.867    24348710.919
  23923712.517    -6896836.70549  23141805.45345  23923711.878    23923722.704
 03  4  2  2 52 30.0000000  0  6G14G25G31G11G 3G15
  20863971.405   -18236320.99049 -13557925.15047  20863971.123    20863976.453
  21987008.457   -18743234.12649 -14324990.50047  21987008.361    21987015.371
  23676120.454    -6443258.65749  -4991195.62246  23676119.912    23676131.089
  22446819.822   -15433290.17649 -12009782.32846  22446819.481    22446826.802
  24364848.857    -6569743.17049  -4797985.70245  24364848.507    24364860.884
  23944868.661    -6785663.07449  23228434.16945  23944867.952    23944878.496
 03  4  2  2 53  0.0000000  0  6G14G25G31G11G 3G15
  20873861.506   -18184348.17049 -13517426.84947  20873861.177    20873866.658
  21972129.923   -18821421.71949 -14385915.78347  21972129.692    21972136.789
  23689883.872    -6370933.48949  -4934838.44446  23689883.275    23689894.187
  22432517.695   -15508447.24649 -12068346.23346  22432517.422    22432524.900
  24380996.476    -6484885.67449  -4731863.19145  24380996.147    24381008.872
  23966054.779    -6674331.52449  23315185.95445  23966054.125    23966064.208
 03  4  2  2 53 30.0000000  0  6G14G25G31G11G 3G15
  20883809.326   -18132071.89049 -13476692.08047  20883808.930    20883814.570
  21957314.761   -18899275.16349 -14446580.71947  21957314.647    21957321.759
  23703689.415    -6298386.91349  -4878308.75246  23703688.756    23703699.334
  22418281.610   -15583257.70549 -12126639.99146  22418281.327    22418288.872
  24397142.141    -6400040.01949  -4665749.88445  24397141.769    24397154.468
  23987270.655    -6562842.99549  23402060.07745  23987269.919    23987279.711
 03  4  2  2 54  0.0000000  0  6G14G25G31G11G 3G15
  20893813.992   -18079496.47049 -13435724.21747  20893813.624    20893819.404
  21942563.379   -18976794.03549 -14506984.97047  21942563.260    21942570.234
  23717536.150    -6225624.46649  -4821610.80846  23717535.421    23717545.452
  22404111.499   -15657721.62249 -12184663.77746  22404111.266    22404118.648
  24413284.449    -6315211.25449  -4599649.67545  24413284.017    24413296.895
  24008515.340    -6451201.82349  23489053.18645  24008514.402    24008524.312
 03  4  2  2 54 30.0000000  0  6G14G25G31G11G 3G15
  20903875.997   -18026620.32049 -13394522.03447  20903875.548    20903881.325
  21927876.772   -19053972.65349 -14567124.06147  21927876.537    21927883.445
  23731423.914    -6152645.35049  -4764744.05146  23731423.247    23731432.669
  22390008.616   -15731833.09149 -12242412.91046  22390008.360    22390015.568
  24429423.766    -6230398.70949  -4533562.16445  24429423.372    24429436.171
  24029788.977    -6339406.74849  23576166.18745  24029788.124    24029798.114
 03  4  2  2 55  0.0000000  0  6G14G25G31G11G 3G15
  20913994.684   -17973446.71349 -13353088.04247  20913994.233    20913999.887
  21913255.007   -19130809.47249 -14626996.82246  21913254.840    21913261.756
  23745351.801    -6079454.01649  -4707711.96445  23745351.116    23745360.215
  22375973.028   -15805591.10949 -12299886.63446  22375972.736    22375979.655
  24445559.507    -6145606.33149  -4467490.37545  24445559.071    24445572.134
  24051091.499    -6227460.78349  23663396.77845  24051090.716    24051100.593
 03  4  2  2 55 30.0000000  0  6G14G25G31G11G 3G15
  20924169.162   -17919979.90249 -13311425.59647  20924168.699    20924174.166
  21898698.372   -19207303.87449 -14686602.76046  21898698.247    21898705.275
  23759318.515    -6006055.62249  -4650518.44545  23759318.016    23759327.480
  22362004.687   -15878995.56449 -12357084.82046  22362004.317    22362011.142
  24461690.522    -6060839.11049  -4401438.17445  24461690.123    24461703.402
  24072422.417    -6115368.08549  23750741.67545  24072421.420    24072431.222
 03  4  2  2 56  0.0000000  0  6G14G25G31G11G 3G15
  20934398.786   -17866222.50749 -13269536.70047  20934398.378    20934403.781
  21884207.273   -19283454.64349 -14745940.93846  21884207.149    21884214.159
  23773324.537    -5932453.90549  -4593166.56246  23773324.030    23773333.468
  22348103.864   -15952045.09049 -12414006.45646  22348103.599    22348110.245
  24477815.929    -5976100.42849  -4335408.22045  24477815.631    24477828.960
  24093780.253    -6003131.77749  23838198.52745  24093779.294    24093789.123
 03  4  2  2 56 30.0000000  0  6G14G25G31G11G 3G15
  20944684.473   -17812170.44949 -13227418.20946  20944684.067    20944689.334
  21869783.277   -19359253.25449 -14805004.71546  21869783.035    21869790.154
  23787369.787    -5858645.70049  -4535653.74446  23787369.307    23787378.909
  22334272.261   -16024730.88549 -12470644.68846  22334272.005    22334278.452
  24493936.623    -5891386.56849  -4269397.60045  24493936.300    24493949.578
  24115165.997    -5890747.75649  23925770.39945  24115165.118    24115175.207
 03  4  2  2 57  0.0000000  0  6G14G25G31G11G 3G15
  20955025.094   -17757830.25649 -13185075.18246  20955024.708    20955029.940
  21855425.695   -19434701.55349 -14863795.51546  21855425.485    21855432.838
  23801452.951    -5784638.56949  -4477985.92046  23801452.477    23801462.260
  22320509.533   -16097055.26249 -12527001.26646  22320509.303    22320515.433
  24510051.228    -5806705.24149  -4203412.33045  24510050.915    24510063.664
  24136578.509    -5778222.80849  24013452.16145  24136577.825    24136588.138
 03  4  2  2 57 30.0000000  0  6G14G25G31G11G 3G15
  20965420.077   -17703204.54049 -13142509.67646  20965419.732    20965424.919
  21841135.136   -19509797.56049 -14922311.79246  21841135.037    21841142.515
  23815573.362    -5710436.06549  -4420165.81346  23815573.001    23815582.858
  22306815.940   -16169016.35849 -12583074.82147  22306815.693    22306821.660
  24526158.697    -5722059.28749  -4137454.60945  24526158.244    24526171.140
  24158017.803    -5665559.38049  24101241.79345  24158016.753    24158027.469
 03  4  2  2 58  0.0000000  0  6G14G25G31G11G 3G15
  20975869.222   -17648294.55049 -13099722.66846  20975868.778    20975873.931
  21826912.509   -19584538.44449 -14980551.37146  21826912.363    21826919.783
  23829730.724    -5636040.46349  -4362195.31446  23829730.330    23829740.080
  22293191.994   -16240611.29949 -12638863.01547  22293191.595    22293197.617
  24542258.871    -5637450.70449  -4071526.03445  24542258.570    24542271.636
  24179482.676    -5552759.10949  24189138.03745  24179481.952    24179492.628
 03  4  2  2 58 30.0000000  0  6G14G25G31G11G 3G15
  20986372.610   -17593098.79949 -13056713.00346  20986372.167    20986377.314
  21812758.489   -19658918.32849 -15038509.68347  21812758.302    21812765.672
  23843924.859    -5561451.42049  -4304074.06045  23843924.494    23843933.731
  22279638.543   -16311834.46849 -12694361.51147  22279638.208    22279644.185
  24558352.028    -5552878.68549  -4005625.99745  24558351.657    24558365.220
  24200974.394    -5439820.48249  24277142.12345  24200973.724    24200984.401
 03  4  2  2 59  0.0000000  0  6G14G25G31G11G 3G15
  20996929.016   -17537624.46449 -13013486.23646  20996928.549    20996933.652
  21798672.657   -19732939.14749 -15096188.13947  21798672.543    21798679.937
  23858153.930    -5486676.81249  -4245808.21145  23858153.455    23858162.653
  22266155.351   -16382688.29549 -12749572.22646  22266155.072    22266160.975
  24574437.001    -5468351.17049  -3939760.57645  24574436.731    24574450.108
  24222491.150    -5326750.38049  24365248.63845  24222490.588    24222501.264
 03  4  2  2 59 30.0000000  0  6G14G25G31G11G 3G15
  21007538.481   -17481871.25649 -12970042.16246  21007537.964    21007542.954
  21784656.151   -19806596.74749 -15153583.61047  21784655.887    21784663.259
  23872417.730    -5411717.69549  -4187398.60845  23872417.430    23872426.810
  22252743.174   -16453168.55749 -12804491.83946  22252742.936    22252748.859
  24590513.645    -5383868.62849  -3873930.23145  24590513.351    24590527.068
  24244032.665    -5213548.94549  24453457.50045  24244032.255    24244042.916
 03  4  2  3  0  0.0000000  0  6G14G25G31G11G 3G15
  21018200.829   -17425840.53349 -12926381.87746  21018200.323    21018205.200
  21770709.082   -19879888.22649 -15210693.82847  21770708.812    21770716.331
  23886716.221    -5336576.21449  -4128846.86745  23886716.100    23886725.461
  22239402.863   -16523272.27449 -12859118.08146  22239402.563    22239408.585
  24606581.417    -5299432.78149  -3808136.28145  24606581.328    24606595.167
  24265599.082    -5100217.60249  24541767.59845  24265598.197    24265609.537
 03  4  2  3  0 30.0000000  0  6G14G25G31G11G 3G15
  21028915.126   -17369536.14749 -12882508.31846  21028914.605    21028919.505
  21756831.726   -19952813.37749 -15267518.54747  21756831.619    21756839.074
  23901048.765    -5261257.47549  -4070157.04745  23901048.618    23901058.041
  22226134.068   -16592999.12649 -12913450.62946  22226133.788    22226140.047
  24622639.502    -5215048.61849  -3742382.59345  24622639.320    24622653.129
  24287189.275    -4986760.47649  24630175.69444  24287188.250    24287199.560
 03  4  2  3  1  0.0000000  0  6G14G25G31G11G 3G15
  21039681.503   -17312957.49349 -12838421.06746  21039681.062    21039686.015
  21743025.419   -20025367.06049 -15324053.80747  21743025.197    21743032.441
  23915415.241    -5185761.91349  -4011329.37445  23915414.923    23915424.534
  22212937.857   -16662344.37649 -12967485.84746  22212937.614    22212944.042
  24638687.867    -5130716.22049  -3676669.18645  24638687.720    24638701.557
  24308803.236    -4873176.81149  24718682.36744  24308802.225    24308812.804
 03  4  2  3  1 30.0000000  0  6G14G25G31G11G 3G15
  21050499.272   -17256109.47249 -12794123.92546  21050498.863    21050503.865
  21729289.632   -20097549.36749 -15380299.67147  21729289.406    21729296.493
  23929814.294    -5110095.29549  -3952368.46845  23929813.754    23929823.536
  22199814.077   -16731308.53849 -13021224.08946  22199813.889    22199820.610
  24654725.492    -5046440.78749  -3611000.22645  24654725.258    24654738.925
  24330440.708    -4759471.81449  24807283.57144  24330439.704    24330449.357
 03  4  2  3  2  0.0000000  0  6G14G25G31G11G 3G15
  21061368.189   -17198993.55549 -12749618.00146  21061367.778    21061372.690
  21715624.989   -20169357.87249 -15436254.28147  21715624.796    21715631.694
  23944245.578    -5034260.23849  -3893276.28145  23944245.053    23944254.263
  22186763.519   -16799888.77849 -13074663.19446  22186763.364    22186770.192
  24670751.683    -4962224.61949  -3545377.36845  24670751.304    24670764.783
  24352101.111    -4645646.85349  24895978.32744  24352100.632    24352107.582
 03  4  2  3  2 30.0000000  0  6G14G25G31G11G 3G15
  21072288.009   -17141610.19449 -12704903.67646  21072287.529    21072292.463
  21702032.242   -20240788.35549 -15491914.33147  21702032.006    21702038.792
  23958708.539    -4958257.98849  -3834053.95345  23958708.091    23958716.408
  22173786.835   -16868081.36449 -13127800.19046  22173786.677    22173793.581
  24686766.124    -4878068.46449  -3479801.39645  24686765.847    24686779.199
  24373784.166    -4531702.42649  24984766.09244  24373783.810    24373790.470
 03  4  2  3  3  0.0000000  0  6G14G25G31G11G 3G15
  21083257.523   -17083964.65549 -12659985.07846  21083257.075    21083262.058
  21688511.067   -20311841.74749 -15547280.50947  21688510.907    21688517.690
  23973201.980    -4882094.96549  -3774706.21545  23973201.398    23973209.334
  22160883.801   -16935887.22649 -13180635.89346  22160883.589    22160890.514
  24702768.103    -4793978.10149  -3414276.66645  24702768.029    24702781.068
  24395488.940    -4417644.21749  25073642.55944  24395488.485    24395495.694
 03  4  2  3  3 30.0000000  0  6G14G25G31G11G 3G15
  21094277.363   -17026055.05149 -12614860.66946  21094276.906    21094281.684
  21675062.830   -20382512.08649 -15602348.25747  21675062.756    21675069.493
  23987726.108    -4805770.37049  -3715232.59745  23987725.414    23987733.436
  22148055.574   -17003300.43349 -13233165.59846  22148055.390    22148062.107
  24718757.784    -4709952.72649  -3348802.58145  24718757.560    24718770.486
  24417215.679    -4303470.38049  25162609.10044  24417215.193    24417222.105
 03  4  2  3  4  0.0000000  0  6G14G25G31G11G 3G15
  21105346.785   -16967884.45149 -12569532.91446  21105346.353    21105351.129
  21661687.839   -20452798.09249 -15657116.49147  21661687.666    21661694.452
  24002279.512    -4729288.33149  -3655636.31345  24002279.098    24002287.774
  22135302.285   -17070319.75249 -13285388.40647  22135302.079    22135308.645
  24734734.521    -4625996.04549  -3283382.03045  24734734.379    24734746.976
  24438963.457    -4189184.40749  25251663.03845  24438963.059    24438969.886
 03  4  2  3  4 30.0000000  0  6G14G25G31G11G 3G15
  21116465.293   -16909456.16049 -12524004.37046  21116464.836    21116469.637
  21648386.058   -20522698.85849 -15711584.54747  21648385.894    21648392.650
  24016862.740    -4652653.29049  -3595920.77945  24016862.501    24016871.427
  22122624.199   -17136944.37449 -13337303.62546  22122623.986    22122630.228
  24750697.701    -4542111.96249  -3218017.97045  24750697.518    24750709.292
  24460732.169    -4074789.64449  25340801.72745  24460731.538    24460738.996
 03  4  2  3  5  0.0000000  0  6G14G25G31G11G 3G15
  21127632.624   -16850771.22249 -12478275.84946  21127632.145    21127636.913
  21635158.203   -20592211.13349 -15765749.87347  21635158.062    21635164.805
  24031474.999    -4575867.01149  -3536087.43945  24031474.685    24031483.544
  22110021.875   -17203171.17449 -13388908.89046  22110021.571    22110027.509
  24766646.784    -4458301.78449  -3152711.59145  24766646.397    24766657.962
  24482521.450    -3960286.93549  25430024.48345  24482520.812    24482528.708
 03  4  2  3  5 30.0000000  0  6G14G25G31G11G 3G15
  21138848.374   -16791831.58649 -12432348.83846  21138848.000    21138852.715
  21622004.608   -20661332.82749 -15819610.81446  21622004.488    21622011.177
  24046115.083    -4498932.71548  -3476138.81445  24046114.781    24046123.702
  22097495.409   -17268998.08249 -13440202.52646  22097495.043    22097500.873
  24782581.038    -4374568.37449  -3087465.06345  24782580.507    24782592.233
  24504330.877    -3845678.69249  25519329.56345  24504330.184    24504338.562
 03  4  2  3  6  0.0000000  0  5G14G25G31G11G15
  21150113.490   -16732633.47349 -12386220.42646  21150113.031    21150117.674
  21608926.920   -20730055.82849 -15873161.17546  21608926.851    21608933.448
  24060783.855    -4421847.56649  -3416072.52745  24060783.446    24060792.564
  22085046.463   -17334417.07949 -13491178.30647  22085046.121    22085051.981
  24526160.999    -3730961.03149  25608719.88545  24526160.412    24526169.192
 03  4  2  3  6 30.0000000  0  5G14G25G31G11G15
  21161425.962   -16673186.21549 -12339897.84646  21161425.500    21161430.235
  21595924.310   -20798385.17749 -15926404.70446  21595924.233    21595930.577
  24075479.375    -4344622.11049  -3355896.92545  24075478.773    24075487.833
  22072674.223   -17399433.21249 -13541840.19146  22072673.846    22072679.746
  24548010.131    -3616143.89349  25698187.72845  24548009.607    24548018.681
 03  4  2  3  7  0.0000000  0  5G14G25G31G11G15
  21172785.411   -16613491.01949 -12293382.11946  21172785.056    21172789.943
  21582997.259   -20866317.75849 -15979339.14746  21582997.112    21583003.414
  24090201.189    -4267258.49949  -3295613.63545  24090200.622    24090209.710
  22060379.076   -17464043.59349 -13592185.90146  22060378.678    22060384.647
  24569878.145    -3501228.33349  25787732.25445  24569877.517    24569886.886
 03  4  2  3  7 30.0000000  0  5G14G25G31G11G15
  21184191.669   -16553550.05049 -12246674.87946  21184191.340    21184196.433
  21570145.761   -20933851.80549 -16031962.99146  21570145.749    21570152.179
  24104948.903    -4189759.76949  -3235225.17245  24104948.320    24104958.019
  22048161.570   -17528246.38149 -13642214.00746  22048161.255    22048167.242
  24591764.209    -3386216.73249  25877351.61945  24591763.436    24591773.236
 03  4  2  3  8  0.0000000  0  5G14G25G31G11G15
  21195644.335   -16493365.54449 -12199777.86247  21195644.021    21195649.241
  21557370.693   -21000985.63849 -16084275.03147  21557370.533    21557377.029
  24119721.834    -4112129.55549  -3174734.17845  24119721.264    24119731.389
  22036022.094   -17592039.71449 -13691923.01146  22036021.750    22036027.801
  24613667.839    -3271111.75249  25967043.77745  24613667.103    24613677.130
 03  4  2  3  8 30.0000000  0  5G14G25G31G11G15
  21207143.672   -16432936.62949 -12152690.40847  21207143.310    21207148.506
  21544672.508   -21067713.81549 -16136270.95346  21544672.454    21544679.135
  24134519.612    -4034367.66449  -3114140.57445  24134519.009    24134529.581
  22023961.471   -17655418.41649 -13741308.97446  22023961.129    22023967.283
  24635589.220    -3155912.59049  26056809.31545  24635588.508    24635598.874
 03  4  2  3  9  0.0000000  0  5G14G25G31G11G15
  21218688.451   -16372268.73449 -12105416.71847  21218688.078    21218693.285
  21532051.238   -21134038.13549 -16187952.17546  21532051.241    21532057.910
  24149341.160    -3956480.94849  -3053449.73345  24149340.678    24149351.179
  22011979.594   -17718384.00649 -13790373.00347  22011979.204    22011985.234
  24657527.296    -3040624.72749  26146643.96145  24657526.590    24657537.635
 03  4  2  3  9 30.0000000  0  5G14G25G31G11G15
  21230279.278   -16311358.90649 -12057954.51547  21230278.824    21230284.075
  21519508.629   -21199951.30549 -16239313.02747  21519508.514    21519514.934
  24164186.920    -3878467.39649  -2992660.05945  24164186.392    24164196.918
  22000077.598   -17780929.67549 -13839109.86247  22000077.164    22000083.162
  24679482.588    -2925245.59249  26236549.74045  24679482.110    24679493.596
 03  4  2  3 10  0.0000000  0  4G14G25G31G11
  21241910.763   -16250234.35149 -12010324.99347  21241910.361    21241915.620
  21507039.809   -21265475.78649 -16290370.98547  21507039.756    21507045.930
  24179051.168    -3800355.21249  -2931793.49945  24179050.681    24179061.424
  21988251.004   -17843078.22249 -13887537.24247  21988250.701    21988256.677
 03  4  2  3 10 30.0000000  0  4G14G25G31G11
  21253589.209   -16188863.50549 -11962503.54347  21253588.857    21253594.081
  21494651.492   -21330576.65749 -16341098.83846  21494651.403    21494657.613
  24193939.892    -3722113.81249  -2870826.26645  24193939.404    24193950.193
  21976507.016   -17904794.11249 -13935627.52847  21976506.651    21976512.461
 03  4  2  3 11  0.0000000  0  4G14G25G31G11
  21265313.067   -16127254.32149 -11914496.40747  21265312.730    21265317.960
  21482342.853   -21395257.99849 -16391499.83046  21482342.744    21482349.090
  24208851.151    -3643752.56249  -2809765.63745  24208850.711    24208861.859
  21964844.423   -17966081.30049 -13983383.71647  21964844.065    21964849.828
 03  4  2  3 11 30.0000000  0  4G14G25G31G11
  21277082.042   -16065408.93249 -11866305.18347  21277081.623    21277086.889
  21470114.329   -21459517.66149 -16441572.22846  21470114.379    21470120.900
  24223784.961    -3565274.23949  -2748613.75645  24223784.324    24223795.881
  21953263.793   -18026937.75549 -14030804.29447  21953263.443    21953269.181
 03  4  2  3 12  0.0000000  0  4G14G25G31G11
  21288894.330   -16003334.75849 -11817935.70947  21288893.895    21288899.262
  21457965.712   -21523358.86049 -16491318.56046  21457965.849    21457972.206
  24238739.427    -3486687.58149  -2687377.51945  24238738.700    24238750.481
  21941764.359   -18087367.24849 -14077892.12247  21941763.973    21941769.835
 03  4  2  3 12 30.0000000  0  4G14G25G31G11
  21300750.352   -15941030.87649 -11769387.21747  21300749.978    21300755.381
  21445897.688   -21586776.75149 -16540735.06946  21445897.694    21445904.007
  24253714.659    -3407992.69049  -2626056.96645  24253714.072    24253725.685
  21930347.149   -18147364.63349 -14124643.30647  21930346.807    21930352.726
 03  4  2  3 13  0.0000000  0  4G14G25G31G11
  21312648.838   -15878504.39349 -11720665.28847  21312648.421    21312653.761
  21433909.153   -21649774.54749 -16589824.22846  21433909.334    21433915.870
  24268709.241    -3329197.73349  -2564658.39245  24268708.682    24268719.873
  21919011.670   -18206933.09549 -14171060.24547  21919011.344    21919017.195
 03  4  2  3 13 30.0000000  0  4G14G25G31G11
  21324589.674   -15815755.45249 -11671770.01247  21324589.224    21324594.417
  21422001.805   -21712348.37449 -16638582.96546  21422001.906    21422008.440
  24283722.646    -3250303.91649  -2503182.80745  24283722.058    24283732.913
  21907758.516   -18266068.88749 -14217140.01647  21907758.214    21907764.049
 03  4  2  3 14  0.0000000  0  4G14G25G31G11
  21336572.826   -15752783.82449 -11622701.20647  21336572.368    21336577.466
  21410176.046   -21774494.55349 -16687008.48046  21410176.003    21410182.288
  24298754.167    -3171312.29049  -2441630.97545  24298753.793    24298764.496
  21896588.521   -18324767.90149 -14262879.49347  21896588.247    21896594.001
 03  4  2  3 14 30.0000000  0  4G14G25G31G11
  21348598.161   -15689589.98549 -11573459.26447  21348597.703    21348602.828
  21398432.263   -21836209.45249 -16735097.95847  21398432.174    21398438.249
  24313803.886    -3092224.26849  -2380004.03345  24313803.625    24313814.370
  21885502.079   -18383026.83049 -14308275.98847  21885501.813    21885507.586
 03  4  2  3 15  0.0000000  0  4G14G25G31G11
  21360665.295   -15626176.00949 -11524045.75547  21360664.880    21360670.126
  21386770.846   -21897490.93349 -16782849.69047  21386770.727    21386776.713
  24328871.167    -3013042.76149  -2318304.29645  24328871.073    24328882.303
  21874499.768   -18440843.19949 -14353327.65847  21874499.560    21874505.339
 03  4  2  3 15 30.0000000  0  4G14G25G31G11
  21372773.478   -15562545.88449 -11474463.84947  21372773.147    21372778.564
  21375191.821   -21958339.14349 -16830263.82347  21375191.673    21375197.649
  24343955.663    -2933773.37549  -2256536.03745  24343955.561    24343967.028
  21863581.646   -18498217.79749 -14398035.07747  21863581.427    21863587.274
 03  4  2  3 16  0.0000000  0  4G14G25G31G11
  21384922.500   -15498702.32149 -11424715.61847  21384922.176    21384927.636
  21363695.450   -22018753.12949 -16877339.57847  21363695.262    21363701.300
  24359056.151    -2854419.38049  -2194701.91145  24359056.046    24359067.755
  21852747.928   -18555148.97049 -14442396.98947  21852747.678    21852753.588
 03  4  2  3 16 30.0000000  0  4G14G25G31G11
  21397111.282   -15434649.95349 -11374804.69547  21397110.988    21397116.417
  21352281.368   -22078733.72949 -16924077.64847  21352281.214    21352287.408
  24374171.595    -2774986.96449  -2132806.64345  24374171.342    24374183.491
  21841998.375   -18611637.78849 -14486414.16247  21841998.179    21842004.042
 03  4  2  3 17  0.0000000  0  4G14G25G31G11
  21409340.380   -15370385.97249 -11324728.84547  21409340.112    21409345.381
  21340951.107   -22138273.93049 -16970472.54547  21340951.008    21340957.265
  24389302.220    -2695474.17249  -2070848.65745  24389302.049    24389314.170
  21831334.267   -18667677.76849 -14530081.64947  21831334.072    21831339.955
 03  4  2  3 17 30.0000000  0  4G14G25G31G11
  21421609.079   -15305914.67649 -11274491.47747  21421608.739    21421613.868
  21329704.552   -22197374.15949 -17016524.60946  21329704.363    21329710.730
  24404447.349    -2615886.17049  -2008832.10745  24404447.132    24404459.107
  21820755.668   -18723268.95649 -14573399.43347  21820755.515    21820761.367
 03  4  2  3 18  0.0000000  0  4G14G25G31G11
  21433916.317   -15241240.48349 -11224095.99347  21433915.909    21433921.006
  21318541.252   -22256035.84749 -17062234.96846  21318541.281    21318547.645
  24419606.272    -2536228.78349  -1946761.50745  24419605.958    24419617.119
  21810262.344   -18778412.17949 -14616368.09547  21810262.160    21810267.899
 03  4  2  3 18 30.0000000  0  4G14G25G31G11
  21446262.008   -15176363.25249 -11173542.31047  21446261.612    21446266.772
  21307462.582   -22314254.81949 -17107600.33046  21307462.581    21307468.761
  24434777.937    -2456502.89249  -1884637.54645  24434777.446    24434788.181
  21799854.926   -18833103.63649 -14658984.77747  21799854.784    21799860.434
 03  4  2  3 19  0.0000000  0  4G14G25G31G11
  21458646.912   -15111279.37049 -11122827.59147  21458646.608    21458651.903
  21296469.652   -22372023.45149 -17152614.77446  21296469.531    21296475.676
  24449963.015    -2376705.98849  -1822458.24245  24449962.403    24449972.716
  21789535.137   -18887335.45349 -14701243.26847  21789534.899    21789540.526
 03  4  2  3 19 30.0000000  0  4G14G25G31G11
  21471070.202   -15045994.46349 -11071956.22647  21471069.878    21471075.168
  21285561.885   -22429343.85449 -17197279.97446  21285561.762    21285568.032
  24465160.313    -2296844.85949  -1760228.88545  24465159.882    24465169.672
  21779302.063   -18941110.04149 -14743145.49147  21779301.784    21779307.521
 03  4  2  3 20  0.0000000  0  4G14G25G31G11
  21483531.208   -14980511.12149 -11020930.23747  21483530.911    21483536.161
  21274739.579   -22486214.73249 -17241594.91346  21274739.545    21274745.935
  24480369.181    -2216923.05149  -1697952.25045  24480368.643    24480378.306
  21769156.058   -18994425.98349 -14784690.32747  21769155.837    21769161.786
 03  4  2  3 20 30.0000000  0  4G14G25G31G11
  21496029.446   -14914832.31849 -10969751.92247  21496029.119    21496034.401
  21264003.001   -22542635.55549 -17285559.11946  21264002.957    21264009.344
  24495588.667    -2136944.61949  -1635631.50445  24495588.128    24495597.878
  21759097.760   -19047282.57349 -14825877.22147  21759097.480    21759103.448
 03  4  2  3 21  0.0000000  0  4G14G25G31G11
  21508565.325   -14848955.07749 -10918419.00547  21508565.011    21508570.397
  21253353.403   -22598599.74449 -17329167.51646  21253353.349    21253359.436
  24510819.085    -2056907.87249  -1573265.28445  24510818.543    24510828.797
  21749128.131   -19099673.19749 -14866701.06247  21749127.862    21749133.735
 03  4  2  3 21 30.0000000  0  4G14G25G31G11
  21521138.097   -14782884.33049 -10866935.26747  21521137.806    21521143.216
  21242790.579   -22654108.27849 -17372420.86046  21242790.372    21242796.322
  24526059.746    -1976818.78549  -1510858.33445  24526059.142    24526069.818
  21739246.951   -19151599.08349 -14907162.74247  21739246.673    21739252.486
 03  4  2  3 22  0.0000000  0  4G14G25G31G11
  21533747.448   -14716622.33849 -10815302.52047  21533747.137    21533752.453
  21232314.597   -22709160.03549 -17415318.26246  21232314.405    21232320.328
  24541309.801    -1896680.63849  -1448413.13845  24541309.005    24541319.885
  21729454.466   -19203058.75749 -14947261.11447  21729454.182    21729460.011
 03  4  2  3 22 30.0000000  0  4G14G25G31G11
  21546392.728   -14650170.75849 -10763522.07047  21546392.453    21546397.717
  21221925.870   -22763753.43349 -17457858.51846  21221925.636    21221931.608
  24556568.638    -1816496.29349  -1385931.88445  24556567.782    24556578.912
  21719751.000   -19254050.51949 -14986994.92547  21719750.710    21719756.517
 03  4  2  3 23  0.0000000  0  4G14G25G31G11
  21559073.838   -14583531.24749 -10711595.16246  21559073.524    21559078.767
  21211624.611   -22817886.18649 -17500039.82746  21211624.418    21211630.466
  24571835.423    -1736268.48449  -1323416.86345  24571834.633    24571846.354
  21710136.968   -19304572.12349 -15026362.37447  21710136.635    21710142.464
 03  4  2  3 23 30.0000000  0  4G14G25G31G11
  21571790.283   -14516706.05849 -10659523.57646  21571789.951    21571795.204
  21201411.102   -22871557.37749 -17541861.46646  21201410.839    21201417.205
  24587109.883    -1656000.54849  -1260870.49145  24587109.198    24587120.967
  21700612.621   -19354622.40449 -15065362.56047  21700612.318    21700618.182
 03  4  2  3 24  0.0000000  0  4G14G25G31G11
  21584541.889   -14449695.96549 -10607307.91746  21584541.553    21584546.815
  21191285.766   -22924764.38149 -17583321.39746  21191285.708    21191292.208
  24602392.060    -1575694.48749  -1198294.47045  24602391.178    24602402.804
  21691178.705   -19404198.40149 -15103993.17147  21691178.400    21691184.075
 03  4  2  3 24 30.0000000  0  5G14G25G31G11G20
  21597327.795   -14382504.73849 -10554951.11946  21597327.502    21597332.911
  21181249.344   -22977506.97349 -17624419.49246  21181249.147    21181255.633
  24617680.684    -1495354.98549  -1135692.38745  24617679.734    24617690.735
  21681834.948   -19453300.13849 -15142254.23847  21681834.648    21681840.202
  24725679.962    -6397758.59348  -4974586.07544  24725679.914    24725689.028
 03  4  2  3 25  0.0000000  0  5G14G25G31G11G20
  21610148.418   -14315131.76349 -10502452.66146  21610148.156    21610153.400
  21171301.920   -23029781.40149 -17665152.75346  21171301.723    21171308.062
  24632975.259    -1414982.59749  -1073064.76745  24632974.286    24632984.931
  21672582.250   -19501923.67249 -15180142.69447  21672581.963    21672587.270
  24709339.656    -6483622.84948  -5041493.14244  24709339.293    24709349.083
 03  4  2  3 25 30.0000000  0  5G14G25G31G11G20
  21623003.569   -14247578.22049 -10449813.58946  21623003.157    21623008.016
  21161443.877   -23081585.44249 -17705519.48646  21161443.727    21161450.009
  24648275.491    -1334579.85249  -1010413.42445  24648274.704    24648284.667
  21663420.973   -19550066.76949 -15217656.76247  21663420.716    21663425.782
  24692994.058    -6569517.79449  -5108424.16344  24692993.637    24693003.853
 03  4  2  3 26  0.0000000  0  5G14G25G31G11G20
  21635892.404   -14179847.31749 -10397036.20946  21635891.993    21635896.481
  21151675.454   -23132918.70049 -17745519.40846  21151675.260    21151681.613
  24663580.576    -1254150.92249   -947741.64045  24663579.938    24663589.366
  21654351.119   -19597729.06549 -15254796.15547  21654350.825    21654355.756
  24676642.653    -6655444.17949  -5175379.51944  24676642.655    24676651.682
 03  4  2  3 26 30.0000000  0  5G14G25G31G11G20
  21648814.536   -14111941.31849 -10344122.43346  21648814.158    21648818.385
  21141996.824   -23183780.05449 -17785151.59246  21141996.611    21142002.854
  24678890.159    -1173699.24449   -885052.17345  24678889.420    24678898.885
  21645372.928   -19644909.27049 -15291559.93347  21645372.680    21645377.597
  24660285.862    -6741402.08249  -5242359.57044  24660285.561
 03  4  2  3 27  0.0000000  0  5G14G25G31G11G20
  21661769.571   -14043862.28949 -10291073.84146  21661769.169    21661773.272
  21132408.205   -23234168.53549 -17824415.31146  21132407.998    21132414.060
  24694203.188    -1093228.01949   -822347.43045  24694202.479    24694212.342
  21636486.690   -19691606.17549 -15327947.08047  21636486.472    21636491.448
  24643923.081    -6827391.23549  -5309363.91144  24643922.477    24643927.322
 03  4  2  3 27 30.0000000  0  5G14G25G31G11G20
  21674757.444   -13975610.31149 -10237890.52146  21674757.128    21674761.253
  21122910.334   -23284080.60949 -17863307.77546  21122910.093    21122915.985
  24709519.873    -1012738.40349   -759628.40545  24709519.245    24709529.512
  21627693.073   -19737816.36149 -15363955.01247  21627692.910    21627697.949
  24627554.404    -6913409.37549  -5376390.96544  24627553.959    24627559.312
 03  4  2  3 28  0.0000000  0  5G14G25G31G11G20
  21687777.582   -13907189.07249 -10184575.25346  21687777.274    21687781.535
  21113502.952   -23333516.86749 -17901829.47246  21113502.796    21113508.622
  24724839.186     -932235.22849   -696898.77445  24724838.681    24724848.883
  21618992.215   -19783539.88949 -15399583.68947  21618991.973    21618997.108
  24611180.194    -6999458.16449  -5443441.71544  24611179.637    24611184.386
 03  4  2  3 28 30.0000000  0  5G14G25G31G11G20
  21700830.313   -13838597.08349 -10131126.95446  21700829.948    21700834.294
  21104186.994   -23382472.38449 -17939976.56746  21104186.856    21104192.750
  24740161.240     -851718.16649   -634158.36945  24740160.913    24740171.474
  21610384.703   -19828772.30049 -15434829.69447  21610384.502    21610389.681
  24594800.365    -7085533.57748  -5510513.37744  24594799.336    24594804.808
 03  4  2  3 29  0.0000000  0  5G14G25G31G11G20
  21713914.393   -13769839.87349 -10077549.97846  21713913.990    21713918.532
  21094962.072   -23430949.23249 -17977750.69946  21094961.922    21094967.908
  24755484.443     -771193.77949   -571412.16045  24755484.154    24755494.669
  21601870.384   -19873515.27049 -15469694.27247  21601870.196    21601875.298
  24578414.943    -7171638.99849  -5577608.34645  24578414.028    24578420.250
 03  4  2  3 29 30.0000000  0  5G14G25G31G11G20
  21727029.842   -13700917.38649 -10023844.12346  21727029.481    21727034.132
  21085828.808   -23478944.50749 -18015149.55246  21085828.675    21085834.593
  24770808.898     -690663.22849   -508661.23045  24770808.468    24770819.375
  21593449.809   -19917765.78749 -15504175.19147  21593449.596    21593454.681
  24562024.153    -7257772.15649  -5644724.97245  24562023.177    24562030.377
 03  4  2  3 30  0.0000000  0  5G14G25G31G11G20
  21740177.175   -13631827.96049  -9970008.24446  21740176.759    21740181.531
  21076788.155   -23526452.91149 -18052169.00046  21076788.043    21076794.011
  24786134.236     -610125.82549   -445904.93844  24786133.938    24786145.163
  21585123.815   -19961518.79649 -15538268.39047  21585123.600    21585128.784
  24545628.905    -7343928.70249  -5711859.77145  24545628.124    24545635.962
 03  4  2  3 30 30.0000000  0  5G14G25G31G11G20
  21753354.993   -13562578.17349  -9916047.37046  21753354.546    21753359.356
  21067839.553   -23573478.08049 -18088811.96547  21067839.418    21067845.350
  24801459.297     -529589.34549   -383149.35944  24801458.918    24801470.201
  21576891.950   -20004777.05049 -15571976.06647  21576891.749    21576896.955
  24529228.869    -7430112.94249  -5779016.11945  24529228.038    24529236.180
 03  4  2  3 31  0.0000000  0  5G14G25G31G11G20
  21766562.925   -13493169.82249  -9861962.88546  21766562.472    21766567.305
  21058983.199   -23620018.94249 -18125077.51247  21058982.990    21058988.875
  24816783.602     -449056.93549   -320396.90844  24816783.308    24816794.885
  21568754.396   -20047539.67249 -15605297.60347  21568754.182    21568759.497
  24512823.522    -7516324.54649  -5846193.79145  24512822.626    24512830.658
 03  4  2  3 31 30.0000000  0  5G14G25G31G11G20
  21779801.137   -13423602.00449  -9807754.21946  21779800.698    21779805.725
  21050219.764   -23666071.12149 -18160962.27147  21050219.486    21050225.431
  24832107.598     -368528.58548   -257647.63644  24832107.350    24832118.614
  21560711.957   -20089802.59549 -15638229.69147  21560711.740    21560717.121
  24496413.234    -7602560.68649  -5913390.59045  24496412.426    24496420.478
 03  4  2  3 32  0.0000000  0  5G14G25G31G11G20
  21793069.141   -13353877.87549  -9753423.74246  21793068.633    21793073.860
  21041548.974   -23711635.03049 -18196466.57047  21041548.719    21041554.853
  24847430.206     -288008.78549   -194905.04944  24847430.191    24847440.987
  21552764.511   -20131565.84549 -15670772.45647  21552764.362    21552769.775
  24479998.316    -7688822.00449  -5980607.03345  24479997.590    24480005.507
 03  4  2  3 32 30.0000000  0  5G14G25G31G11G20
  21806366.382   -13284000.33249  -9698973.70346  21806365.847    21806371.153
  21032971.238   -23756710.20149 -18231590.03947  21032971.097    21032977.367
  24862750.895     -207501.21149   -132172.00744  24862750.513    24862761.105
  21544912.585   -20172828.38249 -15702925.02047  21544912.437    21544917.760
  24463578.644    -7775108.72049  -6047843.22445  24463577.897    24463585.847
 03  4  2  3 33  0.0000000  0  5G14G25G31G11G20
  21819693.179   -13213967.48049  -9644402.66546  21819692.601    21819697.863
  21024487.858   -23801291.45049 -18266328.62747  21024487.650    21024493.775
  24878069.172     -127005.53349    -69448.19245  24878068.783    24878078.868
  21537156.857   -20213585.41749 -15734683.73747  21537156.657    21537161.966
  24447154.522    -7861417.06949  -6115096.29145  24447153.808    24447161.871
 03  4  2  3 33 30.0000000  0  5G14G25G31G11G20
  21833048.676   -13143783.14049  -9589713.55846  21833048.146    21833053.548
  21016098.058   -23845380.04249 -18300683.31847  21016097.938    21016103.952
  24893383.893      -46526.75049     -6737.56145  24893383.319    24893394.114
  21529497.006   -20253837.96349 -15766049.31547  21529496.790    21529502.093
  24430725.956    -7947748.51949  -6182367.39545  24430725.192    24430733.990
 03  4  2  3 34  0.0000000  0  5G14G25G31G11G20
  21846432.746   -13073449.20049  -9534907.85646  21846432.249    21846437.548
  21007802.269   -23888974.48549 -18334652.97847  21007802.171    21007808.110
  24908695.322       33932.32749     55957.70445  24908694.689    24908705.574
  21521933.458   -20293584.70649 -15797020.74647  21521933.256    21521938.566
  24414292.842    -8034102.73049  -6249656.18045  24414292.188    24414301.518
 03  4  2  3 34 30.0000000  0  5G14G25G31G11G20
  21859844.723   -13002968.97849  -9479988.21246  21859844.214    21859849.299
  20999600.361   -23932075.47849 -18368238.10947  20999600.259    20999606.142
  24924001.647      114367.26349    118634.15245  24924000.953    24924012.304
  21514466.217   -20332825.56349 -15827598.02247  21514465.975    21514471.361
  24397855.568    -8120480.64149  -6316963.44245  24397854.946    24397864.266
 03  4  2  3 35  0.0000000  0  4G14G25G11G20
  21873285.327   -12932337.95749  -9424951.02446  21873284.810    21873289.914
  20991493.816   -23974675.47949 -18401432.86647  20991493.701    20991499.575
  21507096.533   -20371553.11649 -15857775.31747  21507096.298    21507101.761
  24381415.417    -8206875.39649  -6384283.88945  24381414.738    24381423.457
 03  4  2  3 35 30.0000000  0  4G14G25G11G20
  21886753.540   -12861560.96949  -9369800.11746  21886753.136    21886758.476
  20983482.113   -24016776.46649 -18434238.77447  20983482.048    20983487.999
  21499824.109   -20409769.17449 -15887554.05147  21499823.922    21499829.368
  24364971.200    -8293289.59149  -6451619.43345  24364970.612    24364978.922
 03  4  2  3 36  0.0000000  0  4G14G25G11G20
  21900248.905   -12790641.68649  -9314538.29746  21900248.514    21900254.156
  20975565.419   -24058379.29349 -18466656.53147  20975565.328    20975571.232
  21492649.193   -20447474.06449 -15916934.41847  21492649.018    21492654.322
  24348523.118    -8379724.63249  -6518971.25045  24348522.429    24348530.594
 03  4  2  3 36 30.0000000  0  4G14G25G11G20
  21913771.203   -12719581.42149  -9259166.64946  21913770.853    21913776.598
  20967743.991   -24099482.11149 -18498684.66847  20967743.783    20967749.614
  21485571.884   -20484666.01949 -15945915.12247  21485571.638    21485576.794
  24332071.277    -8466179.33149  -6586338.38945  24332070.429    24332078.599
 03  4  2  3 37  0.0000000  0  4G14G25G11G20
  21927319.867   -12648382.94849  -9203687.27846  21927319.542    21927325.330
  20960017.457   -24140084.88449 -18530323.15447  20960017.342    20960023.137
  21478592.033   -20521345.14649 -15974496.22447  21478591.800    21478596.888
  24315615.617    -8552654.32749  -6653721.40145  24315614.830    24315623.036
 03  4  2  3 37 30.0000000  0  4G14G25G11G20
  21940895.063   -12577044.66249  -9148099.03446  21940894.774    21940900.553
  20952386.983   -24180183.51149 -18561568.77747  20952386.775    20952392.673
  21471710.452   -20557507.27849 -16002674.49647  21471710.254    21471715.490
  24299156.542    -8639146.09149  -6721117.42945  24299155.775    24299164.080
 03  4  2  3 38  0.0000000  0  4G14G25G11G20
  21954496.535   -12505569.55149  -9092404.06546  21954496.148    21954501.739
  20944852.219   -24219777.85049 -18592421.50347  20944852.170    20944858.145
  21464927.459   -20593151.65649 -16030449.29647  21464927.310    21464932.686
  24282694.160    -8725654.79449  -6788526.65745  24282693.542    24282701.734
 03  4  2  3 38 30.0000000  0  4G14G25G11G20
  21968124.265   -12433956.64549  -9036601.82846  21968123.824    21968129.144
  20937414.265   -24258864.59249 -18622878.66947  20937414.220    20937420.150
  21458243.724   -20628275.08149 -16057818.19847  21458243.527    21458248.936
  24266229.043    -8812177.69949  -6855946.90345  24266228.379    24266236.428
 03  4  2  3 39  0.0000000  0  4G14G25G11G20
  21981777.072   -12362211.73249  -8980696.66146  21981776.632    21981781.687
  20930072.297   -24297446.71449 -18652942.61347  20930072.282    20930078.126
  21451658.487   -20662880.09949 -16084783.09647  21451658.386    21451663.804
  24249760.750    -8898717.40049  -6923380.33045  24249759.911    24249768.594
 03  4  2  3 39 30.0000000  0  4G14G25G11G20
  21995455.113   -12290333.21049  -8924687.44146  21995454.694    21995459.703
  20922827.190   -24335519.88849 -18682609.97047  20922827.178    20922832.915
  21445172.797   -20696962.56949 -16111340.86247  21445172.656    21445178.103
  24233290.104    -8985270.88649  -6990824.46945  24233289.135    24233297.808
 03  4  2  3 40  0.0000000  0  4G14G25G11G20
  22009157.930   -12218324.31349  -8868576.61346  22009157.537    22009162.501
  20915679.039   -24373084.46649 -18711881.02747  20915678.967    20915684.533
  21438786.660   -20730522.38149 -16137491.34547  21438786.477    21438791.815
  24216816.434    -9071838.38249  -7058279.53744  24216815.546    24216824.549
 03  4  2  3 40 30.0000000  0  4G14G25G11G20
  22022885.145   -12146187.22149  -8812365.89246  22022884.714    22022889.752
  20908627.501   -24410140.04049 -18740755.45547  20908627.399    20908633.007
  21432500.006   -20763559.49049 -16163234.48247  21432499.729    21432505.068
  24200340.518    -9158420.45149  -7125746.00445  24200339.454    24200348.713
 03  4  2  3 41  0.0000000  0  4G14G25G11G20
  22036636.546   -12073923.22649  -8756056.30746  22036636.084    22036641.035
  20901672.938   -24446685.61049 -18769232.46647  20901672.854    20901678.466
  21426312.846   -20796072.14449 -16188568.98347  21426312.603    21426318.124
  24183861.499    -9245015.70948  -7193222.79245  24183860.414    24183870.298
 03  4  2  3 41 30.0000000  0  4G14G25G11G20
  22050412.695   -12001529.35249  -8699645.53446  22050412.237    22050416.770
  20894816.544   -24482715.46949 -18797307.64447  20894816.430    20894822.109
  21420226.736   -20828054.54949 -16213490.36147  21420226.536    21420232.084
  24167380.797    -9331618.97248  -7260705.66745  24167379.912    24167390.459
 03  4  2  3 42  0.0000000  0  4G14G25G11G20
  22064212.486   -11929010.47049  -8643137.24146  22064212.083    22064216.101
  20888057.865   -24518232.00849 -18824982.82347  20888057.808    20888063.568
  21414241.123   -20859509.02449 -16238000.29947  21414240.939    21414246.434
  24150898.577    -9418232.90949  -7328197.04645  24150897.873    24150908.382
 03  4  2  3 42 30.0000000  0  4G14G25G11G20
  22078035.100   -11856371.57949  -8586535.50546  22078034.764    22078038.477
  20881396.570   -24553237.26949 -18852259.60647  20881396.450    20881402.291
  21408355.688   -20890437.54849 -16262100.40047  21408355.454    21408360.759
  24134413.921    -9504859.94349  -7395698.49045  24134413.052    24134423.731
 03  4  2  3 43  0.0000000  0  4G14G25G11G20
  22091880.865   -11783611.56649  -8529839.42046  22091880.460    22091884.326
  20874832.980   -24587727.91949 -18879135.38747  20874832.914    20874838.909
  21402570.913   -20920836.84149 -16285788.13747  21402570.668    21402575.908
  24117928.008    -9591496.97549  -7463207.77645  24117927.155    24117937.017
 03  4  2  3 43 30.0000000  0  4G14G25G11G20
  22105748.687   -11710735.56249  -8473052.94046  22105748.298    22105752.414
  20868366.948   -24621706.73649 -18905612.35447  20868366.940    20868372.941
  21396886.252   -20950709.18449 -16309065.27347  21396886.074    21396891.411
  24101439.543    -9678146.83949  -7530727.03345  24101438.680    24101447.977
 03  4  2  3 44  0.0000000  0  4G14G25G11G20
  22119638.677   -11637743.10649  -8416175.67046  22119638.293    22119642.465
  20861998.941   -24655170.98449 -18931688.34147  20861998.928    20862004.872
  21391302.546   -20980051.66349 -16331929.49647  21391302.369    21391307.716
  24084949.008    -9764806.73949  -7598254.15945  24084948.187    24084957.148
 03  4  2  3 44 30.0000000  0  4G14G25G11G20
  22133551.305   -11564631.79249  -8359205.82746  22133550.882    22133554.957
  20855729.927   -24688115.57649 -18957359.42847  20855729.878    20855735.617
  21385820.760   -21008858.81349 -16354376.61247  21385820.594    21385825.873
  24068457.206    -9851471.81949  -7665785.29845  24068456.445    24068465.399
 03  4  2  3 45  0.0000000  0  4G14G25G11G20
  22147486.022   -11491403.69149  -8302144.93446  22147485.605    22147489.863
  20849559.811   -24720540.11649 -18982625.24847  20849559.690    20849565.318
  21380440.857   -21037130.53849 -16376406.48847  21380440.649    21380445.892
  24051964.264    -9938141.87349  -7733320.33945  24051963.603    24051972.447
 03  4  2  3 45 30.0000000  0  4G14G25G11G20
  22161442.875   -11418059.80849  -8244993.88846  22161442.493    22161447.005
  20843488.590   -24752443.65949 -19007485.12047  20843488.543    20843494.196
  21375163.034   -21064864.86449 -16398017.65347  21375162.883    21375168.202
  24035470.534   -10024815.73749  -7800858.37445  24035469.960    24035478.182
 03  4  2  3 46  0.0000000  0  4G14G25G11G20
  22175421.429   -11344602.48749  -8187754.41946  22175421.005    22175425.709
  20837516.677   -24783826.33249 -19031939.10847  20837516.657    20837522.269
  21369987.486   -21092062.25649 -16419210.34747  21369987.316    21369992.748
  24018976.173   -10111493.45249  -7868399.38945  24018975.540    24018983.125
 03  4  2  3 46 30.0000000  0  4G14G25G11G20
  22189421.239   -11271033.50249  -8130427.93946  22189420.814    22189425.670
  20831644.231   -24814687.15449 -19055986.44647  20831644.103    20831649.689
  21364914.184   -21118722.08149 -16439984.21047  21364914.058    21364919.618
  24002480.873   -10198174.51049  -7935942.95345  24002480.080    24002488.017
 03  4  2  3 47  0.0000000  0  4G14G25G11G20
  22203441.666   -11197355.39349  -8073016.43146  22203441.258    22203446.244
  20825870.794   -24845026.42449 -19079627.40747  20825870.710    20825876.334
  21359943.345   -21144844.10849 -16460339.02847  21359943.229    21359948.810
  23985985.035   -10284859.00949  -8003489.28545  23985984.319    23985991.832
 03  4  2  3 47 30.0000000  0  4G14G25G11G20
  22217482.993   -11123566.87349  -8015518.86046  22217482.677    22217487.852
  20820197.332   -24874840.73349 -19102859.30747  20820197.257    20820202.839
  21355075.523   -21170424.73549 -16480271.96047  21355075.409    21355080.928
  23969489.414   -10371543.40149  -8071035.41645  23969488.759    23969495.968
 03  4  2  3 48  0.0000000  0  4G14G25G11G20
  22231544.357   -11049673.32949  -7957939.48946  22231544.093    22231549.307
  20814623.057   -24904133.54049 -19125684.83547  20814622.957    20814628.560
  21350310.287   -21195466.86249 -16499785.28847  21350310.108    21350315.548
  23952993.334   -10458230.68249  -8138583.88445  23952992.797    23952999.657
 03  4  2  3 48 30.0000000  0  4G14G25G11G20
  22245625.495   -10975676.38049  -7900279.51346  22245625.174    22245630.554
  20809148.137   -24932903.81949 -19148103.20447  20809147.977    20809153.689
  21345647.410   -21219970.05349 -16518878.63547  21345647.166    21345652.709
  23936497.267   -10544920.25549  -8206134.09645  23936496.668    23936503.473
 03  4  2  3 49  0.0000000  0  4G14G25G11G20
  22259726.038   -10901577.90849  -7842540.45346  22259725.702    22259731.110
  20803772.531   -24961151.92549 -19170114.69347  20803772.448    20803778.203
  21341087.390   -21243933.27249 -16537551.24647  21341087.123    21341092.690
  23920000.589   -10631611.82849  -8273685.83445  23919999.809    23920006.828
 03  4  2  3 49 30.0000000  0  4G14G25G11G20
  22273846.591   -10827374.30949  -7784719.47946  22273846.247    22273851.628
  20798497.598   -24988871.63149 -19191714.45847  20798497.500    20798503.290
  21336631.109   -21267350.88349 -16555798.69447  21336630.828    21336636.470
  23903504.260   -10718299.23249  -8341234.35645  23903503.649    23903511.083
 03  4  2  3 50  0.0000000  0  4G14G25G11G20
  22287986.371   -10753068.70049  -7726818.97146  22287986.058    22287991.436
  20793322.840   -25016064.49349 -19212903.67147  20793322.822    20793328.570
  21332278.307   -21290224.18049 -16573622.01647  21332278.102    21332283.774
  23887008.606   -10804983.69249  -8408780.55745  23887008.089    23887015.810
 03  4  2  3 50 30.0000000  0  4G14G25G11G20
  22302144.977   -10678663.79749  -7668841.18146  22302144.776    22302150.036
  20788248.315   -25042730.82249 -19233682.58747  20788248.335    20788254.053
  21328029.203   -21312553.46549 -16591021.42647  21328029.013    21328034.621
  23870513.673   -10891665.29649  -8476324.53145  23870513.088    23870520.867
 03  4  2  3 51  0.0000000  0  4G14G25G11G20
  22316322.333   -10604161.83049  -7610787.65846  22316322.081    22316327.120
  20783274.070   -25068870.79349 -19254051.36147  20783274.059    20783279.675
  21323883.627   -21334338.40549 -16607996.68347  21323883.433    21323889.018
  23854019.176   -10978343.85349  -8543866.14945  23854018.597    23854026.508
 03  4  2  3 51 30.0000000  0  4G14G25G11G20
  22330518.419   -10529561.06449  -7552657.20746  22330518.055    22330523.100
  20778400.691   -25094480.93749 -19274007.28147  20778400.603    20778406.184
  21319842.633   -21355575.18249 -16624544.80247  21319842.420    21319847.790
  23837525.795   -11065015.68349  -8611402.51945  23837525.304    23837533.308
 03  4  2  3 52  0.0000000  0  4G14G25G11G20
  22344733.231   -10454861.65049  -7494449.90046  22344732.773    22344738.030
  20773628.329   -25119559.46649 -19293548.94647  20773628.257    20773633.873
  21315906.186   -21376261.86049 -16640664.25947  21315905.915    21315911.249
  23821034.413   -11151678.30149  -8678931.69045  23821033.822    23821041.830
 03  4  2  3 52 30.0000000  0  5G14G25G11G20G 1
  22358964.659   -10380075.06949  -7436174.65546  22358964.211    22358969.598
  20768955.435   -25144115.60149 -19312683.58147  20768955.361    20768961.011
  21312072.509   -21396407.80949 -16656362.36647  21312072.289    21312077.510
  23804542.787   -11238341.24449  -8746461.16045  23804542.228    23804550.265
  24619581.931    -5222226.40249  -3812700.23145  24619581.689    24619594.185
 03  4  2  3 53  0.0000000  0  5G14G25G11G20G 1
  22373214.069   -10305194.37749  -7377826.04146  22373213.567    22373219.013
  20764383.613   -25168141.07249 -19331404.69947  20764383.546    20764389.130
  21308343.468   -21416004.38949 -16671632.42747  21308343.191    21308348.349
  23788053.038   -11324995.40549  -8813983.77145  23788052.334    23788060.362
  24604077.203    -5303703.67949  -3876188.69245  24604076.823    24604089.341
 03  4  2  3 53 30.0000000  0  5G14G25G11G20G 1
  22387481.195   -10230220.45049  -7319404.80646  22387480.689    22387486.173
  20759913.148   -25191634.23949 -19349711.02147  20759913.011    20759918.522
  21304718.969   -21435050.18149 -16686473.26747  21304718.770    21304723.988
  23771565.319   -11411639.00249  -8881498.13845  23771564.528    23771572.501
  24588601.006    -5385029.21549  -3939558.95845  24588600.606    24588613.412
 03  4  2  3 54  0.0000000  0  5G14G25G11G20G 1
  22401765.903   -10155153.94949  -7260911.43946  22401765.451    22401770.815
  20755543.957   -25214594.44649 -19367602.04947  20755543.816    20755549.294
  21301199.702   -21453543.84749 -16700883.88047  21301199.467    21301204.741
  23755079.801   -11498270.66249  -8949003.23245  23755079.091    23755086.895
  24573153.426    -5466202.24049  -4002810.29545  24573153.132    24573165.559
 03  4  2  3 54 30.0000000  0  5G14G25G11G20G 1
  22416067.775   -10079997.21949  -7202347.75546  22416067.310    22416072.682
  20751276.219   -25237022.09849 -19385078.10947  20751276.070    20751281.353
  21297785.501   -21471485.78849 -16714864.58247  21297785.260    21297790.523
  23738596.871   -11584890.18449  -9016498.85045  23738596.122    23738603.444
  24557734.580    -5547223.31248  -4065943.31045  24557734.617    24557747.290
 03  4  2  3 55  0.0000000  0  5G14G25G11G20G 1
  22430386.293   -10004752.45549  -7143715.44546  22430385.907    22430391.312
  20747109.771   -25258917.25449 -19402139.23647  20747109.585    20747114.712
  21294476.305   -21488875.53549 -16728415.03647  21294476.101    21294481.404
  23722116.066   -11671497.48449  -9083984.95245  23722115.361    23722122.523
  24542345.370    -5628092.63149  -4128958.05444  24542344.929    24542357.878
 03  4  2  3 55 30.0000000  0  5G14G25G11G20G 1
  22444721.271    -9929421.82649  -7085016.27346  22444720.893    22444726.298
  20743044.308   -25280281.04549 -19418786.27847  20743044.130    20743049.329
  21291272.084   -21505714.51249 -16741536.30647  21291271.819    21291277.047
  23705637.621   -11758092.50049  -9151461.45645  23705636.880    23705644.214
  24526984.848    -5708810.98948  -4191855.24545  24526984.353    24526997.367
 03  4  2  3 56  0.0000000  0  5G14G25G11G20G 1
  22459072.652    -9854004.55949  -7026249.54046  22459072.327    22459077.811
  20739080.393   -25301110.56649 -19435017.06247  20739080.333    20739085.661
  21288173.157   -21521999.32649 -16754225.74847  21288172.855    21288178.089
  23689161.710   -11844672.25549  -9218926.13845  23689161.085    23689168.825
  24511653.568    -5789376.06349  -4254632.97245  24511653.395    24511666.018
 03  4  2  3 56 30.0000000  0  5G14G25G11G20G 1
  22473439.669    -9778505.40249  -6967419.03046  22473439.282    22473444.934
  20735217.727   -25321409.14849 -19450834.10947  20735217.657    20735222.950
  21285178.984   -21537733.03349 -16766485.76447  21285178.777    21285183.912
  23672688.346   -11931239.01449  -9286380.64045  23672687.661    23672695.706
  24496351.564    -5869790.92249  -4317293.65145  24496351.208    24496362.983
 03  4  2  3 57  0.0000000  0  5G14G25G11G20G 1
  22487822.107    -9702924.52049  -6908524.80846  22487821.805    22487827.534
  20731456.350   -25341175.07649 -19466236.09947  20731456.292    20731461.481
  21282290.144   -21552914.03649 -16778315.10047  21282289.937    21282295.039
  23656217.555   -12017790.73549  -9353823.46645  23656216.972    23656225.423
  24481077.577    -5950054.30449  -4379836.28245  24481077.214    24481088.796
 03  4  2  3 57 30.0000000  0  5G14G25G11G20G 1
  22502220.436    -9627261.09549  -6849566.30946  22502220.078    22502225.756
  20727796.682   -25360405.88049 -19481221.09747  20727796.655    20727801.906
  21279506.900   -21567539.58749 -16789711.61747  21279506.684    21279511.817
  23639750.568   -12104324.26349  -9421252.09945  23639749.873    23639758.189
  24465833.441    -6030163.49649  -4442258.82745  24465833.087    24465844.654
 03  4  2  3 58  0.0000000  0  5G14G25G11G20G 1
  22516633.742    -9551519.07249  -6790546.51546  22516633.300    22516638.808
  20724238.585   -25379103.64649 -19495790.74947  20724238.518    20724243.818
  21276829.080   -21581611.61249 -16800676.80647  21276828.858    21276833.941
  23623286.689   -12190841.03849  -9488667.65445  23623286.090    23623294.285
  24450618.147    -6110120.72849  -4504562.91345  24450617.629    24450629.011
 03  4  2  3 58 30.0000000  0  5G14G25G11G20G 1
  22531061.764    -9475698.67249  -6731465.64346  22531061.411    22531066.886
  20720782.170   -25397267.45849 -19509944.32947  20720782.071    20720787.406
  21274256.791   -21595128.91349 -16811209.77347  21274256.509    21274261.700
  23606826.386   -12277339.16349  -9556068.68245  23606825.954    23606834.113
  24435431.926    -6189924.82349  -4566747.68345  24435431.343    24435442.577
 03  4  2  3 59  0.0000000  0  5G14G25G11G20G 1
  22545504.724    -9399800.93449  -6672324.56146  22545504.252    22545509.691
  20717427.458   -25414896.93449 -19523681.55247  20717427.373    20717432.606
  21271790.094   -21608090.88349 -16821309.99247  21271789.896    21271795.097
  23590370.487   -12363817.57149  -9623454.32345  23590369.936    23590377.759
  24420274.968    -6269575.10149  -4628812.63545  24420274.466    24420285.538
 03  4  2  3 59 30.0000000  0  5G14G25G11G20G 1
  22559962.332    -9323825.43849  -6613122.85046  22559961.903    22559967.392
  20714174.788   -25431989.77149 -19537000.61447  20714174.715    20714179.836
  21269429.694   -21620495.26649 -16830975.71747  21269429.450    21269434.667
  23573918.646   -12450273.20149  -9690822.22645  23573918.136    23573925.806
  24405147.484    -6349069.92449  -4690756.44545  24405147.039    24405157.908
 03  4  2  4  0  0.0000000  0  5G14G25G11G20G 1
  22574434.074    -9247776.66249  -6553864.13446  22574433.645    22574438.915
  20711023.596   -25448549.58249 -19549904.23746  20711023.487    20711028.456
  21267174.696   -21632344.98749 -16840209.26647  21267174.501    21267179.690
  23557470.473   -12536708.52049  -9758174.29245  23557470.053    23557477.587
  24390049.150    -6428412.25949  -4752581.44145  24390048.621    24390059.154
 03  4  2  4  0 30.0000000  0  5G14G25G11G20G 1
  22588919.853    -9171652.69649  -6494546.73646  22588919.536    22588924.710
  20707974.426   -25464572.33949 -19562389.51446  20707974.318    20707979.403
  21265026.057   -21643636.36249 -16849007.72047  21265025.849    21265031.013
  23541027.181   -12623119.00849  -9825506.99146  23541026.826    23541034.187
  24374980.644    -6507598.22849  -4814284.57745  24374979.913    24374990.370
 03  4  2  4  1  0.0000000  0  5G14G25G11G20G 1
  22603419.594    -9095457.02549  -6435173.46246  22603419.148    22603424.078
  20705027.028   -25480060.16449 -19574457.92846  20705026.928    20705032.236
  21262983.171   -21654371.33249 -16857372.58547  21262982.974    21262988.266
  23524588.323   -12709506.09749  -9892821.46546  23524587.797    23524595.251
  24359941.276    -6586630.14449  -4875867.68145  24359940.584    24359950.910
 03  4  2  4  1 30.0000000  0  5G14G25G11G20G 1
  22617932.909    -9019189.53049  -6375744.18646  22617932.481    22617937.108
  20702181.752   -25495012.01449 -19586108.68946  20702181.588    20702187.021
  21261046.443   -21664548.58349 -16865302.89347  21261046.284    21261051.532
  23508154.255   -12795867.23349  -9960115.70646  23508153.714    23508161.194
  24344931.437    -6665506.02049  -4937329.18545  24344930.975    24344941.436
 03  4  2  4  2  0.0000000  0  5G14G25G11G20G 1
  22632459.700    -8942850.76549  -6316259.53946  22632459.255    22632463.660
  20699438.580   -25509427.07549 -19597341.18546  20699438.477    20699443.965
  21259216.302   -21674166.76149 -16872797.57347  21259216.101    21259221.235
  23491725.317   -12882200.77249 -10027388.45746  23491724.827    23491732.351
  24329951.420    -6744225.71949  -4998669.02345  24329950.956    24329961.377
 03  4  2  4  2 30.0000000  0  5G14G25G11G20G 1
  22646999.571    -8866443.20849  -6256721.15946  22646999.109    22647003.432
  20696797.631   -25523306.44149 -19608156.25146  20696797.446    20696802.779
  21257492.289   -21683226.70549 -16879857.23747  21257492.044    21257497.150
  23475301.780   -12968506.73149 -10094639.71446  23475301.227    23475308.684
  24315001.146    -6822789.57849  -5059887.37745  24315000.666    24315010.767
 03  4  2  4  3  0.0000000  0  5G14G25G11G20G 1
  22661552.134    -8789969.03649  -6197130.92246  22661551.734    22661556.075
  20694258.119   -25536650.94149 -19618554.54246  20694258.054    20694263.364
  21255874.293   -21691729.47949 -16886482.75447  21255874.084    21255879.094
  23458883.528   -13054785.09949 -10161869.49845  23458882.923    23458890.165
  24300079.873    -6901198.43649  -5120985.03545  24300079.516    24300089.747
 03  4  2  4  3 30.0000000  0  5G14G25G11G20G 1
  22676118.036    -8713425.20549  -6137486.35146  22676117.631    22676122.124
  20691821.210   -25549456.30449 -19628532.72946  20691821.220    20691826.325
  21254363.183   -21699670.45749 -16892670.48947  21254362.961    21254367.929
  23442471.167   -13141030.58449 -10229073.58945  23442470.467    23442477.799
  24285189.019    -6979448.29849  -5181958.69745  24285188.675    24285198.943
 03  4  2  4  4  0.0000000  0  5G14G25G11G20G 1
  22690696.676    -8636814.10149  -6077789.40346  22690696.178    22690700.906
  20689486.829   -25561724.23249 -19638092.11146  20689486.806    20689491.662
  21252958.685   -21707050.67449 -16898421.27047  21252958.483    21252963.454
  23426065.161   -13227243.34249 -10296252.27145  23426064.523    23426071.811
  24270327.914    -7057540.03249  -5242809.22345  24270327.514    24270338.442
 03  4  2  4  4 30.0000000  0  5G14G25G11G20G 1
  22705287.373    -8560138.72249  -6018042.34646  22705286.957    22705291.842
  20687254.497   -25573455.76049 -19647233.49846  20687254.441    20687259.091
  21251660.533   -21713871.95949 -16903736.56847  21251660.332    21251665.371
  23409665.636   -13313424.19749 -10363406.09645  23409665.036    23409671.922
  24255496.628    -7135475.32549  -5303537.79645  24255496.450    24255507.975
 03  4  2  4  5  0.0000000  0  5G14G25G11G20G 1
  22719890.032    -8483400.95649  -5958246.68046  22719889.568    22719894.524
  20685123.917   -25584651.79749 -19655957.65646  20685123.827    20685128.572
  21250468.735   -21720134.82149 -16908616.68647  21250468.546    21250473.563
  23393272.327   -13399572.41349 -10430534.44545  23393271.695    23393278.453
  24240695.127    -7213254.51549  -5364144.75945  24240695.027    24240707.157
 03  4  2  4  5 30.0000000  0  5G14G25G11G20G 1
  22734504.733    -8406599.80149  -5898401.61646  22734504.290    22734509.349
  20683095.613   -25595310.23749 -19664262.92846  20683095.551    20683100.488
  21249383.876   -21725836.57749 -16913059.58947  21249383.638    21249388.503
  23376885.737   -13485684.49249 -10497634.66145  23376884.959    23376891.939
  24225924.413    -7290874.63049  -5424627.76945  24225924.441    24225936.403
 03  4  2  4  6  0.0000000  0  5G14G25G11G20G 1
  22749130.774    -8329739.19049  -5838510.23546  22749130.365    22749135.493
  20681169.069   -25605434.36949 -19672151.79746  20681168.885    20681173.924
  21248405.066   -21730980.46849 -16917067.78247  21248404.805    21248409.715
  23360505.262   -13571762.53049 -10564708.34846  23360504.529    23360511.895
  24211184.064    -7368339.07149  -5484989.46645  24211183.746    24211195.014
 03  4  2  4  6 30.0000000  0  5G14G25G11G20G 1
  22763767.677    -8252821.54649  -5778574.39846  22763767.272    22763772.550
  20679343.677   -25615025.20749 -19679625.15246  20679343.638    20679348.753
  21247532.136   -21735567.12749 -16920641.80247  21247531.950    21247536.914
  23344131.190   -13657806.35049 -10631755.39546  23344130.675    23344138.481
  24196473.021    -7445648.56349  -5545230.48945  24196472.480    24196483.326
 03  4  2  4  7  0.0000000  0  5G14G25G11G20G 1
  22778415.659    -8175845.34049  -5718592.91546  22778415.241    22778420.789
  20677620.843   -25624080.00849 -19686680.78246  20677620.740    20677625.691
  21246765.883   -21739594.04749 -16923779.66047  21246765.700    21246770.510
  23327764.457   -13743812.09749 -10698772.76846  23327764.045    23327772.246
  24181791.431    -7522800.42749  -5605348.64645  24181790.935    24181801.236
 03  4  2  4  7 30.0000000  0  5G14G25G11G20G 1
  22793074.730    -8098810.07949  -5658565.47346  22793074.343    22793080.153
  20675999.994   -25632597.51149 -19693317.74646  20675999.803    20676004.851
  21246106.397   -21743059.60049 -16926480.07247  21246106.187    21246110.897
  23311405.862   -13829777.05849 -10765758.35346  23311405.400    23311413.674
  24167140.380    -7599792.59849  -5665342.47745  24167139.907    24167149.976
 03  4  2  4  8  0.0000000  0  5G14G25G11G20G 1
  22807744.810    -8021717.29849  -5598493.15946  22807744.537    22807750.422
  20674481.188   -25640578.16849 -19699536.40645  20674481.114    20674486.180
  21245553.485   -21745964.47049 -16928743.57647  21245553.320    21245558.001
  23295055.345   -13915700.61649 -10832711.68546  23295054.769    23295062.847
  24152519.511    -7676625.80249  -5725212.37845  24152518.890    24152529.004
 03  4  2  4  8 30.0000000  0  5G14G25G11G20G 1
  22822425.691    -7944569.19349  -5538377.73946  22822425.373    22822431.183
  20673064.454   -25648023.27849 -19705337.71445  20673064.296    20673069.323
  21245107.218   -21748309.48549 -16930570.86347  21245107.068    21245111.688
  23278712.670   -14001582.48349 -10899632.53746  23278712.102    23278719.864
  24137928.190    -7753300.85949  -5784959.03345  24137927.810    24137938.109
 03  4  2  4  9  0.0000000  0  5G14G25G11G20G 1
  22837117.223    -7867365.53749  -5478219.03646  22837116.823    22837122.465
  20671749.618   -25654931.72249 -19710720.87345  20671749.446    20671754.615
  21244767.828   -21750093.40849 -16931960.91347  21244767.623    21244772.247
  23262378.354   -14087420.17349 -10966518.95446  23262377.691    23262385.339
  24123367.821    -7829816.25849  -5844581.29245  24123367.341    24123377.730
 03  4  2  4  9 30.0000000  0  5G14G25G11G20G 1
  22851818.812    -7790107.96249  -5418018.32446  22851818.415    22851823.895
  20670536.902   -25661304.33449 -19715686.49645  20670536.715    20670541.838
  21244535.029   -21751316.76449 -16932914.19247  21244534.835    21244539.473
  23246052.570   -14173213.02449 -11033370.47546  23246051.883    23246059.281
  24108837.261    -7906172.41949  -5904079.50145  24108836.901    24108847.565
 03  4  2  4 10  0.0000000  0  5G14G25G11G20G 1
  22866530.690    -7712796.29649  -5357775.48546  22866530.380    22866535.746
  20669426.226   -25667139.58349 -19720233.46545  20669426.234    20669431.244
  21244409.152   -21751978.28849 -16933429.65647  21244408.932    21244413.576
  23229735.715   -14258958.43949 -11100184.97346  23229735.060    23229742.120
  24094337.118    -7982367.67749  -5963452.35245  24094336.629    24094347.731
 03  4  2  4 10 30.0000000  0  5G14G25G11G20G 1
  22881252.367    -7635434.14049  -5297493.28246  22881251.978    22881257.048
  20668417.308   -25672440.99149 -19724364.38045  20668417.194    20668422.274
  21244389.606   -21752080.42249 -16933509.23447  21244389.475    21244394.233
  23213427.716   -14344657.44149 -11166963.33646  23213426.989    23213433.893
  24079867.297    -8058404.10649  -6022701.41645  24079867.264    24079878.112
 03  4  2  4 11  0.0000000  0  5G14G25G11G20G 1
  22895983.520    -7558021.88349  -5237172.00645  22895983.101    22895987.891
  20667509.951   -25677207.80549 -19728078.75745  20667510.090    20667515.264
  21244476.731   -21751622.96049 -16933152.76047  21244476.555    21244481.239
  23197128.852   -14430308.70749 -11233704.48246  23197128.122    23197134.905
  24065428.478    -8134281.64349  -6081826.60645  24065428.381    24065439.269
 03  4  2  4 11 30.0000000  0  5G14G25G11G20G 1
  22910723.787    -7480562.16349  -5176813.78746  22910723.206    22910727.835
  20666704.564   -25681442.00149 -19731378.07645  20666704.488    20666709.719
  21244669.975   -21750607.50949 -16932361.52647  21244669.751    21244674.338
  23180838.981   -14515912.42849 -11300408.60146  23180838.210    23180844.950
  24051019.725    -8210001.46548  -6140828.86645  24051019.457    24051030.458
 03  4  2  4 12  0.0000000  0  5G14G25G11G20G 1
  22925473.324    -7403054.15749  -5116417.95846  22925472.685    22925477.040
  20666000.467   -25685142.17349 -19734261.30145  20666000.296    20666005.564
  21244969.585   -21749032.44149 -16931134.17147  21244969.364    21244974.094
  23164558.776   -14601465.12249 -11367072.93446  23164558.060    23164564.553
  24036641.173    -8285561.39349  -6199706.69345  24036640.879    24036652.145
 03  4  2  4 12 30.0000000  0  5G14G25G11G20G 1
  22940231.605    -7325499.66049  -5055985.88946  22940230.839    22940235.209
  20665397.391   -25688309.28149 -19736729.14845  20665397.493    20665402.885
  21245375.498   -21746898.73449 -16929471.54547  21245375.333    21245380.212
  23148288.147   -14686966.90849 -11433697.61346  23148287.474    23148293.869
  24022293.134    -8360962.47349  -6258460.59045  24022292.623    24022303.760
 03  4  2  4 13  0.0000000  0  5G14G25G11G20G 1
  22954998.249    -7247899.82249  -4995518.50546  22954997.626    22955002.077
  20664896.132   -25690943.67149 -19738781.92445  20664896.181    20664901.702
  21245887.653   -21744206.72649 -16927373.85847  21245887.528    21245892.616
  23132027.722   -14772415.91649 -11500281.19946  23132027.032    23132033.362
  24007975.151    -8436204.25849  -6317090.39045  24007974.575    24007985.627
 03  4  2  4 13 30.0000000  0  5G14G25G11G20G 1
  22969774.096    -7170252.98849  -4935014.49446  22969773.427    22969777.850
  20664496.592   -25693042.98849 -19740417.76245  20664496.737    20664502.374
  21246506.739   -21740953.88249 -16924839.15847  21246506.639    21246511.626
  23115777.851   -14857808.52749 -11566820.79746  23115777.151    23115783.615
  23993687.821    -8511284.37549  -6375594.12445  23993687.157    23993698.090
 03  4  2  4 14  0.0000000  0  5G14G25G11G20G 1
  22984558.549    -7092559.94849  -4874474.42646  22984557.902    22984562.449
  20664199.182   -25694607.23249 -19741636.65645  20664199.123    20664204.785
  21247232.627   -21737139.93649 -16921867.25247  21247232.497    21247237.357
  23099538.994   -14943143.12049 -11633315.18846  23099538.382    23099544.918
  23979431.082    -8586202.20049  -6433971.49945  23979430.606    23979441.498
 03  4  2  4 14 30.0000000  0  5G14G25G11G20G 1
  22999351.155    -7014823.26849  -4813900.37146  22999350.621    22999355.387
  20664003.069   -25695638.95049 -19742440.60645  20664003.078    20664008.353
  21248064.792   -21732767.31449 -16918460.01147  21248064.621    21248069.332
  23083311.404   -15028419.96749 -11699764.56746  23083310.766    23083317.153
  23965205.217    -8660959.39749  -6492223.72145  23965204.774    23965215.421
 03  4  2  4 15  0.0000000  0  5G14G25G11G20G 1
  23014152.229    -6937042.49649  -4753291.98046  23014151.723    23014156.674
  20663908.251   -25696137.12349 -19742828.76445  20663908.305    20663913.440
  21249003.410   -21727834.82549 -16914616.49747  21249003.211    21249007.860
  23067095.426   -15113636.38749 -11766166.88846  23067094.722    23067100.774
  23951010.130    -8735554.40549  -6550349.55645  23951009.661    23951020.354
 03  4  2  4 15 30.0000000  0  5G14G25G11G20G 1
  23028960.846    -6859221.91849  -4692652.58346  23028960.462    23028965.495
  20663914.028   -25696105.61649 -19742804.22345  20663914.120    20663919.552
  21250047.854   -21722346.11349 -16910339.56947  21250047.648    21250052.241
  23050890.479   -15198794.55649 -11832523.79346  23050889.691    23050895.686
  23936845.350    -8809990.53949  -6608351.61045  23936844.897    23936855.255
 03  4  2  4 16  0.0000000  0  5G14G25G11G20G 1
  23043777.607    -6781359.30949  -4631980.41446  23043777.245    23043782.373
  20664021.117   -25695541.28649 -19742364.47045  20664021.307    20664026.875
  21251198.755   -21716298.05949 -16905626.78747  21251198.561    21251203.161
  23034697.423   -15283889.50649 -11898831.47646  23034696.602    23034702.549
  23922711.731    -8884264.57149  -6666227.32945  23922711.182    23922720.807
 03  4  2  4 16 30.0000000  0  5G14G25G11G20G 1
  23058601.285    -6703460.60749  -4571280.16346  23058600.863    23058606.017
  20664228.989   -25694449.93149 -19741514.06345  20664228.992    20664234.617
  21252455.085   -21709696.02149 -16900482.34547  21252454.912    21252459.570
  23018515.482   -15368925.25249 -11965092.98246  23018514.744    23018520.652
  23908607.999    -8958381.04249  -6723980.26645  23908607.306    23908616.166
 03  4  2  4 17  0.0000000  0  5G14G25G11G20G 1
  23073432.805    -6625520.47449  -4510547.55546  23073432.456    23073437.419
  20664538.162   -25692825.62049 -19740248.29345  20664537.979    20664543.816
  21253817.991   -21702534.21249 -16894901.67747  21253817.788    21253822.347
  23002346.318   -15453893.72049 -12031302.11746  23002345.627    23002351.527
  23894535.144    -9032333.78949  -6781605.66845  23894534.588    23894542.881
 03  4  2  4 17 30.0000000  0  5G14G25G11G20G 1
  23088271.075    -6547544.59649  -4449787.06046  23088270.853    23088275.773
  20664947.570   -25690673.35749 -19738571.22345  20664947.345    20664953.413
  21255286.338   -21694818.09249 -16888889.12247  21255286.132    21255290.564
  22986189.313   -15538798.44849 -12097461.49945  22986188.614    22986194.679
  23880492.560    -9106127.53549  -6839107.15345  23880492.059    23880499.919
 03  4  2  4 18  0.0000000  0  5G14G25G11G20G 1
  23103116.624    -6469531.01449  -4388997.26746  23103116.436    23103121.269
  20665457.952   -25687991.50249 -19736481.44845  20665457.860    20665463.701
  21256860.758   -21686544.70649 -16882442.28747  21256860.532    21256864.801
  22970045.023   -15623635.28149 -12163568.06345  22970044.329    22970050.777
  23866480.696    -9179759.38049  -6896482.43245  23866480.100    23866488.321
 03  4  2  4 18 30.0000000  0  5G14G25G11G20G 1
  23117969.829    -6391477.66349  -4328176.51146  23117969.553    23117974.271
  20666069.830   -25684777.20749 -19733976.80645  20666069.817    20666075.450
  21258541.645   -21677711.83149 -16875559.53947  21258541.428    21258545.626
  22953914.722   -15708399.57049 -12229618.10945  22953914.076    22953920.616
  23852500.104    -9253225.92649  -6953728.94545  23852499.648    23852508.047
 03  4  2  4 19  0.0000000  0  5G14G25G11G20G 1
  23132828.949    -6313392.16549  -4267330.65146  23132828.646    23132833.400
  20666781.467   -25681038.27449 -19731063.34545  20666781.515    20666787.011
  21260327.491   -21668326.36149 -16868246.17347  21260327.252    21260331.725
  22937797.462   -15793096.96549 -12295616.03146  22937796.753    22937803.289
  23838549.836    -9326534.26449  -7010852.17545  23838549.396    23838558.052
 03  4  2  4 19 30.0000000  0  5G14G25G11G20G 1
  23147695.017    -6235270.56849  -4206456.76545  23147694.694    23147699.387
  20667593.404   -25676769.80449 -19727737.31245  20667593.424    20667599.369
  21262219.262   -21658384.18749 -16860499.00547  21262219.042    21262223.671
  22921693.898   -15877721.11349 -12361556.87646  22921693.292    22921699.773
  23824630.502    -9399679.30949  -7067848.16245  23824630.163    23824639.034
 03  4  2  4 20  0.0000000  0  5G14G25G11G20G 1
  23162567.120    -6157117.57249  -4145558.29345  23162566.668    23162571.386
  20668505.358   -25671976.23749 -19724002.09945  20668505.532    20668511.422
  21264216.235   -21647889.55849 -16852321.37547  21264216.010    21264220.682
  22905603.959   -15962274.21249 -12427442.27246  22905603.471    22905609.761
  23810742.031    -9472664.69249  -7124719.73645  23810741.637    23810750.376
 03  4  2  4 20 30.0000000  0  5G14G25G11G20G 1
  23177445.552    -6078932.11749  -4084634.59745  23177445.059    23177449.629
  20669517.840   -25666656.70549 -19719856.96545  20669517.940    20669523.509
  21266318.640   -21636841.24249 -16843712.27847  21266318.424    21266323.120
  22889528.057   -16046753.02749 -12493269.84046  22889527.540    22889533.895
  23796884.419    -9545488.51649  -7181465.41045  23796883.800    23796892.381
